[[{"header":{"parameterUnit":"m.s-1","parameterCategory":1,"la1":30.6,"la2":29.2853,"lo1":-89.7004,"lo2":-87.6739,"dy":0.0162,"dx":0.0183,"nx":112,"ny":82,"refTime":"2023-06-06T12:00:00:Z","depth":0,"parameterNumber":2,"parameterNumberName":"U-component_of_WINDS"},"data":[0.0,0.0,0.0,0.0,0.0,0.0,0.0,0.0,0.0,0.0,0.0,0.0,0.0,0.0,0.0,0.0,0.0,0.0,0.0,0.0,0.0,0.0,0.0,0.0,0.0,0.0,0.0,0.0,0.0,0.0,0.0,0.0,0.0,0.0,0.0,0.0,0.0,0.0,0.0,0.0,0.0,0.0,0.0,0.0,0.0,0.0,0.0,0.0,0.0,0.0,0.0,0.0,0.0,0.0,0.0,0.0,0.0,0.0,0.0,0.0,0.0,0.0,0.0,0.0,0.0,0.0,0.0,0.0,0.0,0.0,0.0,0.0,0.0,0.0,0.0,0.0,0.0,0.0,0.0,0.0,0.0,0.0,0.0,0.0,0.0,0.0,0.0,0.0,0.0,0.0,-5.3501,-5.3501,-5.3501,-5.3501,-5.3501,-5.4177,-5.4583,-5.4583,0.0,0.0,0.0,0.0,0.0,0.0,0.0,0.0,0.0,0.0,0.0,0.0,0.0,0.0,0.0,0.0,0.0,0.0,0.0,0.0,0.0,0.0,0.0,0.0,0.0,0.0,0.0,0.0,0.0,0.0,0.0,0.0,0.0,0.0,0.0,0.0,0.0,0.0,0.0,0.0,0.0,0.0,0.0,0.0,0.0,0.0,0.0,0.0,0.0,0.0,0.0,0.0,0.0,0.0,0.0,0.0,0.0,0.0,0.0,0.0,0.0,0.0,0.0,0.0,0.0,0.0,0.0,0.0,0.0,0.0,0.0,0.0,0.0,0.0,0.0,0.0,0.0,0.0,0.0,0.0,0.0,0.0,0.0,0.0,0.0,0.0,0.0,0.0,0.0,0.0,0.0,0.0,0.0,0.0,0.0,0.0,0.0,0.0,0.0,0.0,0.0,0.0,0.0,0.0,-5.3501,-5.3501,-5.3501,-5.3501,-5.3501,-5.4177,-5.4583,-5.4583,0.0,0.0,0.0,0.0,0.0,0.0,0.0,0.0,0.0,0.0,0.0,0.0,0.0,0.0,0.0,0.0,0.0,0.0,0.0,0.0,0.0,0.0,0.0,0.0,0.0,0.0,0.0,0.0,0.0,0.0,0.0,0.0,0.0,0.0,0.0,0.0,0.0,0.0,0.0,0.0,0.0,0.0,0.0,0.0,0.0,0.0,0.0,0.0,0.0,0.0,0.0,0.0,0.0,0.0,0.0,0.0,0.0,0.0,0.0,0.0,0.0,0.0,0.0,0.0,0.0,0.0,0.0,0.0,0.0,0.0,0.0,0.0,0.0,0.0,0.0,0.0,0.0,0.0,0.0,0.0,0.0,0.0,0.0,0.0,0.0,0.0,0.0,0.0,0.0,0.0,0.0,0.0,0.0,0.0,0.0,0.0,0.0,0.0,0.0,0.0,0.0,0.0,0.0,-5.3501,-5.3501,-5.3501,-5.3501,-5.3501,-5.3501,-5.3498,-5.3545,-5.3545,-5.4233,0.0,0.0,0.0,0.0,0.0,0.0,0.0,0.0,0.0,0.0,0.0,0.0,0.0,0.0,0.0,0.0,0.0,0.0,0.0,0.0,0.0,0.0,0.0,0.0,0.0,0.0,0.0,0.0,0.0,0.0,0.0,0.0,0.0,0.0,0.0,0.0,0.0,0.0,0.0,0.0,0.0,0.0,0.0,0.0,0.0,0.0,0.0,0.0,0.0,0.0,0.0,0.0,0.0,0.0,0.0,0.0,0.0,0.0,0.0,0.0,0.0,0.0,0.0,0.0,0.0,0.0,0.0,0.0,0.0,0.0,0.0,0.0,0.0,0.0,0.0,0.0,0.0,0.0,0.0,0.0,0.0,0.0,0.0,0.0,0.0,0.0,0.0,0.0,0.0,0.0,0.0,0.0,0.0,0.0,0.0,0.0,0.0,0.0,0.0,0.0,0.0,0.0,-5.3399,-5.328,-5.328,-5.3161,-5.3093,-5.3093,-5.2642,-5.2397,-5.2397,-5.2461,0.0,0.0,0.0,0.0,0.0,0.0,0.0,0.0,0.0,0.0,0.0,0.0,0.0,0.0,0.0,0.0,0.0,0.0,0.0,0.0,0.0,0.0,0.0,0.0,0.0,0.0,0.0,0.0,0.0,0.0,0.0,0.0,0.0,0.0,0.0,0.0,0.0,0.0,0.0,0.0,0.0,0.0,0.0,0.0,0.0,0.0,0.0,0.0,0.0,0.0,0.0,0.0,0.0,0.0,0.0,0.0,0.0,0.0,0.0,0.0,0.0,0.0,0.0,0.0,0.0,0.0,0.0,0.0,0.0,0.0,0.0,0.0,0.0,0.0,0.0,0.0,0.0,0.0,0.0,0.0,0.0,0.0,0.0,0.0,0.0,0.0,0.0,0.0,0.0,0.0,0.0,0.0,0.0,0.0,0.0,0.0,0.0,0.0,0.0,0.0,0.0,0.0,-5.3007,-5.2661,-5.2661,-5.2148,-5.1822,-5.1822,-5.1786,-5.1749,-5.1749,-5.1762,0.0,0.0,0.0,0.0,0.0,0.0,0.0,0.0,0.0,0.0,0.0,0.0,0.0,0.0,0.0,0.0,0.0,0.0,0.0,0.0,0.0,0.0,0.0,0.0,0.0,0.0,0.0,0.0,0.0,0.0,0.0,0.0,0.0,0.0,0.0,0.0,0.0,0.0,0.0,0.0,0.0,0.0,0.0,0.0,0.0,0.0,0.0,0.0,0.0,0.0,0.0,0.0,0.0,0.0,0.0,0.0,0.0,0.0,0.0,0.0,0.0,0.0,0.0,0.0,0.0,0.0,0.0,0.0,0.0,0.0,0.0,0.0,0.0,0.0,0.0,0.0,0.0,0.0,0.0,0.0,0.0,0.0,0.0,0.0,0.0,0.0,0.0,0.0,0.0,0.0,0.0,0.0,0.0,0.0,0.0,0.0,0.0,0.0,0.0,0.0,0.0,0.0,-5.2731,-5.2468,-5.2076,-5.1822,-5.1712,-5.1712,-5.1364,-5.114,-5.114,0.0,0.0,0.0,0.0,0.0,0.0,0.0,0.0,0.0,0.0,0.0,0.0,0.0,0.0,0.0,0.0,0.0,0.0,0.0,0.0,0.0,0.0,0.0,0.0,0.0,0.0,0.0,0.0,0.0,0.0,0.0,0.0,0.0,0.0,0.0,0.0,0.0,0.0,0.0,0.0,0.0,0.0,0.0,0.0,0.0,0.0,0.0,0.0,0.0,0.0,0.0,0.0,0.0,0.0,0.0,0.0,0.0,0.0,0.0,0.0,0.0,0.0,0.0,0.0,0.0,0.0,0.0,0.0,0.0,0.0,0.0,0.0,0.0,0.0,0.0,0.0,0.0,0.0,0.0,0.0,0.0,0.0,0.0,0.0,0.0,0.0,0.0,0.0,0.0,0.0,0.0,0.0,0.0,0.0,0.0,0.0,0.0,0.0,0.0,0.0,0.0,0.0,-5.2661,-5.2291,-5.1878,-5.1438,-5.1215,-5.1118,-5.1118,-5.0761,-5.0493,-5.0493,0.0,0.0,0.0,0.0,0.0,0.0,0.0,0.0,0.0,0.0,0.0,0.0,0.0,0.0,0.0,0.0,0.0,0.0,0.0,0.0,0.0,0.0,0.0,0.0,0.0,0.0,0.0,0.0,0.0,0.0,0.0,0.0,0.0,0.0,0.0,0.0,0.0,0.0,0.0,0.0,0.0,0.0,0.0,0.0,0.0,0.0,0.0,0.0,0.0,0.0,0.0,0.0,0.0,0.0,0.0,0.0,0.0,0.0,0.0,0.0,0.0,0.0,0.0,0.0,0.0,0.0,0.0,0.0,0.0,0.0,0.0,0.0,0.0,0.0,0.0,0.0,0.0,0.0,0.0,0.0,0.0,0.0,0.0,0.0,0.0,0.0,0.0,0.0,0.0,0.0,0.0,0.0,0.0,0.0,0.0,0.0,0.0,0.0,0.0,0.0,0.0,0.0,-5.259,-5.1533,-5.08,-5.0783,-5.0253,-4.9876,-4.9876,-4.9876,-4.9876,0.0,0.0,0.0,0.0,0.0,0.0,0.0,0.0,0.0,0.0,0.0,0.0,0.0,0.0,0.0,0.0,0.0,0.0,0.0,0.0,0.0,0.0,0.0,0.0,0.0,0.0,0.0,0.0,0.0,0.0,0.0,0.0,0.0,0.0,0.0,0.0,0.0,0.0,0.0,0.0,0.0,0.0,0.0,0.0,0.0,0.0,0.0,0.0,0.0,0.0,0.0,0.0,0.0,0.0,0.0,0.0,0.0,0.0,0.0,0.0,0.0,0.0,0.0,0.0,0.0,0.0,0.0,0.0,0.0,0.0,0.0,0.0,0.0,0.0,0.0,0.0,0.0,0.0,0.0,0.0,0.0,0.0,0.0,0.0,0.0,0.0,0.0,0.0,0.0,0.0,0.0,0.0,0.0,0.0,0.0,0.0,0.0,0.0,0.0,0.0,0.0,0.0,0.0,-5.204,-5.129,-5.0647,-5.0214,-4.9995,-4.9876,-4.9876,-4.9876,-4.9876,-4.9876,0.0,0.0,0.0,0.0,0.0,0.0,0.0,0.0,0.0,0.0,0.0,0.0,0.0,0.0,0.0,0.0,0.0,0.0,0.0,0.0,0.0,0.0,0.0,0.0,0.0,0.0,0.0,0.0,0.0,0.0,0.0,0.0,0.0,0.0,0.0,0.0,0.0,0.0,0.0,0.0,0.0,0.0,0.0,0.0,0.0,0.0,0.0,0.0,0.0,0.0,0.0,0.0,0.0,0.0,0.0,0.0,0.0,0.0,0.0,0.0,0.0,0.0,0.0,0.0,0.0,0.0,0.0,0.0,0.0,0.0,0.0,0.0,0.0,0.0,0.0,0.0,0.0,0.0,0.0,0.0,0.0,0.0,0.0,0.0,0.0,0.0,0.0,0.0,0.0,0.0,0.0,0.0,0.0,0.0,0.0,0.0,0.0,0.0,0.0,0.0,0.0,0.0,-5.1749,-5.0951,-5.0315,-4.9955,-4.9876,-4.9876,-4.9876,-4.9757,-4.9677,-4.9677,0.0,0.0,0.0,0.0,0.0,0.0,0.0,0.0,0.0,0.0,0.0,0.0,0.0,0.0,0.0,0.0,0.0,0.0,0.0,0.0,0.0,0.0,0.0,0.0,0.0,0.0,0.0,0.0,0.0,0.0,0.0,0.0,0.0,0.0,0.0,0.0,0.0,0.0,0.0,0.0,0.0,0.0,0.0,0.0,0.0,0.0,0.0,0.0,0.0,0.0,0.0,0.0,0.0,0.0,0.0,0.0,0.0,0.0,0.0,0.0,0.0,0.0,0.0,0.0,0.0,0.0,0.0,0.0,0.0,0.0,0.0,0.0,0.0,0.0,0.0,0.0,0.0,0.0,0.0,0.0,0.0,0.0,0.0,0.0,0.0,0.0,0.0,0.0,0.0,0.0,0.0,0.0,0.0,0.0,0.0,0.0,0.0,0.0,0.0,0.0,0.0,0.0,-5.1712,-5.0624,-4.9876,-4.9876,-4.9876,-4.9836,-4.9836,-4.9477,-4.9235,-4.9235,0.0,0.0,0.0,0.0,0.0,0.0,0.0,0.0,0.0,0.0,0.0,0.0,0.0,0.0,0.0,0.0,0.0,0.0,0.0,0.0,0.0,0.0,0.0,0.0,0.0,0.0,0.0,0.0,0.0,0.0,0.0,0.0,0.0,0.0,0.0,0.0,0.0,0.0,0.0,0.0,0.0,0.0,0.0,0.0,0.0,0.0,0.0,0.0,0.0,0.0,0.0,0.0,0.0,0.0,0.0,0.0,0.0,0.0,0.0,0.0,-5.6681,0.0,0.0,0.0,0.0,0.0,0.0,0.0,0.0,0.0,0.0,0.0,0.0,0.0,0.0,0.0,0.0,0.0,0.0,0.0,0.0,0.0,0.0,0.0,0.0,0.0,0.0,0.0,0.0,0.0,0.0,0.0,0.0,0.0,0.0,0.0,0.0,0.0,0.0,0.0,0.0,0.0,-5.1712,-5.0624,-4.9876,-4.9876,-4.9597,-4.9437,-4.9437,-4.9031,-4.8744,-4.8744,-4.837,0.0,0.0,0.0,0.0,0.0,0.0,0.0,0.0,0.0,0.0,0.0,0.0,0.0,0.0,0.0,0.0,0.0,0.0,0.0,0.0,0.0,0.0,0.0,0.0,0.0,0.0,0.0,0.0,0.0,0.0,0.0,0.0,0.0,0.0,0.0,0.0,0.0,0.0,0.0,0.0,0.0,0.0,0.0,0.0,0.0,0.0,0.0,0.0,0.0,0.0,0.0,0.0,0.0,0.0,0.0,0.0,0.0,0.0,0.0,0.0,-5.6765,0.0,0.0,0.0,0.0,0.0,0.0,0.0,0.0,0.0,0.0,0.0,0.0,0.0,0.0,0.0,0.0,0.0,0.0,0.0,0.0,0.0,0.0,0.0,0.0,0.0,0.0,0.0,0.0,0.0,0.0,0.0,0.0,0.0,0.0,0.0,0.0,0.0,0.0,0.0,0.0,-5.1027,-5.0159,-4.9517,-4.9316,-4.9113,-4.8934,-4.8934,-4.8578,-4.8328,-4.8328,-4.788,0.0,0.0,0.0,0.0,0.0,0.0,0.0,0.0,0.0,0.0,0.0,0.0,0.0,0.0,0.0,0.0,0.0,0.0,0.0,0.0,0.0,0.0,0.0,0.0,0.0,0.0,0.0,0.0,0.0,0.0,0.0,0.0,0.0,0.0,0.0,0.0,0.0,0.0,0.0,0.0,0.0,0.0,0.0,0.0,0.0,0.0,0.0,0.0,0.0,0.0,0.0,0.0,0.0,-5.6461,-5.712,-5.7695,-5.7831,-5.7881,-5.7881,-5.7881,-5.7881,-5.7881,-5.7881,0.0,0.0,0.0,0.0,0.0,0.0,0.0,0.0,0.0,0.0,0.0,0.0,0.0,0.0,0.0,0.0,0.0,0.0,0.0,0.0,0.0,0.0,0.0,0.0,-5.3501,-5.3467,-5.3264,0.0,0.0,0.0,0.0,0.0,0.0,0.0,0.0,0.0,0.0,0.0,-5.0182,-4.9526,-4.9031,-4.8661,-4.8537,-4.8495,-4.8495,-4.8133,-4.788,-4.788,-4.751,-4.7309,0.0,0.0,0.0,0.0,0.0,0.0,0.0,0.0,0.0,0.0,0.0,0.0,0.0,0.0,0.0,0.0,0.0,0.0,0.0,0.0,0.0,0.0,0.0,0.0,0.0,0.0,0.0,0.0,0.0,0.0,0.0,0.0,-5.3364,-5.3794,0.0,0.0,0.0,0.0,0.0,0.0,0.0,0.0,0.0,0.0,0.0,0.0,0.0,-5.4516,-5.4448,-5.5192,-5.5615,-5.5733,-5.6461,-5.685,-5.6968,-5.7594,-5.7881,-5.7881,-5.7881,0.0,-5.7881,-5.7881,0.0,0.0,0.0,0.0,0.0,0.0,0.0,0.0,0.0,0.0,0.0,0.0,0.0,0.0,0.0,0.0,0.0,0.0,0.0,0.0,0.0,0.0,-5.3501,-5.3501,-5.3501,-5.323,0.0,-5.2784,-5.311,-5.2277,-5.2046,0.0,0.0,0.0,0.0,0.0,0.0,0.0,-4.9662,-4.9066,-4.8661,-4.862,-4.8301,-4.8091,-4.8091,-4.7681,-4.7381,-4.7381,-4.7352,-4.7309,-4.7309,-4.7309,0.0,0.0,0.0,0.0,0.0,0.0,0.0,0.0,0.0,0.0,0.0,0.0,0.0,0.0,0.0,0.0,0.0,0.0,0.0,0.0,0.0,0.0,0.0,0.0,0.0,0.0,0.0,0.0,0.0,-5.3651,-5.3899,-5.4257,-5.4463,-5.4683,0.0,0.0,0.0,0.0,0.0,0.0,0.0,0.0,0.0,-5.4013,-5.399,-5.3974,-5.3974,-5.4718,-5.5091,-5.5091,-5.6258,-5.6799,-5.6833,-5.756,-5.7881,-5.7881,-5.7881,-5.7881,-5.7881,-5.7881,-5.7645,-5.7273,0.0,0.0,0.0,0.0,-5.619,-5.6089,-5.5344,-5.5091,-5.5006,-5.46,0.0,0.0,0.0,0.0,0.0,0.0,0.0,0.0,0.0,0.0,-5.3007,-5.3007,-5.2522,-5.2026,-5.1809,-5.1954,-5.1902,0.0,-5.1229,-5.1303,-5.108,0.0,0.0,0.0,0.0,-4.9519,-4.878,-4.8438,-4.816,-4.788,-4.7724,-4.7596,-4.7596,-4.7439,-4.7309,-4.7309,-4.7309,-4.7309,-4.7309,-4.7309,-4.7309,0.0,0.0,0.0,0.0,0.0,0.0,0.0,0.0,0.0,0.0,0.0,0.0,0.0,0.0,0.0,0.0,0.0,0.0,0.0,0.0,0.0,0.0,0.0,0.0,0.0,0.0,0.0,0.0,-5.3718,-5.403,-5.4448,-5.4714,-5.49,0.0,0.0,0.0,0.0,0.0,0.0,-5.4745,-5.4271,-5.3965,-5.3866,-5.3618,-5.3602,-5.3788,-5.4329,-5.4685,-5.4905,-5.619,-5.6799,-5.6833,-5.756,-5.7881,-5.7881,-5.7881,-5.7881,-5.7881,-5.7881,-5.7577,-5.707,-5.707,-5.6748,-5.6241,-5.6055,-5.5987,-5.5869,-5.4921,-5.4583,-5.4465,-5.3737,-5.3501,-5.3501,-5.3501,0.0,0.0,0.0,0.0,-5.323,-5.3093,-5.2712,-5.2326,-5.2222,-5.1594,-5.0968,-5.0978,-5.0908,-5.0703,0.0,-5.0397,-5.0458,-5.0048,0.0,0.0,0.0,0.0,-4.8805,-4.7922,-4.7794,-4.7681,-4.7352,-4.7309,-4.7309,-4.7309,-4.7309,-4.7309,-4.7309,-4.7309,-4.7309,-4.7309,-4.7309,-4.7309,-4.7309,0.0,0.0,0.0,0.0,0.0,0.0,0.0,0.0,0.0,0.0,0.0,0.0,0.0,0.0,0.0,0.0,0.0,0.0,0.0,0.0,0.0,0.0,0.0,0.0,0.0,0.0,0.0,0.0,0.0,-5.4416,-5.4512,0.0,0.0,0.0,0.0,-5.4575,-5.4807,-5.4697,-5.4078,-5.4013,-5.3866,-5.3534,-5.3501,-5.3839,-5.4532,-5.4566,-5.4955,-5.5666,-5.6444,-5.6799,-5.6833,-5.756,-5.7881,-5.7881,-5.7881,-5.7881,-5.7881,-5.7881,-5.7865,-5.7831,-5.7831,-5.7814,-5.7695,-5.7002,-5.6748,-5.6545,-5.5091,-5.4583,-5.4465,-5.3737,-5.3501,-5.3501,-5.3501,-5.3501,0.0,0.0,-5.2661,-5.2503,-5.1931,-5.1749,-5.1623,-5.1171,-5.1043,-5.0611,-4.9256,-4.9734,-5.0242,0.0,-4.9567,-4.9447,-4.8948,0.0,-4.8297,-4.8759,-4.8407,-4.788,-4.7381,-4.7352,-4.7352,-4.7309,-4.7309,-4.7309,-4.7309,-4.7309,-4.7309,-4.7309,-4.7309,-4.7309,-4.7309,-4.7309,-4.7309,-4.7309,-4.7309,0.0,0.0,0.0,0.0,0.0,0.0,0.0,0.0,0.0,0.0,0.0,0.0,0.0,0.0,0.0,0.0,0.0,0.0,0.0,0.0,0.0,0.0,0.0,0.0,0.0,0.0,0.0,0.0,-5.4399,-5.4683,0.0,-5.5282,-5.5221,-5.5101,-5.4838,-5.4714,-5.4463,-5.4013,-5.398,-5.4055,-5.4194,-5.4211,-5.4566,-5.531,-5.531,-5.5446,-5.5733,-5.6461,-5.6799,-5.6833,-5.756,-5.7881,-5.7881,-5.7881,-5.7881,-5.7881,-5.7881,-5.7611,-5.7188,-5.7188,-5.69,-5.6461,-5.6207,-5.6105,-5.6038,-5.5497,-5.531,-5.5277,-5.5006,-5.46,-5.4211,-5.4211,-5.3617,-5.2886,-5.2661,-5.2326,-5.1967,-5.1749,-5.1401,-5.1011,-5.0576,-4.9955,-4.9318,-4.8764,-4.8764,-4.8805,-4.8589,-4.8815,-4.88,-4.8003,-4.7694,-4.7624,-4.7807,-4.7651,-4.7467,-4.7309,-4.7309,-4.7309,-4.7309,-4.7309,-4.7309,-4.7309,-4.7309,-4.7309,-4.7309,-4.7309,-4.7309,-4.7309,-4.7309,-4.7309,-4.7309,-4.7309,-4.7309,0.0,0.0,0.0,0.0,0.0,0.0,0.0,0.0,0.0,0.0,0.0,0.0,0.0,0.0,0.0,0.0,0.0,0.0,0.0,0.0,0.0,0.0,0.0,0.0,0.0,-5.3008,-5.3382,-5.4108,-5.4665,-5.5083,-5.5312,-5.5221,-5.5022,-5.4683,-5.4557,-5.4424,-5.4224,-5.4208,-5.4431,-5.4938,-5.4972,-5.5327,-5.6072,-5.6089,-5.6207,-5.6461,-5.6934,-5.7171,-5.7188,-5.7679,-5.7881,-5.7881,-5.7881,-5.7881,-5.7881,-5.7881,-5.7594,-5.7171,-5.7171,-5.6867,-5.6444,-5.6444,-5.6444,-5.6427,-5.6173,-5.5919,-5.5681,-5.5681,-5.5378,-5.4972,-5.4972,-5.4201,-5.3221,-5.2793,-5.222,-5.1652,-5.1221,-5.0816,-5.0354,-4.9805,-4.9138,-4.8537,-4.8202,-4.7964,-4.7752,-4.7752,-4.8172,-4.8267,-4.7424,-4.7309,-4.7309,-4.7309,-4.7309,-4.7309,-4.7309,-4.7309,-4.7309,-4.7309,-4.7309,-4.7309,-4.7309,-4.7309,-4.7309,-4.7309,-4.7309,-4.7309,-4.7309,-4.7309,-4.7309,-4.7309,-4.7309,-4.7309,-4.7309,0.0,0.0,0.0,0.0,0.0,0.0,0.0,0.0,0.0,0.0,0.0,0.0,0.0,0.0,0.0,0.0,0.0,0.0,0.0,0.0,0.0,0.0,0.0,-5.1639,-5.247,-5.3196,-5.3565,-5.4425,-5.4992,-5.5022,-5.5312,-5.5118,-5.4112,-5.4355,-5.4552,-5.4617,-5.4617,-5.4972,-5.5733,-5.5715,-5.6105,-5.6833,-5.6833,-5.7188,-5.7881,-5.7881,-5.7881,-5.7881,-5.7881,-5.7881,-5.7881,-5.7881,-5.7881,-5.7881,-5.7881,-5.7881,-5.7881,-5.7881,-5.7881,-5.7881,-5.7881,-5.7881,-5.778,-5.707,-5.6376,-5.5749,-5.5749,-5.5732,-5.5715,-5.5715,-5.5204,-5.4406,-5.3177,-5.2373,-5.1587,-5.0295,-4.9908,-4.9709,-4.8826,-4.862,-4.837,-4.754,-4.7339,-4.7339,-4.7354,-4.7742,-4.7882,-4.7396,-4.7309,-4.7309,-4.7309,-4.7309,0.0,-4.7309,-4.7309,-4.7309,-4.7309,-4.7309,-4.7309,-4.7309,-4.7309,-4.7309,-4.7309,-4.7309,-4.7309,-4.7309,-4.7309,-4.7309,-4.7309,-4.7309,-4.7309,-4.7309,0.0,0.0,0.0,0.0,0.0,0.0,0.0,0.0,0.0,0.0,0.0,0.0,0.0,0.0,0.0,0.0,0.0,0.0,0.0,0.0,0.0,-5.129,-5.1027,-5.1639,-5.1915,-5.2454,-5.3482,-5.422,-5.4824,-5.5329,-5.5448,-5.5388,-5.5174,-5.5258,-5.5324,-5.5396,-5.5412,-5.575,-5.6478,-5.6511,-5.685,-5.7577,-5.7594,-5.7695,-5.7881,-5.7881,-5.7881,-5.7881,-5.7881,-5.7881,-5.7881,-5.7881,-5.7881,-5.7881,-5.7881,-5.7881,-5.7881,-5.7881,-5.7881,-5.7881,-5.7881,-5.7881,-5.7865,-5.7662,-5.7459,-5.7289,-5.7289,-5.6934,-5.644,-5.599,-5.5036,-5.394,-5.3113,-5.2452,-5.1762,-5.0904,-5.069,-5.0427,-4.9344,-4.9113,-4.9006,-4.8529,-4.8462,-4.8526,-4.8715,-4.8849,-4.8593,-4.7474,-4.7309,-4.7309,-4.7309,-4.7309,0.0,-4.7309,-4.7309,-4.7309,-4.7309,-4.7309,-4.7309,-4.7309,-4.7309,-4.7309,-4.7309,-4.7309,-4.7309,-4.7309,-4.7309,-4.7309,-4.7309,-4.7309,-4.7309,0.0,0.0,0.0,0.0,0.0,0.0,0.0,0.0,0.0,0.0,0.0,0.0,0.0,0.0,0.0,0.0,0.0,0.0,0.0,0.0,0.0,0.0,-5.08,-5.0685,-5.1422,-5.1865,-5.2491,-5.3482,-5.4379,-5.5192,-5.5899,-5.5964,-5.6069,-5.6287,-5.6146,-5.6162,-5.642,-5.6244,-5.6511,-5.7239,-5.7256,-5.7459,-5.7881,-5.7881,-5.7881,-5.7881,-5.7881,-5.7881,-5.7881,-5.7881,-5.7881,-5.7881,-5.7881,-5.7881,-5.7881,-5.7881,-5.7881,0.0,0.0,0.0,0.0,0.0,-5.7881,-5.7881,-5.7881,-5.7881,-5.7881,-5.7881,-5.7448,-5.6818,-5.6483,-5.543,-5.4257,-5.3535,-5.2922,-5.2302,-5.1591,-5.1417,-5.1225,-5.0366,-5.0009,-4.9742,-4.9415,-4.9201,-4.9102,-4.9284,-4.9314,0.0,-4.8252,-4.8132,-4.8132,-4.8132,-4.8132,-4.8027,-4.7758,-4.7713,-4.7608,-4.7339,-4.7309,-4.7309,-4.7309,-4.7309,0.0,0.0,0.0,-4.7309,-4.7309,-4.7309,0.0,0.0,0.0,-4.7309,-4.7309,0.0,0.0,0.0,-4.713,-4.71,0.0,0.0,0.0,0.0,0.0,0.0,0.0,0.0,0.0,0.0,0.0,0.0,0.0,0.0,0.0,0.0,-5.0354,-5.0315,-5.1225,-5.2277,-5.3111,-5.3598,-5.4793,-5.5834,-5.6526,-5.6684,-5.693,-5.7405,-5.7054,-5.7052,-5.75,0.0,0.0,0.0,0.0,-5.7763,-5.7763,-5.7679,-5.7645,-5.7645,-5.7645,-5.7645,-5.7645,-5.7645,-5.7645,-5.7645,-5.7645,-5.7695,-5.7763,-5.7763,-5.7814,-5.7881,-5.7881,-5.7881,-5.7881,-5.7881,-5.7881,-5.7881,-5.7881,0.0,0.0,-5.7881,-5.7551,-5.7063,-5.6949,-5.61,-5.506,-5.4252,-5.363,-5.3044,-5.2317,-5.2128,-5.1988,-5.1534,-5.1037,-5.0565,-5.0191,-4.9763,-4.9494,-4.9524,-4.9524,-4.9524,-4.9524,-4.9419,-4.9314,-4.9314,-4.9314,-4.9105,-4.8476,-4.8401,-4.8147,-4.7489,0.0,0.0,-4.7309,-4.7309,-4.7309,-4.7309,-4.7309,-4.7309,-4.7309,-4.7309,-4.7309,-4.7309,-4.7309,-4.7309,-4.7309,-4.7309,-4.7309,-4.7309,-4.7309,-4.7309,0.0,0.0,0.0,0.0,0.0,0.0,0.0,0.0,0.0,0.0,0.0,0.0,0.0,0.0,0.0,-5.08,-5.0685,-5.0876,-5.1549,-5.3235,-5.4278,-5.4009,-5.5199,-5.6134,-5.6548,-5.7193,-5.7722,-5.8174,-5.7867,-5.7843,-5.8269,-5.7912,-5.7746,-5.7881,-5.7323,-5.7019,-5.7019,-5.6427,-5.6139,-5.6139,0.0,0.0,-5.6139,-5.6139,-5.6139,-5.6139,-5.6139,-5.6478,-5.7019,-5.7019,-5.7357,-5.7881,-5.7881,-5.7881,-5.7881,-5.7881,-5.7881,-5.7881,-5.7881,-5.7881,-5.7881,-5.7881,-5.7808,-5.7534,-5.6492,-5.602,0.0,-5.4405,-5.3983,-5.3755,-5.3076,-5.2902,-5.2618,-5.1585,-5.1234,-5.1076,-5.0814,-5.0667,-5.0638,-5.0782,-5.084,-5.084,-5.084,-4.9972,-4.9314,-4.9314,-4.9314,-4.9269,-4.9134,-4.912,-4.8865,-4.8162,-4.8102,-4.7878,-4.7354,-4.7309,-4.7309,-4.7309,-4.7309,-4.7309,-4.7309,-4.7309,-4.7309,-4.7309,-4.7309,-4.7309,-4.7309,-4.7309,-4.7309,-4.7309,-4.7309,-4.7309,0.0,0.0,0.0,0.0,0.0,0.0,0.0,0.0,0.0,0.0,0.0,-5.0892,0.0,0.0,-5.0354,-5.0354,-5.0608,-5.1275,-5.2597,-5.3919,-5.4785,-5.4851,-5.6098,-5.7166,-5.7741,-5.8158,-5.8657,-5.9202,-5.8746,-5.8565,-5.8736,-5.7867,-5.734,-5.734,-5.663,-5.6258,-5.6258,-5.5902,-5.5681,-5.5681,-5.5681,-5.5681,-5.5681,-5.5681,-5.5681,-5.5681,-5.5681,-5.5919,-5.6258,-5.6258,-5.6681,-5.734,-5.734,-5.7577,-5.7881,-5.7881,-5.7881,-5.7881,-5.7881,-5.7881,-5.7881,-5.7881,-5.7698,-5.7273,-5.628,-5.5781,-5.5352,-5.4386,-5.4103,-5.3981,-5.3377,-5.3255,-5.3032,-5.221,-5.1783,-5.1552,-5.141,-5.1212,-5.1088,-5.1201,-5.1214,-5.1214,-5.1214,-5.0676,-5.0242,-5.0242,-5.0242,-5.0122,-4.9793,-4.9748,-4.9508,-4.8895,-4.882,-4.8506,-4.7863,-4.7489,-4.7309,-4.7309,-4.7309,-4.7309,-4.7309,-4.7309,-4.7309,-4.7309,-4.7309,-4.7309,-4.7309,-4.7309,-4.7309,-4.7309,-4.7309,-4.7309,0.0,0.0,0.0,0.0,0.0,0.0,0.0,0.0,-5.0761,-5.1268,-5.0586,-5.0073,-5.0547,-5.0214,-4.9955,-5.0073,-5.0582,-5.1663,-5.358,-5.4582,-5.5382,-5.5979,-5.721,-5.8299,-5.8948,-5.9141,-5.9457,-6.0054,-5.9418,-5.9012,-5.9012,-5.7752,-5.7019,-5.7019,-5.6173,-5.5681,-5.5681,-5.5429,-5.5294,-5.5294,-5.5294,-5.5294,-5.5294,-5.5294,-5.5294,-5.5294,-5.5429,-5.5497,-5.5513,-5.5649,-5.6055,-5.6613,-5.6748,-5.7154,-5.7695,-5.7831,-5.7881,-5.7881,-5.7881,-5.7881,-5.7881,-5.7881,-5.7588,-5.7063,-5.6375,-5.5781,-5.5147,-5.4454,-5.4215,-5.4001,-5.364,-5.3524,-5.3377,-5.2846,-5.2382,-5.1972,-5.1803,-5.1494,-5.1214,-5.1214,-5.1214,-5.1214,-5.1214,-5.1214,-5.1214,-5.1214,-5.1214,-5.102,-5.045,-5.0375,-5.0182,-4.9523,-4.9449,-4.9134,-4.8356,-4.7803,-4.7444,-4.7309,-4.7309,-4.7309,-4.7309,-4.7309,-4.7309,-4.7309,-4.7309,-4.7309,-4.7309,-4.7309,-4.7234,-4.7115,-4.7249,-4.7309,-4.6195,-4.7649,-4.9036,-4.971,-4.9907,-4.9962,0.0,0.0,-5.0034,-5.0073,-4.9995,-4.9916,-4.9995,-4.9955,-5.0073,-5.0608,-5.1324,-5.2221,-5.3548,-5.5405,-5.6884,-5.7565,-5.836,-5.8913,-5.9001,-5.9598,-6.0001,-6.0089,-5.9418,-5.9012,-5.9012,-5.8229,-5.7763,-5.7763,-5.6444,-5.5681,-5.5681,-5.4414,-5.3754,-5.3754,-5.3754,-5.3754,-5.3754,-5.3754,-5.3754,-5.3788,-5.4431,-5.4718,-5.4769,-5.5446,-5.5732,-5.5902,-5.6545,-5.685,-5.7002,-5.7645,-5.7881,-5.7881,-5.7881,-5.7881,-5.7881,-5.7881,-5.7845,-5.7698,-5.7046,-5.6414,-5.5781,-5.5147,-5.4539,-5.4103,-5.406,-5.4001,-5.3785,-5.2891,-5.2667,-5.2352,-5.1479,-5.1214,-5.1214,-5.1214,-5.1214,-5.1214,-5.1214,-5.1214,-5.1214,-5.1214,-5.1214,-5.1184,-5.1124,-5.1109,-5.0808,-5.0151,-5.0091,-4.9628,-4.8386,-4.8222,-4.7923,-4.7339,-4.7309,-4.7309,-4.7309,-4.7309,-4.7309,-4.7309,-4.7309,-4.7309,-4.7309,-4.7309,-4.701,-4.6456,-4.704,-4.7309,-4.6906,-4.8331,-4.9457,-4.9347,-4.9615,-4.9876,-4.9876,-4.9876,-4.9876,-4.9876,-4.9876,-4.9876,-4.9876,-4.9876,-4.9995,0.0,-5.1211,-5.2508,-5.4209,-5.5864,-5.7466,-5.9012,-5.9456,-5.9633,-5.9633,-5.9914,-6.0089,-6.0089,-5.9635,-5.9369,-5.9369,-5.8238,-5.7594,-5.7594,-5.6364,-5.5497,-5.5057,-5.4448,-5.3923,-5.3501,-5.3501,-5.3501,-5.3501,-5.3501,-5.3501,-5.3518,-5.3822,-5.3957,-5.3974,-5.4296,-5.4685,-5.5091,-5.5395,-5.5784,-5.6308,-5.7459,-5.7881,-5.7881,-5.7881,-5.7881,-5.7881,-5.7881,-5.7881,-5.7772,-5.7176,-5.6531,-5.5861,-5.5271,-5.4623,-5.406,-5.3785,-5.3683,-5.3509,-5.2846,-5.2487,-5.2124,-5.1711,-5.1401,-5.1214,-5.1214,-5.1214,-5.1214,-5.1214,-5.1214,-5.1214,-5.1214,-5.1214,-5.1214,-5.1214,-5.1214,-5.1109,-5.0794,-5.042,-4.9971,-4.9464,-4.873,-4.8162,-4.7893,-4.7519,-4.7309,-4.7309,-4.7309,-4.7309,-4.7309,-4.7309,-4.7309,-4.7309,-4.7309,-4.716,-4.6905,-4.7174,-4.71,-4.7896,-4.9031,-4.9765,-4.9299,-4.9552,-4.9876,-4.9876,-4.9876,-4.9876,-4.9876,-4.9876,-4.9876,-4.9876,-4.9876,-5.0018,-5.0406,-5.1421,-5.2898,-5.4965,-5.6389,-5.7878,-5.958,-5.9961,-6.0089,-6.0089,-6.0089,-6.0089,-6.0089,-5.97,-5.9502,-5.9602,-5.8273,-5.7582,-5.7687,-5.6587,-5.575,-5.5209,-5.4786,-5.4329,-5.3805,-5.3602,-5.3501,-5.3501,-5.3501,-5.3501,-5.3501,-5.3501,-5.3501,-5.3501,-5.3501,-5.3805,-5.4313,-5.4515,-5.4921,-5.5564,-5.6816,-5.7408,-5.7628,-5.7814,-5.7881,-5.7881,-5.7881,-5.7881,-5.7808,-5.7364,-5.6779,-5.6139,-5.5539,-5.4858,-5.4242,-5.3742,-5.3596,-5.3465,-5.3024,-5.2487,-5.2063,-5.1941,-5.1526,-5.1214,-5.1214,-5.1214,-5.1214,-5.1214,-5.1214,-5.1214,-5.1214,-5.1214,-5.1214,-5.1214,-5.1214,-5.1214,-5.1214,-5.0749,-5.039,-5.0211,-4.9209,-4.8476,-4.8297,-4.7668,-4.7309,-4.7309,-4.7309,-4.7309,-4.7309,-4.7309,-4.7309,-4.7309,-4.7309,-4.7204,-4.704,-4.7219,-4.695,-4.8683,-4.9378,-4.9876,-4.986,-4.986,-4.9876,-4.9876,-4.9876,-4.9876,-4.9876,-4.9876,-4.9876,-4.9876,-4.9876,-5.0335,-5.161,-5.2457,-5.3607,-5.5518,-5.7108,-5.8301,-5.8961,-5.965,-6.0089,0.0,-6.0089,-6.0089,-6.0089,-5.9418,-5.9183,-5.9569,-5.8492,-5.8082,-5.8456,-5.7369,-5.6765,-5.6731,-5.531,-5.4583,-5.4549,-5.3839,-5.3501,-5.3501,-5.3501,-5.3501,-5.3501,-5.3501,-5.3501,-5.3501,-5.3501,-5.3518,-5.3602,-5.4313,-5.46,-5.4718,-5.5497,-5.6224,-5.6934,-5.7645,-5.7881,-5.7881,-5.7881,-5.7881,-5.7898,-5.7881,-5.7439,-5.6817,-5.6179,-5.5539,-5.4899,-5.4258,-5.4103,-5.3958,-5.3465,-5.3024,-5.2532,-5.2018,-5.1526,-5.1214,-5.1214,-5.1214,-5.1214,-5.1214,-5.1214,-5.1214,-5.1214,-5.1214,-5.1214,-5.1214,-5.1214,-5.1214,-5.1214,-5.1199,-5.0883,-5.024,-4.9628,-4.9,-4.8327,-4.7668,-4.7309,-4.7309,-4.7309,-4.7309,-4.7309,-4.7309,-4.7309,-4.7309,-4.7309,-4.698,-4.6324,-4.701,-4.695,-4.9141,-4.941,-4.9347,-4.9805,-4.9876,-4.9876,-4.9876,-4.9876,-4.9876,-4.9876,-4.9876,-4.9876,-4.9876,-4.9876,-5.0192,-5.1128,-5.2252,-5.3701,-5.5725,-5.7198,-5.8511,-5.9617,-5.9961,0.0,0.0,0.0,0.0,-5.9766,-5.9716,-5.9602,-5.9217,-5.884,-5.8597,-5.849,-5.7878,-5.7289,-5.6799,-5.5818,-5.5091,-5.4583,-5.3856,-5.3501,-5.3501,-5.3501,-5.3501,-5.3501,-5.3501,-5.3501,-5.3501,-5.3501,-5.3501,-5.3518,-5.3771,-5.3873,-5.3957,-5.4702,-5.5124,-5.5446,-5.619,-5.6765,-5.7171,-5.7171,-5.7492,-5.7881,-5.7881,-5.7476,-5.6872,-5.6179,-5.558,-5.4957,-5.4258,-5.4103,-5.3958,-5.3509,-5.329,-5.2935,-5.2063,-5.1757,-5.1572,-5.1261,-5.1214,-5.1214,-5.1214,-5.1214,-5.1214,-5.1214,-5.1214,-5.1214,-5.1214,-5.1214,-5.1214,-5.1214,-5.1214,-5.1124,-5.0868,-4.9883,-4.9209,-4.9,-4.7908,-4.7309,-4.7309,-4.7309,-4.7309,-4.7309,-4.7309,-4.7309,-4.7309,-4.7309,-4.7189,-4.698,-4.7204,-4.695,-4.9047,-4.922,-4.9047,-4.9742,-4.9876,-4.9876,-4.9876,-4.9876,-4.9876,-4.9876,-4.9876,-4.9876,-4.9876,-4.9876,-5.0311,-5.1542,-5.2736,-5.4191,-5.6166,-5.7708,-5.8909,-5.9617,-5.9928,-6.0089,0.0,0.0,0.0,-5.9799,-5.9716,-5.9551,-5.9217,-5.884,-5.8562,-5.849,-5.8371,-5.8068,-5.7594,-5.685,-5.5987,-5.4989,-5.4515,-5.416,-5.389,-5.389,-5.3754,-5.3501,-5.3501,-5.3399,-5.3195,-5.3433,-5.3382,-5.3195,-5.3433,-5.3501,-5.3518,-5.3803,-5.4006,-5.4346,-5.5361,-5.6021,-5.6461,-5.6714,-5.712,-5.7543,-5.7814,-5.7625,-5.7214,-5.6531,-5.606,-5.558,-5.4707,-5.4454,-5.4327,-5.3785,-5.3377,-5.298,-5.2352,-5.1895,-5.1572,-5.1261,-5.1214,-5.1214,-5.1214,-5.1214,-5.1214,-5.1214,-5.1214,-5.1214,-5.1214,-5.1214,-5.1214,-5.1214,-5.1214,-5.1214,-5.1214,-5.0227,-4.9508,-4.9329,-4.8252,-4.7549,-4.7309,-4.7309,-4.7309,-4.7309,-4.7309,-4.7309,-4.7309,-4.7309,-4.7309,-4.7309,-4.7309,-4.7085,-4.8494,-4.8857,-4.9015,-4.9742,-4.9876,-4.9876,-4.9876,-4.9876,-4.9876,-4.9876,-4.9916,-4.9931,-4.9963,-4.9979,-5.066,-5.2684,-5.3836,-5.5086,-5.677,-5.8457,-5.9402,0.0,0.0,0.0,0.0,0.0,0.0,-6.0089,0.0,-5.9183,-5.9535,-5.8509,-5.8133,-5.8506,-5.8826,-5.9032,-5.9066,-5.8287,-5.7154,-5.5681,-5.5681,-5.5344,-5.4651,-5.4617,-5.4211,-5.3551,-5.3518,-5.3161,-5.2626,-5.3195,-5.3093,-5.2626,-5.3195,-5.3467,-5.3382,-5.2817,-5.2972,-5.367,-5.5038,-5.5597,-5.5784,-5.6461,-5.6714,-5.6884,-5.7611,-5.7831,-5.7721,-5.716,-5.6987,-5.6663,-5.5434,-5.5065,-5.4858,-5.4173,-5.3377,-5.2712,-5.2622,-5.1895,-5.1214,-5.1214,-5.1214,-5.1214,-5.1214,-5.1214,-5.1214,-5.1214,-5.1214,-5.1214,-5.1214,-5.1214,-5.1214,-5.1214,-5.1214,-5.1214,-5.1214,-5.0539,-4.9927,-4.9359,-4.8626,-4.7952,-4.7339,-4.7309,-4.7309,-4.7309,-4.7309,-4.7309,-4.7309,-4.7309,-4.7309,-4.7309,-4.7309,-4.7309,-4.8367,-4.8525,-4.843,-4.9631,-4.9876,-4.9876,-4.9876,-4.9876,-4.9876,-4.9876,-5.0253,-5.0591,-5.0675,-5.1104,-5.1765,-5.2876,-5.3648,0.0,-5.6796,-5.7872,0.0,-5.9716,0.0,-6.0089,-6.0089,-6.0089,0.0,0.0,-5.9928,-5.9535,-5.8823,-5.8736,-5.8783,-5.8858,-5.895,-5.9268,-5.981,-5.8524,-5.7154,-5.5681,-5.5681,-5.5615,-5.5412,-5.4854,-5.4482,-5.4279,-5.3737,-5.3161,-5.2626,-5.2782,-5.2485,-5.2004,-5.259,-5.2817,-5.2817,-5.2661,-5.2696,-5.2867,-5.327,-5.4034,-5.4905,-5.5091,-5.553,-5.6139,-5.6867,-5.707,-5.708,-5.7026,-5.6625,-5.606,-5.5312,-5.4749,-5.413,-5.3246,-5.3157,-5.2935,-5.1803,-5.1665,-5.1618,-5.1261,-5.1214,-5.1214,-5.1214,-5.1214,-5.1214,-5.1214,-5.1214,-5.1214,-5.1214,-5.1214,-5.1214,-5.1214,-5.1214,-5.1214,-5.1214,-5.0167,-4.9434,-4.9329,-4.8192,-4.7474,-4.7309,-4.7309,-4.7309,-4.7309,-4.7309,-4.7309,-4.7309,-4.7309,-4.7309,-4.7309,-4.7309,-4.7309,-4.8051,-4.8399,-4.8588,-4.9663,-4.9876,-4.9876,-4.9876,-4.9876,-4.9876,-4.9876,-5.0175,-5.0538,-5.0928,-5.1296,-5.1941,0.0,0.0,0.0,-5.677,-5.7799,-5.8633,0.0,-5.9896,0.0,-6.0089,-6.0089,-6.0025,0.0,-5.9733,-5.9351,-5.8754,-5.8597,-5.8655,-5.8998,-5.9319,-5.9691,-6.0097,-5.9268,-5.8118,-5.6681,-5.6681,-5.6369,-5.5763,-5.5289,-5.4749,-5.4117,0.0,-5.2747,-5.2219,-5.2219,-5.1842,-5.1364,-5.1967,-5.2362,-5.2555,-5.2023,-5.2131,-5.2503,-5.1987,-5.2663,-5.3817,-5.4413,-5.4871,-5.5429,-5.6478,-5.6799,-5.6879,-5.7275,-5.7122,-5.6647,-5.5741,-5.5033,-5.4364,-5.3274,-5.2876,-5.2517,-5.1665,-5.1526,-5.1526,-5.1261,-5.1214,-5.1214,-5.1214,-5.1214,-5.1214,-5.1214,-5.1214,-5.1214,-5.1214,-5.1214,-5.1214,-5.1214,-5.1214,-5.1214,-5.1214,-5.0287,-4.9568,-4.9329,-4.8297,-4.7608,-4.7309,-4.7309,-4.7309,-4.7309,-4.7309,-4.7309,-4.7309,-4.7309,-4.7309,-4.7309,-4.7309,-4.7309,-4.7814,-4.8446,-4.9047,-4.9742,-4.9876,-4.9876,-4.9876,-4.9876,-4.9876,-4.9876,-4.9955,-5.0232,-5.0999,-5.1262,-5.1949,-5.3703,0.0,-5.5189,-5.6718,-5.7799,-5.8582,-5.9029,-5.9683,-6.0089,-6.0089,-6.0089,-5.9961,-5.9635,-5.9217,-5.8978,-5.8944,-5.8314,-5.8361,-5.9133,-5.9962,-6.0317,-6.0097,-6.0097,-5.9353,-5.7881,-5.7808,-5.7177,-5.6038,-5.5643,-5.4781,-5.3592,-5.2834,-5.2148,-5.1602,-5.1602,-5.1215,-5.0723,-5.1327,-5.1895,-5.2238,-5.1199,-5.1459,-5.2203,-5.1161,-5.1512,-5.2584,-5.3884,-5.4397,-5.4718,-5.6207,-5.6664,-5.6833,-5.7645,-5.7772,-5.7385,-5.6297,-5.5547,-5.4736,-5.3565,-5.2562,-5.188,-5.1803,-5.1494,-5.1214,-5.1214,-5.1214,-5.1214,-5.1214,-5.1214,-5.1214,-5.1214,-5.1214,-5.1214,-5.1214,-5.1214,-5.1214,-5.1214,-5.1214,-5.1214,-5.1214,-5.048,-4.9868,-4.9344,-4.8566,-4.7908,-4.7324,-4.7309,-4.7309,-4.7309,-4.7309,-4.7309,-4.7309,-4.7309,-4.7309,-4.7309,-4.7309,-4.7309,-4.8367,-4.8794,-4.9047,-4.9742,-4.9876,-4.9876,-4.9876,-4.9876,0.0,-4.9876,-5.0276,-5.0909,-5.1672,-5.27,-5.3547,-5.4015,-5.4598,-5.5417,-5.6487,-5.7064,-5.7893,0.0,-5.9864,-6.0089,-6.0089,-6.0089,0.0,0.0,-5.9217,-5.8875,-5.8579,-5.849,-5.8853,-5.9877,-6.1264,-6.1383,-6.0114,-6.0097,-5.9353,-5.7881,-5.7402,-5.7034,-5.6754,-5.4993,-5.4091,-5.378,-5.2433,0.0,-5.0951,-5.0951,-5.0624,-5.0113,-5.0723,-5.1027,-5.1102,-5.0876,-5.0935,-5.1086,-5.0859,-5.0935,-5.129,-5.2547,-5.3261,-5.3974,-5.5446,-5.5902,-5.619,-5.7509,-5.7143,-5.6297,-5.606,-5.4851,-5.358,-5.298,-5.2352,-5.1803,-5.1401,-5.1261,-5.1214,-5.1214,-5.1214,-5.1214,-5.1214,-5.1214,-5.1214,-5.1214,-5.1214,-5.1214,-5.1214,-5.1214,-5.1214,-5.1214,-5.1214,-5.1214,-5.1214,-5.0122,-4.9434,-4.9329,-4.8132,-4.7429,-4.7309,-4.7309,-4.7309,-4.7309,-4.7309,-4.7309,-4.7309,-4.7309,-4.7309,-4.7309,-4.7309,-4.7309,-4.8715,-4.9141,-4.9505,-4.9797,-4.9876,-4.9876,-4.9876,0.0,0.0,-4.9876,-5.0393,-5.1157,-5.2285,-5.3272,0.0,-5.4947,-5.5336,-5.5925,-5.6942,-5.7379,0.0,-5.9451,-5.9896,-6.0089,0.0,-5.9928,-5.97,-5.9335,-5.8961,-5.8684,-5.8525,-5.9045,-5.9556,-6.008,-6.1586,-6.1653,-6.0114,-5.9792,-5.8899,-5.7439,-5.6762,-5.6313,-5.5971,-5.4546,-5.3699,-5.3292,-5.1848,-5.1065,-5.08,-5.047,-5.0175,-4.9916,-5.0214,-5.0531,-5.0761,-5.0432,-5.0547,-5.0761,-5.0432,-5.0547,-5.0951,-5.1842,-5.252,-5.3361,-5.5155,-5.5681,-5.5898,-5.6767,-5.6581,-5.5899,-5.4968,-5.3934,-5.3022,-5.2427,-5.1895,-5.1479,-5.1261,-5.1214,-5.1214,-5.1214,-5.1214,-5.1214,-5.1214,-5.1214,-5.1214,-5.1214,-5.1214,-5.1214,-5.1214,-5.1214,-5.1214,-5.1214,-5.1214,-5.1079,-5.0689,-4.9823,-4.9164,-4.882,-4.7848,-4.7309,-4.7309,-4.7309,-4.7309,-4.7309,-4.7309,-4.7309,-4.7309,-4.7309,-4.7309,-4.7309,-4.7309,-4.7309,-4.9078,-4.9505,-4.9876,-4.9876,-4.9876,-4.9876,-4.9876,-4.9876,0.0,-4.9876,-5.0292,-5.1041,-5.2524,-5.3412,-5.435,0.0,-5.6146,-5.6614,0.0,0.0,0.0,0.0,-5.9766,0.0,-6.0089,-5.9799,0.0,-5.9047,-5.8614,-5.8367,-5.8367,-5.9488,-6.0097,-6.0097,-6.1586,-6.1615,-5.9924,-5.9444,-5.8397,-5.6779,-5.5975,-5.5312,-5.4832,-5.3772,-5.299,-5.2436,-5.117,-5.0608,-5.057,-5.0113,-4.9876,-4.9876,-4.9876,-5.0175,-5.0531,-5.0058,-5.0214,-5.0547,-5.0058,-5.0214,-5.0723,-5.129,-5.2004,-5.2946,-5.4883,-5.5581,-5.5757,-5.606,-5.6066,-5.5651,-5.4158,-5.3224,-5.2546,-5.1926,-5.1479,-5.1214,-5.1214,-5.1214,-5.1214,-5.1214,-5.1214,-5.1214,-5.1214,-5.1214,-5.1214,-5.1214,-5.1214,-5.1214,-5.1214,-5.1214,-5.1122,-5.102,-5.1005,-5.0749,-5.024,-4.9508,-4.888,-4.8312,-4.7668,-4.7309,-4.7309,-4.7309,-4.7309,-4.7309,-4.7309,-4.7309,-4.7309,-4.7309,-4.7309,-4.7309,-4.7309,-4.7309,-4.9647,-4.9829,-4.9876,-4.9876,-4.9876,-4.9876,-4.9876,0.0,-4.9876,-4.9876,-4.9955,-5.0422,-5.183,-5.3082,-5.4278,-5.5471,-5.6603,-5.7392,0.0,0.0,0.0,0.0,0.0,0.0,0.0,-5.9799,0.0,-5.9047,-5.835,-5.7971,-5.7971,-5.934,-6.0097,-6.0097,-6.1586,-6.1419,-5.9287,-5.9247,-5.8144,-5.6083,-5.4793,-5.4164,-5.4051,-5.2132,-5.1215,-5.1143,-5.0327,-4.9995,0.0,-4.9916,-4.9876,-4.9876,-4.9876,-4.9916,-4.9995,-4.9916,-4.9931,-4.9995,-4.9916,-4.9955,-5.0058,-5.0685,-5.1659,-5.2846,-5.4259,-5.5175,-5.5727,-5.5899,-5.5676,-5.5215,-5.4443,-5.3124,-5.188,-5.1386,-5.1214,-5.1214,-5.1214,-5.1214,-5.1214,-5.1214,-5.1214,-5.1214,-5.1214,-5.1214,-5.1214,-5.1214,-5.1214,-5.1214,-5.1214,-5.1214,-5.099,-5.0345,-5.0285,-5.0255,-5.0196,-4.909,-4.8356,-4.8282,-4.7668,-4.7309,-4.7309,-4.7309,-4.7309,-4.7309,-4.7309,-4.7309,-4.7309,-4.7309,-4.7309,-4.7309,-4.7309,-4.7309,-4.9852,-4.9876,-4.9876,-4.9876,-4.9876,-4.9876,-4.9876,0.0,-4.9876,-4.9876,-5.0175,-5.0902,-5.2325,-5.3628,-5.4962,-5.6485,-5.752,0.0,-5.8685,0.0,0.0,0.0,0.0,0.0,0.0,0.0,-5.8978,-5.8385,-5.8063,-5.7735,-5.7364,-5.8693,-5.9287,-5.8928,-6.0315,-6.0048,-5.7972,-5.7568,-5.6523,-5.477,-5.343,-5.2809,-5.2736,-5.1539,-5.1015,-5.0967,-5.0232,-4.9876,0.0,-4.9876,-4.9876,-4.9876,-4.9876,-4.9876,-4.9876,-4.9876,-4.9876,-4.9876,-4.9876,-4.9876,-4.9995,-5.0608,-5.1124,-5.179,-5.3116,-5.4007,-5.4568,-5.4398,-5.4315,-5.4046,-5.308,-5.2185,-5.1433,-5.1261,-5.1214,-5.1214,-5.1214,-5.1214,-5.1214,-5.1214,-5.1214,-5.1214,-5.1214,-5.1214,-5.1214,-5.1214,-5.1214,-5.1065,-5.0629,-5.0584,-5.0376,-4.9733,-5.0002,-4.9867,-4.9134,-4.8581,-4.8117,-4.7713,-4.7459,-4.7309,-4.7309,-4.7309,-4.7309,-4.7309,-4.7309,-4.7309,-4.7309,-4.7309,-4.7309,-4.7294,-4.6905,-4.6711,-4.9876,-4.9876,-4.9876,-4.9876,-4.9876,-4.9876,0.0,0.0,-4.9876,-4.9876,-5.0253,-5.1057,-5.2683,-5.3858,-5.5222,-5.7341,0.0,-5.8858,-5.9502,0.0,0.0,0.0,0.0,-5.9864,0.0,-5.9166,-5.8526,-5.7698,-5.7625,-5.7439,-5.7025,-5.7699,-5.8029,-5.7802,-5.8797,-5.8393,-5.6515,-5.5886,-5.4863,-5.3397,-5.2263,-5.1701,-5.1685,-5.0974,-5.0658,-5.0642,-5.0137,-4.9876,0.0,-4.9876,-4.9876,-4.9876,-4.9876,-4.9876,-4.9876,-4.9876,-4.9876,-4.9876,-4.9876,-4.9876,-4.9955,-5.0393,-5.0531,-5.0753,-5.1906,-5.3019,-5.3846,-5.3559,-5.3413,-5.3139,-5.2321,-5.1665,-5.1214,-5.1354,-5.1308,-5.1214,-5.1214,-5.1214,-5.1214,-5.1214,-5.1214,-5.1214,-5.1214,-5.1214,-5.1214,-5.1214,-5.105,-5.0719,-5.0255,-5.0016,-4.9703,-4.9045,-4.9389,-4.9284,-4.8371,-4.8102,-4.7803,-4.7339,-4.7309,-4.7309,-4.7309,-4.7309,-4.7309,-4.7309,-4.7309,-4.7309,-4.7309,-4.7309,-4.7204,-4.6995,-4.6503,-4.607,-4.9876,-4.9876,-4.9876,-4.9876,-4.9876,-4.9876,0.0,0.0,-4.9876,-4.9876,-4.9916,-5.0541,-5.2604,-5.3512,-5.4833,-5.7652,-5.8615,0.0,-5.9535,0.0,0.0,0.0,0.0,0.0,-5.9602,-5.8927,-5.808,-5.7101,-5.7025,0.0,-5.6987,-5.6391,-5.6348,-5.7076,-5.7182,-5.6556,-5.5115,-5.4454,-5.3397,-5.2017,-5.1306,-5.103,-5.0999,-5.0247,-4.9892,-4.9892,-4.9876,-4.9876,0.0,-4.9876,-4.9876,-4.9876,-4.9876,-4.9876,-4.9876,-4.9876,-4.9876,-4.9876,-4.9876,-4.9876,-4.9876,-4.9916,-4.9916,-5.0058,-5.0793,-5.2354,-5.3885,-5.3898,-5.3317,-5.2712,-5.2712,-5.1941,-5.1308,-5.1803,-5.1541,-5.1214,-5.1214,-5.1214,-5.1214,-5.1214,-5.1214,-5.1214,-5.1214,-5.1214,-5.1214,-5.1214,-5.0629,-5.0196,-5.0196,-4.9673,-4.906,-4.8371,-4.8297,-4.8297,-4.8282,-4.7683,-4.7309,-4.7309,-4.7309,-4.7309,-4.7309,-4.7309,-4.7309,-4.7309,-4.7309,-4.7309,-4.7309,-4.7309,-4.698,-4.6294,-4.6279,-4.5577,-4.9876,-4.9876,-4.9876,-4.9876,-4.9876,-4.9876,-4.9876,0.0,-4.9876,-4.9876,-4.9876,-5.0382,-5.2018,-5.3402,-5.497,-5.7073,-5.8546,0.0,0.0,0.0,0.0,0.0,0.0,0.0,0.0,0.0,-5.6669,-5.6336,-5.6297,-5.6139,-5.5701,-5.5499,-5.549,-5.5742,-5.5758,-5.5106,-5.3728,-5.3013,-5.2232,-5.129,-5.0595,-5.0247,-5.0247,-5.0026,-4.9876,-4.9876,-4.9876,-4.9876,-4.9876,-4.9876,-4.9876,-4.9876,-4.9876,-4.9876,-4.9876,-4.9876,-4.9876,-4.9876,-4.9876,-4.9876,-4.9876,-4.9876,-5.0247,-5.0769,-5.1464,-5.2421,-5.3341,-5.3623,-5.3187,-5.2532,-5.1849,-5.1448,-5.1214,-5.1401,-5.1308,-5.1214,-5.1214,-5.1214,-5.1214,-5.1214,-5.1214,-5.1214,-5.1214,-5.0808,-5.051,-5.051,-4.9987,-4.9404,-4.897,-4.8716,-4.8341,-4.7683,-4.7623,-4.7623,-4.7623,-4.7429,-4.7309,-4.7309,-4.7309,-4.7309,-4.7309,-4.7309,-4.7309,-4.7309,-4.7309,-4.7085,-4.6636,-4.6636,-4.6052,-4.4945,-4.4945,-4.4441,0.0,-4.9876,-4.9876,-4.9876,-4.9876,0.0,0.0,0.0,-4.9876,-4.9876,-5.0137,-5.0738,-5.2106,-5.363,-5.5206,-5.6675,-5.8193,-5.9064,0.0,0.0,0.0,0.0,0.0,0.0,0.0,-5.6303,-5.5901,-5.5661,-5.5661,-5.5499,-5.5106,-5.4617,-5.4365,-5.4365,-5.4093,-5.3423,-5.2317,-5.1591,-5.1006,-5.0563,-5.0137,-4.9876,-4.9876,-4.9876,-4.9876,-4.9876,-4.9876,-4.9876,0.0,-4.9876,-4.9876,-4.9876,-4.9876,-4.9876,-4.9876,-4.9876,-4.9876,-4.9876,-4.9876,-5.0089,-5.0326,-5.0326,-5.099,-5.19,-5.2543,-5.305,-5.3432,-5.3514,-5.3126,-5.2577,-5.1941,-5.1494,-5.1261,-5.1433,-5.1354,-5.1214,-5.1214,-5.1214,-5.1214,-5.1214,-5.1214,-5.1139,-5.0885,-5.0465,-5.0106,-4.9898,-4.9314,-4.8745,-4.8341,-4.8072,-4.7758,-4.7354,-4.7309,-4.7309,-4.7309,-4.7309,-4.7309,-4.7309,-4.7309,-4.7309,-4.7309,-4.7309,-4.7189,-4.6935,-4.6935,-4.6606,-4.5933,-4.5693,-4.514,-4.4302,-4.4062,-4.3678,0.0,-4.9876,-4.9876,-4.9876,-4.9876,0.0,0.0,0.0,0.0,-4.9979,-5.0516,-5.1438,-5.2813,-5.4092,-5.5324,-5.6426,-5.7594,-5.8101,0.0,-5.7547,0.0,0.0,-5.6646,0.0,-5.5603,-5.5749,-5.562,-5.5065,-5.5024,-5.5024,-5.5024,-5.3792,-5.3092,-5.3028,-5.2317,-5.1622,-5.1015,-5.0279,-4.9876,-4.9876,-4.9876,-4.9876,-4.9876,-4.9876,-4.9908,0.0,-4.9995,-5.0026,-5.0034,-5.0034,-5.0034,-5.0018,-5.001,-4.9995,-4.9955,-4.9947,-4.9908,-4.9995,-4.9995,-5.0453,-5.1094,-5.1141,-5.2017,-5.3233,-5.3823,-5.4055,-5.4001,-5.3596,-5.3113,-5.2712,-5.2667,-5.1941,-5.1308,-5.1757,-5.1526,-5.1214,-5.1214,-5.1214,-5.1214,-5.1154,-5.1154,-5.0945,-5.024,-5.0091,-4.9898,-4.9329,-4.8641,-4.8222,-4.8222,-4.7683,-4.7309,-4.7309,-4.7309,-4.7309,-4.7309,-4.7309,-4.7309,-4.7309,-4.7309,-4.7309,-4.7309,-4.7249,-4.695,-4.6294,-4.619,-4.5858,-4.5229,-4.4571,-4.4242,-4.4227,-4.3574,-4.329,-4.9876,0.0,-4.9876,-4.9876,-4.9876,-4.9876,0.0,0.0,0.0,0.0,0.0,0.0,0.0,-5.4258,-5.5136,-5.6371,-5.708,-5.7251,-5.6778,0.0,0.0,-5.5588,-5.5033,-5.4842,-5.5156,-5.4816,0.0,0.0,-5.4343,-5.4343,-5.4343,-5.3555,-5.2855,-5.2286,-5.1591,-5.1148,-5.1015,-5.0279,-4.9876,-4.9876,-4.9876,-4.9876,-4.9876,-4.9876,-5.0216,-5.0721,-5.0721,-5.1022,-5.1527,-5.1527,-5.1527,-5.1464,-5.0943,-5.0721,-5.0658,-5.0121,-5.0263,-5.0721,-5.0721,-5.118,-5.1859,-5.2428,-5.2839,-5.3244,-5.3862,-5.4089,-5.4087,-5.4109,-5.3418,-5.2622,-5.22,-5.1665,-5.1214,-5.1354,-5.1261,-5.1214,-5.1214,-5.1214,-5.1065,-5.0524,-5.042,-5.0257,-4.9613,-4.9075,-4.8686,-4.8536,-4.7952,-4.7534,-4.7534,-4.7399,-4.7309,-4.7309,-4.7309,-4.7309,-4.7309,-4.7309,-4.7309,-4.7309,-4.7309,-4.7309,-4.7309,-4.683,-4.6444,-4.6279,-4.5304,-4.4706,-4.4541,-4.3843,-4.3529,-4.3514,-4.3364,-4.329,-4.9876,-4.9876,-4.9876,-4.9876,-4.9876,-4.9876,-4.9876,0.0,0.0,0.0,0.0,0.0,0.0,0.0,0.0,0.0,-5.6097,0.0,0.0,0.0,0.0,-5.4623,-5.4343,-5.4258,0.0,0.0,0.0,0.0,0.0,-5.4103,-5.4103,-5.3471,-5.2934,-5.2523,-5.1828,-5.1148,-5.05,-5.0121,-5.0089,-5.0405,-5.0405,-5.0579,-5.0879,-5.0879,-5.1085,-5.1448,-5.1448,-5.1654,-5.2017,-5.2017,-5.2017,-5.197,-5.1591,-5.1448,-5.1401,-5.1022,-5.1116,-5.1448,-5.1448,-5.1922,-5.2633,-5.3329,-5.3566,-5.3629,-5.3992,-5.4103,-5.4087,-5.3911,-5.3302,-5.2577,-5.2033,-5.1526,-5.1214,-5.1214,-5.1214,-5.1139,-5.0794,-5.0719,-5.0524,-4.9927,-4.9793,-4.9583,-4.8925,-4.8521,-4.8192,-4.7878,-4.7534,-4.7309,-4.7309,-4.7309,-4.7309,-4.7309,-4.7309,-4.7309,-4.7309,-4.7309,-4.7309,-4.7309,-4.7025,-4.686,-4.686,-4.6217,-4.5708,-4.5409,-4.4392,-4.3828,-4.3828,-4.3469,-4.329,-4.329,-4.329,-4.329,-4.9876,-4.9876,-4.9876,-4.9876,-4.9876,-4.9908,-5.0058,0.0,0.0,0.0,0.0,0.0,0.0,-5.424,0.0,0.0,0.0,0.0,0.0,0.0,0.0,0.0,0.0,0.0,0.0,0.0,0.0,0.0,0.0,-5.4103,-5.4103,-5.3471,-5.3107,-5.3107,-5.2396,-5.1448,-5.0208,-5.0208,-5.0532,-5.1173,-5.1173,-5.1433,-5.2017,-5.2017,-5.2065,-5.2175,0.0,0.0,-5.2333,-5.2333,-5.2333,-5.2317,-5.2223,-5.2175,-5.2159,-5.2049,-5.208,-5.2191,-5.2302,-5.2744,-5.336,-5.3913,-5.4103,-5.4103,-5.4103,-5.4103,-5.4017,-5.3612,-5.3113,-5.2622,-5.217,-5.1618,-5.1184,-5.1094,-5.1065,-5.0885,-5.0181,-5.0046,-4.9898,-4.9284,-4.9164,-4.8955,-4.8252,-4.8132,-4.7938,-4.7399,-4.7309,-4.7309,-4.7309,-4.7309,-4.7309,-4.7309,-4.7309,-4.7264,-4.716,-4.716,-4.7115,-4.701,-4.6576,-4.619,-4.598,-4.5454,-4.484,-4.4182,-4.3574,-4.329,-4.329,-4.329,-4.329,-4.329,-4.329,-4.329,-4.9876,-4.9876,-4.9876,-4.9876,-4.9876,-5.0074,-5.0674,0.0,0.0,0.0,0.0,0.0,0.0,-5.4517,-5.4428,0.0,0.0,-5.4343,0.0,0.0,-5.4103,-5.4103,0.0,0.0,0.0,0.0,0.0,0.0,0.0,-5.4103,-5.4103,-5.3471,-5.3107,-5.3107,-5.2396,-5.1907,-5.1685,-5.1685,-5.1749,-5.1859,-5.1859,-5.1907,-5.2017,-5.2017,-5.2349,-5.2934,0.0,-5.325,-5.3771,-5.3771,-5.3771,-5.3724,-5.3155,-5.2934,-5.287,-5.2238,-5.2412,-5.3013,-5.3581,-5.385,-5.3961,-5.4071,-5.4103,-5.4103,-5.4103,-5.4103,-5.4087,-5.4001,-5.3377,-5.2667,-5.2622,-5.1895,-5.1079,-5.048,-5.0345,-5.0212,-4.9553,-4.9419,-4.9224,-4.8566,-4.8431,-4.8222,-4.7578,-4.7459,-4.7414,-4.7324,-4.7309,-4.7309,-4.7309,-4.7309,-4.7309,-4.7309,-4.7309,-4.7085,-4.6516,-4.6429,-4.6217,-4.5633,-4.6052,-4.5771,-4.4661,-4.4526,-4.4152,-4.3454,-4.3349,-4.329,-4.329,-4.329,-4.329,-4.329,-4.329,-4.329,-4.9876,-4.9876,-4.9876,-4.9876,-4.9876,-5.0105,-5.0816,0.0,0.0,0.0,0.0,0.0,0.0,0.0,-5.4215,-5.4497,0.0,-5.4103,-5.4103,-5.4103,-5.4103,0.0,0.0,0.0,0.0,0.0,0.0,0.0,0.0,0.0,-5.4103,-5.3818,-5.3645,-5.3645,-5.3313,-5.3139,-5.3139,-5.3139,-5.2949,-5.2602,-5.2602,-5.2791,-5.3139,-5.3139,-5.3329,-5.3645,0.0,-5.3818,-5.4103,-5.4103,-5.4103,-5.4071,-5.3755,-5.3645,-5.3597,-5.3265,-5.336,-5.3692,-5.3992,-5.4103,-5.4103,-5.4103,-5.4103,-5.4103,-5.4103,-5.4103,-5.4024,-5.366,-5.333,-5.2991,-5.2603,-5.1801,-5.0925,-5.0216,-4.9885,-4.9538,-4.888,-4.8745,-4.8536,-4.7878,-4.7758,-4.7653,-4.7354,-4.7309,-4.7309,-4.7309,-4.7309,-4.7309,-4.7309,-4.7309,-4.7309,-4.7309,-4.6995,-4.6651,-4.6309,-4.5978,-4.5484,-4.4811,-4.5065,-4.4755,-4.3783,-4.3738,-4.3604,-4.3305,-4.329,-4.329,-4.329,-4.329,-4.329,-4.329,-4.329,-4.329,-4.9876,-4.9876,-4.9876,-4.9876,0.0,0.0,0.0,0.0,0.0,0.0,0.0,0.0,0.0,-5.4103,0.0,-5.4103,-5.4103,-5.4103,-5.4103,-5.4103,-5.4103,-5.4103,-5.4103,0.0,0.0,0.0,0.0,0.0,0.0,0.0,-5.4103,-5.4103,-5.4103,-5.4103,-5.4103,-5.4103,-5.4103,-5.4103,-5.3834,-5.3329,-5.3329,-5.3597,-5.4103,-5.4103,-5.4103,-5.4103,-5.4103,-5.4103,-5.4103,-5.4103,-5.4103,-5.4103,-5.4103,-5.4103,-5.4103,-5.4103,-5.4103,-5.4103,-5.4103,-5.4103,-5.4103,-5.4103,-5.3992,-5.3866,-5.3866,-5.3755,-5.3502,-5.2997,-5.2948,-5.2915,-5.2239,-5.1405,-5.0545,-4.9833,-4.9372,-4.885,-4.8192,-4.8057,-4.7908,-4.7399,-4.7309,-4.7309,-4.7309,-4.7309,-4.7309,-4.7309,-4.7309,-4.7309,-4.7309,-4.7174,-4.707,-4.707,-4.6486,-4.6022,-4.5816,-4.5229,-4.4616,-4.4122,-4.4092,-4.3828,-4.3319,-4.329,-4.329,-4.329,-4.329,-4.329,-4.329,-4.329,-4.329,-4.329,-4.329,-4.329,-4.9876,-4.9876,-4.9876,-4.9876,-5.0405,0.0,-5.178,-5.2507,0.0,-5.3882,0.0,0.0,0.0,-5.4103,-5.4103,-5.4103,-5.4103,-5.4103,-5.4103,0.0,-5.4103,-5.4103,-5.4103,0.0,0.0,0.0,0.0,0.0,0.0,0.0,-5.4103,-5.4103,-5.4103,-5.4103,-5.4103,-5.4103,-5.4103,-5.4103,-5.4071,-5.4024,-5.4024,-5.4055,-5.4103,-5.4103,-5.4103,-5.4103,-5.4103,-5.4103,-5.4103,-5.4103,-5.4103,-5.4103,-5.4103,-5.4103,-5.4103,-5.4103,-5.4103,-5.4103,-5.4103,-5.4103,-5.4103,-5.4103,-5.3692,-5.3186,-5.3186,-5.2697,-5.2144,-5.2096,-5.2086,-5.1978,-5.1496,-5.0669,-4.9802,-4.9135,-4.865,-4.8177,-4.7519,-4.7369,-4.7369,-4.7309,-4.7309,-4.7309,-4.7309,-4.7309,-4.7309,-4.7309,-4.7309,-4.7309,-4.7309,-4.677,-4.6354,-4.6354,-4.5783,-4.5125,-4.4511,-4.3813,-4.3409,-4.3364,-4.3364,-4.3349,-4.329,-4.329,-4.329,-4.329,-4.329,-4.329,-4.329,-4.329,-4.329,-4.329,-4.329,-4.329,-4.9876,-4.9876,-5.0026,-5.0469,-5.1101,0.0,0.0,-5.257,-5.3297,-5.3961,-5.4103,0.0,0.0,0.0,-5.4103,-5.4103,-5.4103,-5.4103,-5.4103,-5.4103,-5.4103,-5.4103,-5.4103,0.0,0.0,0.0,0.0,0.0,0.0,0.0,-5.4103,-5.4103,-5.4103,-5.4103,-5.4103,-5.4103,-5.4103,-5.4103,-5.4103,-5.4103,-5.4103,-5.4103,-5.4103,-5.4103,-5.4103,-5.4103,-5.4103,-5.4103,-5.4103,-5.4103,-5.4103,-5.4103,-5.4103,-5.4103,-5.4103,-5.4103,-5.4103,-5.404,-5.3629,-5.3487,-5.3408,-5.2949,-5.2633,-5.2428,-5.2428,-5.2223,-5.1922,-5.1496,-5.1369,-5.1272,-5.0819,-5.0217,-4.9552,-4.8581,-4.8,-4.7608,-4.7354,-4.7309,-4.7309,-4.7309,-4.7309,-4.7309,-4.7309,-4.7309,-4.7309,-4.7309,-4.6965,-4.6696,-4.6696,-4.6097,-4.5678,-4.5678,-4.508,-4.4421,-4.3723,-4.3439,-4.329,-4.329,-4.329,-4.329,-4.329,-4.329,-4.329,-4.329,-4.329,-4.329,-4.329,-4.329,-4.329,-4.329,-4.329,-4.329,-4.9876,-4.9876,-5.0042,-5.0532,0.0,0.0,-5.2017,-5.2744,-5.355,-5.4008,-5.4103,-5.4103,-5.4103,0.0,0.0,0.0,-5.4103,0.0,0.0,0.0,0.0,0.0,0.0,0.0,0.0,0.0,0.0,0.0,0.0,0.0,0.0,-5.4103,-5.4103,-5.4103,-5.4103,-5.4103,-5.4103,-5.4103,-5.4103,-5.4103,-5.4103,-5.4103,-5.4103,-5.4103,-5.4103,-5.4103,-5.4103,-5.4103,-5.4103,-5.4103,-5.4103,-5.4087,-5.3866,-5.3787,-5.3755,-5.3518,-5.3439,-5.3376,-5.2918,-5.276,-5.2681,-5.2175,-5.1859,-5.1685,-5.1685,-5.1527,-5.1243,-5.0769,-5.0642,-5.0522,-4.9936,-4.9563,-4.9162,-4.8366,-4.7709,-4.7309,-4.7309,-4.7309,-4.7309,-4.7309,-4.7309,-4.7309,-4.7309,-4.7309,-4.7234,-4.7025,-4.6563,-4.6204,-4.6022,-4.5409,-4.49,-4.4691,-4.4272,-4.3783,-4.3334,-4.329,-4.329,-4.329,-4.329,-4.329,-4.329,-4.329,-4.329,-4.329,-4.329,-4.329,-4.329,-4.329,-4.329,-4.329,-4.329,-4.329,-4.9876,-4.9876,-4.9876,0.0,0.0,0.0,-5.2017,-5.3092,-5.4103,-5.4103,-5.4103,-5.4103,-5.4103,-5.4103,0.0,-5.4103,-5.4103,-5.4103,0.0,0.0,0.0,0.0,0.0,0.0,0.0,0.0,0.0,0.0,0.0,0.0,0.0,-5.4103,-5.4103,-5.4103,-5.4103,-5.4103,-5.4103,-5.4103,-5.4103,-5.4103,-5.4103,-5.4103,-5.4103,-5.4103,-5.4103,-5.4103,-5.4103,-5.4103,-5.4087,-5.4087,-5.4087,-5.4008,-5.336,-5.3092,-5.3013,-5.2286,-5.2017,-5.2017,-5.2001,-5.2001,-5.2001,-5.1986,-5.1527,-5.0999,-5.0999,-5.0484,-4.9876,-4.9876,-4.9876,-4.9717,-4.8826,-4.862,-4.862,-4.8578,-4.7922,-4.7309,-4.7309,-4.7309,-4.7309,-4.7309,-4.7294,-4.7294,-4.7294,-4.7294,-4.707,-4.6369,-4.6264,-4.6052,-4.5364,-4.4706,-4.4062,-4.3364,-4.329,-4.329,-4.329,-4.329,-4.329,-4.329,-4.329,-4.329,-4.329,-4.329,-4.329,-4.329,-4.329,-4.329,-4.329,-4.329,-4.329,-4.329,-4.329,-4.329,-4.9876,-4.9876,0.0,-5.0532,0.0,0.0,0.0,-5.3471,0.0,0.0,-5.4103,-5.4103,-5.4103,-5.4103,0.0,-5.4103,-5.4103,-5.4103,0.0,0.0,0.0,0.0,0.0,0.0,0.0,0.0,0.0,0.0,0.0,0.0,-5.4103,-5.4103,-5.4103,-5.4103,-5.4103,-5.4103,-5.4103,-5.4103,-5.4103,-5.4103,-5.4103,-5.4103,-5.4103,-5.4103,-5.4103,-5.4103,-5.4103,-5.3834,-5.336,-5.2839,-5.2618,-5.2602,-5.2412,-5.2333,-5.2317,-5.2096,-5.2017,-5.1938,-5.1448,-5.129,-5.1195,-5.0706,-5.0405,-5.0232,-5.0232,-5.0089,-4.9876,-4.9876,-4.9876,-4.9836,-4.9597,-4.93,-4.8867,-4.7922,-4.751,-4.7309,-4.7309,-4.7309,-4.7309,-4.7309,-4.6935,-4.6621,-4.6621,-4.6217,-4.5828,-4.5633,-4.5214,-4.4661,-4.3962,-4.3708,-4.3514,-4.3319,-4.329,-4.329,-4.329,-4.329,-4.329,-4.329,-4.329,-4.329,-4.329,-4.329,-4.329,-4.329,-4.329,-4.329,-4.329,-4.329,-4.329,-4.329,-4.329,-4.329,-4.9876,-4.9876,0.0,-5.0453,-5.1085,-5.1875,-5.287,0.0,0.0,0.0,-5.4103,-5.4103,-5.4103,-5.4103,0.0,-5.4103,-5.4103,-5.4103,-5.4103,0.0,0.0,0.0,0.0,0.0,0.0,0.0,0.0,0.0,0.0,0.0,-5.4103,-5.4103,-5.4103,-5.4103,-5.4103,-5.4103,-5.4103,-5.4103,-5.3976,-5.3708,-5.3708,-5.355,-5.3281,-5.3566,-5.3708,-5.3692,-5.3392,-5.3044,-5.2633,-5.2191,-5.2017,-5.1986,-5.1717,-5.1591,-5.1559,-5.1274,-5.118,-5.1116,-5.069,-5.0548,-5.0484,-5.0058,-4.9876,-4.9876,-4.9876,-4.9876,-4.9876,-4.9876,-4.9876,-4.9876,-4.9717,-4.9477,-4.9031,-4.8049,-4.7666,-4.751,-4.7352,-4.71,-4.692,-4.692,-4.6381,-4.5918,-4.5918,-4.5574,-4.5214,-4.4945,-4.4347,-4.3738,-4.3349,-4.329,-4.329,-4.329,-4.329,-4.329,-4.329,-4.329,-4.329,-4.329,-4.329,-4.329,-4.329,-4.329,-4.329,-4.329,-4.329,-4.329,-4.329,-4.329,-4.329,-4.329,-4.329,-4.329,-4.9876,0.0,0.0,-4.9876,-5.05,0.0,-5.2791,-5.3629,-5.4103,-5.4103,0.0,-5.4103,-5.4103,-5.4103,-5.4103,-5.4103,-5.4103,-5.4103,-5.4103,0.0,0.0,0.0,0.0,0.0,0.0,0.0,0.0,0.0,0.0,0.0,-5.4103,-5.4103,-5.4071,-5.4008,-5.4008,-5.3976,-5.3913,-5.3913,-5.3597,-5.3013,-5.3013,-5.2665,-5.2033,-5.2697,-5.3013,-5.2965,-5.2238,-5.1922,-5.1907,-5.1843,-5.1812,-5.1749,-5.1132,-5.0879,-5.0841,-5.0168,-4.9876,-4.9876,-4.9876,-4.9876,-4.9876,-4.9876,-4.9876,-4.9876,-4.9876,-4.9876,-4.9876,-4.9852,-4.9837,-4.9686,-4.9264,-4.9168,-4.9048,-4.8558,-4.8149,-4.7773,-4.7216,-4.6651,-4.619,-4.619,-4.5678,-4.5214,-4.5214,-4.5155,-4.4915,-4.4317,-4.3678,-4.329,-4.329,-4.329,-4.329,-4.329,-4.329,-4.329,-4.329,-4.329,-4.329,-4.329,-4.329,-4.329,-4.329,-4.329,-4.329,-4.329,-4.329,-4.329,-4.329,-4.329,-4.329,-4.329,-4.329,-4.329,-4.9876,-4.9876,0.0,0.0,-5.0864,-5.2017,-5.2902,-5.3629,-5.4103,-5.4103,-5.4103,-5.4103,-5.4103,-5.4103,-5.4103,-5.4103,-5.4103,-5.4103,-5.4103,-5.4103,0.0,0.0,0.0,0.0,0.0,0.0,0.0,0.0,0.0,-5.4103,-5.4103,-5.4103,-5.3866,-5.3329,-5.3329,-5.3044,-5.246,-5.246,-5.2381,-5.2254,-5.2254,-5.2159,-5.2017,-5.2175,-5.2254,-5.2207,-5.1496,-5.1236,-5.1148,-5.0595,-5.0374,-5.0358,-5.02,-5.0153,-5.0137,-4.9939,-4.9876,-4.9876,-4.9876,-4.9876,-4.9876,-4.9876,-4.9876,-4.9876,-4.9876,-4.9876,-4.9805,-4.9268,-4.911,-4.8983,-4.8346,-4.822,-4.8011,-4.7234,-4.7125,-4.6955,-4.5969,-4.5618,-4.5514,-4.5514,-4.4975,-4.4526,-4.4526,-4.4092,-4.3663,-4.3529,-4.3379,-4.329,-4.329,-4.329,-4.329,-4.329,-4.329,-4.329,-4.329,-4.329,-4.329,-4.329,-4.329,-4.329,-4.329,-4.329,-4.329,-4.329,-4.329,-4.329,-4.329,-4.329,-4.329,-4.329,-4.329,-4.329,0.0,0.0,0.0,0.0,0.0,-5.1701,-5.2412,-5.3123,-5.3708,-5.4024,-5.4103,-5.4103,-5.4103,-5.4103,-5.4103,-5.4103,-5.4103,-5.4103,-5.4103,0.0,0.0,0.0,0.0,0.0,0.0,0.0,0.0,0.0,0.0,-5.3007,-5.2838,-5.3007,-5.2934,-5.2586,-5.2586,-5.2396,-5.2017,-5.2017,-5.1843,-5.1512,-5.1512,-5.1338,-5.1022,-5.1353,-5.1322,-5.099,-5.0627,-5.0469,-5.0437,-5.0074,-4.9876,-4.9876,-4.9876,-4.9876,-4.9876,-4.9876,-4.9876,-4.9876,-4.9876,-4.9876,-4.9876,-4.9876,-4.9694,-4.9426,-4.9426,-4.9205,-4.8873,-4.8509,-4.8415,-4.8335,-4.7988,-4.7893,-4.7608,-4.6384,-4.6475,-4.6549,-4.553,-4.505,-4.4825,-4.4825,-4.4287,-4.3798,-4.3798,-4.3529,-4.329,-4.329,-4.329,-4.329,-4.329,-4.329,-4.329,-4.329,-4.329,-4.329,-4.329,-4.329,-4.329,-4.329,-4.329,-4.329,-4.329,-4.329,-4.329,-4.329,-4.329,-4.329,-4.329,-4.329,-4.329,-4.329,-4.329,-4.329,0.0,0.0,0.0,0.0,0.0,0.0,-5.1701,-5.2491,-5.3265,-5.3818,-5.4024,-5.4103,-5.4103,0.0,0.0,0.0,0.0,0.0,0.0,0.0,0.0,0.0,0.0,0.0,0.0,0.0,0.0,0.0,-5.1753,-5.1836,-5.1418,-5.1795,-5.1954,-5.1828,-5.1828,-5.178,-5.1654,-5.1654,-5.1369,-5.08,-5.08,-5.0484,-4.9947,-5.0532,-5.0484,-4.9876,-4.9876,-4.9876,-4.9876,-4.9876,-4.9876,-4.9876,-4.9876,-4.9876,-4.9876,-4.9789,-4.9742,-4.9726,-4.9615,-4.9568,-4.9568,-4.9568,-4.9189,-4.8715,-4.8715,-4.8335,-4.7877,-4.7751,-4.7703,-4.7672,-4.7561,-4.7545,-4.7199,-4.575,-4.5834,-4.6012,-4.515,-4.4526,-4.4152,-4.4152,-4.3663,-4.329,-4.329,-4.329,-4.329,-4.329,-4.329,-4.329,-4.329,-4.329,-4.329,-4.329,-4.329,-4.329,-4.329,-4.329,-4.329,-4.329,-4.329,-4.329,-4.329,-4.329,-4.329,-4.329,-4.329,-4.329,-4.329,-4.329,-4.329,-4.329,-4.329,-4.329,0.0,0.0,0.0,0.0,0.0,0.0,0.0,0.0,0.0,0.0,0.0,0.0,0.0,0.0,0.0,0.0,0.0,0.0,0.0,0.0,0.0,0.0,0.0,0.0,0.0,0.0,0.0,0.0,-5.1753,-5.1836,-5.1418,-5.1795,-5.1733,-5.1173,-5.1116,-5.0816,-5.02,-5.016,-5.0153,-5.0058,-5.0058,-5.001,-4.9876,-5.001,-5.001,-4.9876,-4.9876,-4.9876,-4.9876,-4.9876,-4.9876,-4.9876,-4.9876,-4.9876,-4.9852,-4.9252,-4.9031,-4.8936,-4.8367,-4.8177,-4.8177,-4.8177,-4.8114,-4.8019,-4.8019,-4.7972,-4.7767,-4.7135,-4.6945,-4.6803,-4.6234,-4.6092,-4.584,-4.4969,-4.4825,-4.4618,-4.3758,-4.3484,-4.3424,-4.3424,-4.3349,-4.329,-4.329,-4.329,-4.329,-4.329,-4.329,-4.329,-4.329,-4.329,-4.329,-4.329,-4.329,-4.329,-4.329,-4.329,-4.329,-4.329,-4.329,-4.329,-4.329,-4.329,-4.329,-4.329,-4.329,-4.329,-4.329,-4.329,-4.329,-4.329,-4.329,-4.329,-4.9876,0.0,0.0,0.0,0.0,0.0,0.0,0.0,0.0,0.0,0.0,0.0,0.0,0.0,0.0,0.0,0.0,0.0,0.0,0.0,0.0,0.0,0.0,0.0,0.0,0.0,0.0,0.0,-5.0589,-5.063,-5.0221,-5.0589,-5.0706,-5.039,-5.039,-5.0112,-4.9557,-4.9557,-4.9557,-4.9557,-4.9403,-4.9347,-4.9331,-4.8952,-4.9205,-4.99,-4.9505,-4.9347,-4.9315,-4.8936,-4.8794,-4.8794,-4.8794,-4.8794,-4.8746,-4.8446,-4.8335,-4.8288,-4.8004,-4.7893,-4.7893,-4.7893,-4.7624,-4.7277,-4.7277,-4.7024,-4.6661,-4.6329,-4.625,-4.6171,-4.5886,-4.5807,-4.5625,-4.4814,-4.461,-4.4343,-4.3488,-4.329,-4.329,-4.329,-4.329,-4.329,-4.329,-4.329,-4.329,-4.329,-4.329,-4.329,-4.329,-4.329,-4.329,-4.329,-4.329,-4.329,-4.329,-4.329,-4.329,-4.329,-4.329,-4.329,-4.329,-4.329,-4.329,-4.329,-4.329,-4.329,-4.329,-4.329,-4.329,-4.329,-4.329,-4.329,0.0,0.0,0.0,0.0,0.0,0.0,0.0,0.0,0.0,0.0,0.0,0.0,0.0,0.0,0.0,0.0,0.0,0.0,0.0,0.0,0.0,0.0,0.0,0.0,0.0,0.0,0.0,0.0,-4.9677,-4.9717,-4.9316,-4.9677,-4.9836,-4.9757,-4.9757,-4.9557,-4.9113,-4.9113,-4.9194,-4.9316,-4.9261,-4.9219,-4.9126,-4.8812,-4.9011,-4.9615,-4.8936,-4.8636,-4.8604,-4.8098,-4.7893,-4.7893,-4.7893,-4.7893,-4.7877,-4.7688,-4.7624,-4.7593,-4.7435,-4.7372,-4.7372,-4.7372,-4.6992,-4.655,-4.655,-4.6202,-4.5807,-4.5807,-4.5807,-4.5807,-4.5807,-4.5807,-4.5609,-4.4927,-4.4685,-4.4343,-4.3488,-4.329,-4.329,-4.329,-4.329,-4.329,-4.329,-4.329,-4.329,-4.329,-4.329,-4.329,-4.329,-4.329,-4.329,-4.329,-4.329,-4.329,-4.329,-4.329,-4.329,-4.329,-4.329,-4.329,-4.329,-4.329,-4.329,-4.329,-4.329,-4.329,-4.329,-4.329,-4.329,-4.329,-4.329,-4.329,0.0,0.0,0.0,0.0,0.0,0.0,0.0,0.0,0.0,0.0,0.0,0.0,0.0,0.0,0.0,0.0,0.0,0.0,0.0,0.0,0.0,0.0,0.0,0.0,0.0,0.0,0.0,0.0,-4.9677,-4.9717,-4.9316,-4.9677,-4.9717,-4.9356,-4.9316,-4.9113,-4.8661,-4.8661,-4.8867,-4.9316,-4.9852,-5.0033,-4.9868,-5.0413,-5.0039,-4.8904,-4.8241,-4.7956,-4.794,-4.7909,-4.7893,-4.7893,-4.7893,-4.7893,-4.7814,-4.7119,-4.685,-4.6771,-4.6139,-4.5918,-4.5918,-4.5918,-4.5886,-4.5871,-4.5871,-4.5839,-4.5807,-4.5807,-4.5807,-4.5807,-4.5807,-4.5807,-4.5698,-4.5284,-4.4874,-4.4343,-4.3488,-4.329,-4.329,-4.329,-4.329,-4.329,-4.329,-4.329,-4.329,-4.329,-4.329,-4.329,-4.329,-4.329,-4.329,-4.329,-4.329,-4.329,-4.329,-4.329,-4.329,-4.329,-4.329,-4.329,-4.329,-4.329,-4.329,-4.329,-4.329,-4.329,-4.329,-4.329,-4.329,-4.329,-4.329,-4.329,0.0,0.0,0.0,0.0,0.0,0.0,0.0,0.0,0.0,0.0,0.0,0.0,0.0,0.0,0.0,0.0,0.0,0.0,0.0,0.0,0.0,0.0,0.0,0.0,0.0,0.0,0.0,0.0,-4.9797,-4.9836,-4.9677,-4.9836,-4.9836,-4.9677,-4.9437,-4.8949,-4.8202,-4.8453,-4.8687,-4.8852,-4.9598,-4.97,-4.9275,-4.9395,-4.9021,-4.8241,-4.8004,-4.7624,-4.715,-4.674,-4.6566,-4.6566,-4.6566,-4.6566,-4.6518,-4.6266,-4.6171,-4.6123,-4.5886,-4.5807,-4.5807,-4.5807,-4.5807,-4.5807,-4.5807,-4.5807,-4.5807,-4.5807,-4.5807,-4.5807,-4.5807,-4.5807,-4.5625,-4.4949,-4.4511,-4.405,-4.3448,-4.329,-4.329,-4.329,-4.329,-4.329,-4.329,-4.329,-4.329,-4.329,-4.329,-4.329,-4.329,-4.329,-4.329,-4.329,-4.329,-4.329,-4.329,-4.329,-4.329,-4.329,-4.329,-4.329,-4.329,-4.329,-4.329,-4.329,-4.329,-4.329,-4.329,-4.329,-4.329,-4.329,-4.329,-4.329,-4.9876,0.0,0.0,0.0,0.0,0.0,0.0,0.0,0.0,0.0,0.0,0.0,0.0,0.0,0.0,0.0,0.0,0.0,0.0,0.0,0.0,0.0,0.0,0.0,0.0,0.0,0.0,-4.9876,-4.9876,0.0,-4.9717,-4.9677,-4.9557,-4.9275,-4.8867,-4.8328,-4.7752,-4.8049,-4.8396,-4.8903,-4.9667,-4.9957,-4.9843,-4.9757,-4.9286,-4.8529,-4.8301,-4.783,-4.7135,-4.6692,-4.636,-4.6139,-4.6139,-4.6013,-4.5807,-4.5807,-4.5807,-4.5807,-4.5807,-4.5807,-4.5807,-4.5807,-4.5807,-4.5807,-4.5807,-4.5807,-4.5807,-4.5807,-4.5807,-4.5807,-4.5807,-4.5807,-4.5625,-4.4814,-4.4396,-4.405,-4.3409,-4.329,-4.329,-4.329,-4.329,-4.329,-4.329,-4.329,-4.329,-4.329,-4.329,-4.329,-4.329,-4.329,-4.329,-4.329,-4.329,-4.329,-4.329,-4.329,-4.329,-4.329,-4.329,-4.329,-4.329,-4.329,-4.329,-4.329,-4.329,-4.329,-4.329,-4.329,-4.329,-4.329,-4.329,-4.329,0.0,0.0,0.0,0.0,0.0,0.0,0.0,0.0,0.0,0.0,0.0,0.0,0.0,0.0,0.0,0.0,0.0,0.0,0.0,0.0,0.0,0.0,0.0,0.0,0.0,0.0,0.0,-4.9876,-4.9876,-4.9717,-4.9316,-4.9275,-4.8908,-4.8049,-4.7553,-4.7294,-4.7309,-4.7352,-4.8046,-4.9487,-5.0142,-5.0849,-5.1676,-5.1676,-5.1006,-4.978,-4.9174,-4.8557,-4.7956,-4.7925,-4.7482,-4.6834,-4.6803,-4.6408,-4.5839,-4.5823,-4.5807,-4.5807,-4.5807,-4.5807,-4.5807,-4.5807,-4.5807,-4.5807,-4.5807,-4.5807,-4.5807,-4.5807,-4.5807,-4.5807,-4.5807,-4.5771,-4.5573,-4.4814,-4.4572,-4.4343,-4.3488,-4.329,-4.329,-4.329,-4.329,-4.329,-4.329,-4.329,-4.329,-4.329,-4.329,-4.329,-4.329,-4.329,-4.329,-4.329,-4.329,-4.329,-4.329,-4.329,-4.329,-4.329,-4.329,-4.329,-4.329,-4.329,-4.329,-4.329,-4.329,-4.329,-4.329,-4.329,-4.329,-4.329,-4.329,-4.329,-4.9876,0.0,0.0,0.0,0.0,0.0,0.0,0.0,0.0,0.0,0.0,0.0,0.0,0.0,0.0,0.0,0.0,0.0,0.0,0.0,0.0,0.0,0.0,0.0,0.0,0.0,0.0,0.0,-4.9637,-4.9437,-4.9316,-4.899,-4.8537,-4.8007,-4.788,-4.7639,-4.7309,-4.7922,-4.8438,-4.8862,-5.0538,-5.1236,-5.1065,-5.1492,-5.1266,-5.0472,-4.9889,-4.9536,-4.9284,-4.8304,-4.7782,-4.7545,-4.7008,-4.6692,-4.6471,-4.5997,-4.5807,-4.5807,-4.5807,-4.5807,-4.5807,-4.5807,-4.5807,-4.5807,-4.5807,-4.5807,-4.5807,-4.5807,-4.5807,-4.5807,-4.5807,-4.5573,-4.5262,-4.4723,-4.4396,-4.4011,-4.3409,-4.329,-4.329,-4.329,-4.329,-4.329,-4.329,-4.329,-4.329,-4.329,-4.329,-4.329,-4.329,-4.329,-4.329,-4.329,-4.329,-4.329,-4.329,-4.329,-4.329,-4.329,-4.329,-4.329,-4.329,-4.329,-4.329,-4.329,-4.329,-4.329,-4.329,-4.329,-4.329,-4.329,-4.329,-4.329,-4.9876,-4.9876,-4.9876,-4.9876,0.0,0.0,-4.9677,-4.9637,-4.9597,0.0,0.0,0.0,0.0,0.0,0.0,0.0,0.0,0.0,0.0,0.0,0.0,0.0,0.0,0.0,0.0,-4.9072,-4.9356,-4.9356,-4.9153,-4.8949,-4.8785,-4.8328,-4.7964,-4.7724,-4.7724,-4.7596,-4.7309,-4.7794,-4.8355,-4.8969,-5.0445,-5.1294,-5.1533,-5.1659,-5.1529,-5.114,-5.0292,-4.9876,-4.9797,-4.8762,-4.8146,-4.7861,-4.7435,-4.6898,-4.6345,-4.595,-4.5807,-4.5807,-4.5807,-4.5807,-4.5807,-4.5807,-4.5807,-4.5807,-4.5807,-4.5807,-4.5807,-4.5807,-4.5807,-4.5807,-4.5807,-4.5484,-4.5098,-4.4685,-4.4281,-4.3871,-4.3409,-4.329,-4.329,-4.329,-4.329,-4.329,-4.329,-4.329,-4.329,-4.329,-4.329,-4.329,-4.329,-4.329,-4.329,-4.329,-4.329,-4.329,-4.329,-4.329,-4.329,-4.329,-4.329,-4.329,-4.329,-4.329,-4.329,-4.329,-4.329,-4.329,-4.329,-4.329,-4.329,-4.329,-4.329,-4.329,-4.9836,-4.9797,-4.9757,-4.9757,-4.9757,0.0,-4.9316,-4.9235,-4.9113,-4.8702,0.0,0.0,0.0,0.0,0.0,0.0,0.0,0.0,0.0,0.0,0.0,0.0,0.0,0.0,-4.8495,-4.8563,-4.862,-4.862,-4.8578,-4.837,-4.7922,-4.751,-4.7309,-4.7309,-4.7309,-4.7309,-4.7309,-4.7381,-4.8088,-4.9423,-5.0181,-5.1225,-5.2468,-5.1931,-5.1712,-5.1639,-5.0393,-4.9844,-4.9758,-4.9141,-4.8541,-4.8004,-4.783,-4.7008,-4.5918,-4.5839,-4.5807,-4.5807,-4.5807,-4.5807,-4.5807,-4.5807,-4.5807,-4.5807,-4.5807,-4.5807,-4.5807,-4.5807,-4.5807,-4.5771,-4.5735,-4.5447,-4.5024,-4.461,-4.4205,-4.3817,-4.3369,-4.329,-4.329,-4.329,-4.329,-4.329,-4.329,-4.329,-4.329,-4.329,-4.329,-4.329,-4.329,-4.329,-4.329,-4.329,-4.329,-4.329,-4.329,-4.329,-4.329,-4.329,-4.329,-4.329,-4.329,-4.329,-4.329,-4.329,-4.329,-4.329,-4.329,-4.329,-4.329,-4.329,-4.329,-4.329,-4.9437,-4.9153,-4.8852,-4.8852,-4.8852,0.0,-4.8728,-4.8744,-4.8702,0.0,0.0,0.0,0.0,0.0,0.0,0.0,0.0,0.0,0.0,0.0,0.0,0.0,0.0,0.0,-4.8049,-4.8412,-4.862,-4.862,-4.8286,-4.7922,-4.7467,-4.7352,-4.7309,-4.7309,-4.7309,-4.7309,-4.7309,-4.8007,-4.848,-4.8795,-5.0576,-5.1586,-5.1858,-5.1749,-5.1712,-5.1639,-5.0393,-4.96,-4.9078,-4.8936,-4.881,-4.8573,-4.7451,-4.685,-4.655,-4.6013,-4.5807,-4.5807,-4.5807,-4.5807,-4.5807,-4.5807,-4.5807,-4.5807,-4.5807,-4.5807,-4.5807,-4.5807,-4.5807,-4.5735,-4.541,-4.5024,-4.4625,-4.4205,-4.3778,-4.3409,-4.3329,-4.329,-4.329,-4.329,-4.329,-4.329,-4.329,-4.329,-4.329,-4.329,-4.329,-4.329,-4.329,-4.329,-4.329,-4.329,-4.329,-4.329,-4.329,-4.329,-4.329,-4.329,-4.329,-4.329,-4.329,-4.329,-4.329,-4.329,-4.329,-4.329,-4.329,-4.329,-4.329,-4.329,-4.329,-4.329,-4.8949,-4.8949,-4.8949,-4.8949,-4.8949,0.0,0.0,-4.8453,-4.8244,-4.8007,0.0,0.0,0.0,0.0,0.0,0.0,0.0,0.0,0.0,0.0,0.0,0.0,0.0,0.0,-4.7922,-4.7964,-4.7964,-4.7964,-4.7752,-4.7553,-4.7294,-4.7309,-4.7309,-4.7309,-4.7309,-4.7309,-4.7309,-4.7964,-4.8563,-4.905,-5.0621,-5.148,-5.1712,-5.1712,-5.1529,-5.1199,-4.9926,-4.9205,-4.8841,-4.813,-4.7846,-4.7767,-4.7071,-4.6597,-4.6266,-4.5934,-4.5807,-4.5807,-4.5807,-4.5807,-4.5807,-4.5807,-4.5807,-4.5807,-4.5807,-4.5807,-4.5807,-4.5807,-4.5807,-4.5698,-4.5284,-4.4911,-4.4511,-4.4104,-4.366,-4.329,-4.329,-4.329,-4.329,-4.329,-4.329,-4.329,-4.329,-4.329,-4.329,-4.329,-4.329,-4.329,-4.329,-4.329,-4.329,-4.329,-4.329,-4.329,-4.329,-4.329,-4.329,-4.329,-4.329,-4.329,-4.329,-4.329,-4.329,-4.329,-4.329,-4.329,-4.329,-4.329,-4.329,-4.329,-4.329,-4.3125,-4.8495,-4.8702,-4.8908,-4.8908,-4.8908,-4.8826,0.0,0.0,0.0,0.0,0.0,0.0,0.0,0.0,0.0,0.0,0.0,0.0,0.0,0.0,0.0,0.0,0.0,0.0,-4.7794,-4.751,-4.7309,-4.7309,-4.7309,-4.7309,-4.7309,-4.7309,-4.7309,-4.7309,-4.7309,-4.7309,-4.7309,-4.7837,-4.8506,-4.9343,-5.0566,-5.1278,-5.1512,-5.1639,-5.1299,-5.052,-4.9381,-4.8731,-4.8399,-4.7261,-4.6724,-4.6613,-4.6613,-4.6281,-4.5807,-4.5807,-4.5807,-4.5807,-4.5807,-4.5807,-4.5807,-4.5807,-4.5807,-4.5807,-4.5807,-4.5807,-4.5807,-4.5807,-4.5807,-4.5698,-4.5284,-4.4911,-4.4511,-4.4104,-4.366,-4.329,-4.329,-4.329,-4.329,-4.329,-4.329,-4.329,-4.329,-4.329,-4.329,-4.329,-4.329,-4.329,-4.329,-4.329,-4.329,-4.329,-4.329,-4.329,-4.329,-4.329,-4.329,-4.329,-4.329,-4.329,-4.329,-4.329,-4.329,-4.329,-4.329,-4.323,-4.315,-4.315,-4.315,-4.315,-4.315,-4.2806,-4.8049,0.0,0.0,0.0,-4.751,-4.751,-4.7467,0.0,-4.7337,-4.7309,0.0,0.0,0.0,0.0,0.0,0.0,0.0,0.0,0.0,0.0,0.0,0.0,0.0,0.0,0.0,-4.7352,-4.7309,-4.7309,-4.7309,-4.7309,-4.7309,-4.7309,-4.7309,-4.7309,-4.7309,-4.7309,-4.7309,-4.8118,-4.8578,-4.8728,-5.0691,-5.1364,-5.0914,-5.1438,-5.1038,-4.9861,-4.919,-4.8177,-4.7024,-4.6866,-4.6455,-4.5918,-4.5918,-4.5886,-4.5807,-4.5807,-4.5807,-4.5807,-4.5807,-4.5807,-4.5807,-4.5807,-4.5807,-4.5807,-4.5807,-4.5807,-4.5807,-4.5807,-4.5807,-4.5698,-4.5284,-4.4911,-4.4511,-4.4104,-4.366,-4.329,-4.329,-4.329,-4.329,-4.329,-4.329,-4.329,-4.329,-4.329,-4.329,-4.329,-4.329,-4.329,-4.329,-4.329,-4.329,-4.329,-4.329,-4.329,-4.329,-4.329,-4.329,-4.329,-4.329,-4.329,-4.329,-4.329,-4.329,-4.329,-4.329,-4.3045,-4.2515,-4.2515,-4.2515,-4.2515,-4.2515,-4.2156,0.0,0.0,0.0,0.0,0.0,0.0,-4.6535,0.0,-4.6142,0.0,0.0,0.0,0.0,0.0,0.0,0.0,-4.613,0.0,0.0,0.0,0.0,0.0,0.0,0.0,0.0,0.0,0.0,-4.6142,-4.6142,-4.6142,-4.6142,-4.6142,-4.6142,-4.6142,-4.6142,-4.6269,-4.6478,-4.7507,-4.8329,-4.8898,-5.0817,-5.1364,-5.0821,-5.1014,-5.0452,-4.9209,-4.8133,-4.734,-4.6771,-4.6392,-4.606,-4.5807,-4.5807,-4.5807,-4.5807,-4.5807,-4.5807,-4.5807,-4.5807,-4.5807,-4.5807,-4.5807,-4.5807,-4.5807,-4.5807,-4.5807,-4.5807,-4.5807,-4.5807,-4.5698,-4.5284,-4.4911,-4.4511,-4.4104,-4.366,-4.329,-4.329,-4.329,-4.329,-4.329,-4.329,-4.329,-4.329,-4.329,-4.329,-4.329,-4.329,-4.329,-4.329,-4.329,-4.329,-4.329,-4.329,-4.329,-4.329,-4.329,-4.329,-4.329,-4.329,-4.329,-4.329,-4.329,-4.3125,-4.2776,-4.2776,-4.2447,-4.1826,-4.1826,-4.1632,-4.1235,-4.1647,-4.1482,-4.5289,0.0,0.0,0.0,0.0,0.0,0.0,0.0,0.0,0.0,0.0,0.0,0.0,0.0,-4.5353,-4.5515,0.0,-4.517,0.0,0.0,0.0,0.0,0.0,0.0,0.0,0.0,0.0,-4.5289,-4.5289,-4.5289,-4.5289,-4.5289,-4.5289,-4.5289,-4.5289,-4.5496,-4.592,-4.6839,-4.7736,-4.8602,-5.0133,-5.0556,-4.9993,-5.0111,-4.9462,-4.8256,-4.7245,-4.6708,-4.6487,-4.6013,-4.5807,-4.5807,-4.5807,-4.5697,-4.5539,-4.5744,-4.5807,-4.5807,-4.5807,-4.5807,-4.5807,-4.5807,-4.5807,-4.5807,-4.5807,-4.5807,-4.5807,-4.5807,-4.5807,-4.5735,-4.5447,-4.5061,-4.4685,-4.4396,-4.3879,-4.3488,-4.3488,-4.3369,-4.329,-4.329,-4.329,-4.329,-4.329,-4.329,-4.329,-4.329,-4.329,-4.329,-4.329,-4.329,-4.329,-4.329,-4.329,-4.329,-4.329,-4.329,-4.329,-4.329,-4.3125,-4.306,-4.306,-4.2895,-4.2581,-4.2141,-4.2126,-4.172,-4.0873,-4.0873,-4.0456,-3.9631,-4.0486,-4.0531,0.0,0.0,0.0,-4.5331,0.0,0.0,0.0,0.0,-4.5289,0.0,0.0,0.0,0.0,-4.5289,-4.508,-4.4451,-4.4885,0.0,0.0,0.0,0.0,0.0,0.0,0.0,0.0,-4.5289,-4.5289,-4.5289,-4.5289,-4.5289,-4.5289,-4.5289,-4.5289,-4.5289,-4.5289,-4.5481,-4.5915,-4.6404,-4.6856,-4.7286,-4.8281,-4.8514,-4.7994,-4.8535,-4.8045,-4.6866,-4.6819,-4.6439,-4.5839,-4.5823,-4.5807,-4.5807,-4.5807,-4.5365,-4.4828,-4.5555,-4.5807,-4.5807,-4.5807,-4.5807,-4.5807,-4.5807,-4.5807,-4.5807,-4.5807,-4.5807,-4.5807,-4.5807,-4.5807,-4.5807,-4.5771,-4.5484,-4.5173,-4.5173,-4.4549,-4.3988,-4.3988,-4.3621,-4.329,-4.329,-4.329,-4.329,-4.329,-4.329,-4.329,-4.329,-4.329,-4.329,-4.329,-4.329,-4.329,-4.329,-4.329,-4.329,-4.329,-4.329,-4.329,-4.329,-4.2746,-4.2425,-4.2425,-4.1826,-4.1429,-4.1414,-4.1414,-4.0806,-3.9548,-3.9548,-3.8932,-3.7725,-3.8975,-3.9197,0.0,0.0,-4.4003,-4.4003,0.0,0.0,0.0,0.0,0.0,0.0,0.0,0.0,0.0,-4.4003,-4.3888,-4.3663,-4.3813,-4.3838,0.0,0.0,0.0,0.0,0.0,0.0,0.0,0.0,0.0,-4.4003,-4.4003,-4.4003,-4.4003,-4.4003,-4.4003,-4.4003,-4.4003,-4.4188,-4.464,-4.55,-4.616,-4.6545,-4.8009,-4.8413,-4.7915,-4.7986,-4.7597,-4.6771,-4.6329,-4.6013,-4.5807,-4.5807,-4.5807,-4.5807,-4.5807,-4.5665,-4.5412,-4.5175,-4.4796,-4.4397,-4.4397,-4.4397,-4.4397,-4.4397,-4.4397,-4.4397,-4.4397,-4.4397,-4.4433,-4.4401,-4.4417,-4.4397,-4.4397,-4.4118,-4.3816,-4.3816,-4.3181,-4.2622,-4.2622,-4.2296,-4.2043,-4.2043,-4.2043,-4.2043,-4.2043,-4.2043,-4.2342,-4.317,-4.329,-4.329,-4.329,-4.2955,-4.2686,-4.2686,-4.2297,-4.2043,-4.2043,-4.2043,-4.2043,-4.2043,-4.1833,-4.1752,-4.1752,-4.1542,-4.1009,-4.0161,-4.0147,-3.9519,-3.8241,-3.8241,-3.8216,-3.8202,-3.781,-3.7743,-4.329,-4.329,0.0,-4.329,-4.329,0.0,-4.329,0.0,-4.329,0.0,0.0,0.0,0.0,-4.329,-4.329,-4.329,-4.329,-4.329,0.0,-4.329,0.0,0.0,0.0,0.0,0.0,-4.329,-4.329,-4.329,-4.329,-4.329,0.0,-4.329,-4.329,-4.329,-4.329,-4.3542,-4.3988,-4.4826,-4.5464,-4.5881,-4.7072,-4.7474,-4.7135,-4.7064,-4.6805,-4.6424,-4.5997,-4.5807,-4.5807,-4.5807,-4.5807,-4.5807,-4.5807,-4.5649,-4.5396,-4.5175,-4.467,-4.405,-4.405,-4.3892,-4.3687,-4.3706,-4.3722,-4.3687,-4.3687,-4.3687,-4.3734,-4.399,-4.3895,-4.3734,-4.3971,-4.3705,-4.329,-4.3134,-4.2582,-4.2071,-4.1975,-4.1656,-4.1422,-4.1422,-4.1422,-4.1422,-4.1422,-4.1422,-4.1669,-4.2506,-4.2641,-4.2641,-4.2641,-4.2267,-4.2051,-4.2051,-4.1677,-4.1422,-4.1422,-4.1422,-4.1422,-4.1422,-4.0956,-4.0723,-4.0723,-4.0282,-3.9771,-3.9175,-3.8928,-3.8405,-3.7572,-3.7591,-3.7582,-3.7505,-3.694,-3.6769]},{"header":{"parameterUnit":"m.s-1","parameterCategory":1,"la1":30.6,"la2":29.2853,"lo1":-89.7004,"lo2":-87.6739,"dy":0.0162,"dx":0.0183,"nx":112,"ny":82,"refTime":"2023-06-06T12:00:00:Z","depth":0,"parameterNumber":3,"parameterNumberName":"V-component_of_WINDS"},"data":[0.0,0.0,0.0,0.0,0.0,0.0,0.0,0.0,0.0,0.0,0.0,0.0,0.0,0.0,0.0,0.0,0.0,0.0,0.0,0.0,0.0,0.0,0.0,0.0,0.0,0.0,0.0,0.0,0.0,0.0,0.0,0.0,0.0,0.0,0.0,0.0,0.0,0.0,0.0,0.0,0.0,0.0,0.0,0.0,0.0,0.0,0.0,0.0,0.0,0.0,0.0,0.0,0.0,0.0,0.0,0.0,0.0,0.0,0.0,0.0,0.0,0.0,0.0,0.0,0.0,0.0,0.0,0.0,0.0,0.0,0.0,0.0,0.0,0.0,0.0,0.0,0.0,0.0,0.0,0.0,0.0,0.0,0.0,0.0,0.0,0.0,0.0,0.0,0.0,0.0,-3.0889,-3.0889,-3.0889,-3.0889,-3.0889,-3.1279,-3.1514,-3.1514,0.0,0.0,0.0,0.0,0.0,0.0,0.0,0.0,0.0,0.0,0.0,0.0,0.0,0.0,0.0,0.0,0.0,0.0,0.0,0.0,0.0,0.0,0.0,0.0,0.0,0.0,0.0,0.0,0.0,0.0,0.0,0.0,0.0,0.0,0.0,0.0,0.0,0.0,0.0,0.0,0.0,0.0,0.0,0.0,0.0,0.0,0.0,0.0,0.0,0.0,0.0,0.0,0.0,0.0,0.0,0.0,0.0,0.0,0.0,0.0,0.0,0.0,0.0,0.0,0.0,0.0,0.0,0.0,0.0,0.0,0.0,0.0,0.0,0.0,0.0,0.0,0.0,0.0,0.0,0.0,0.0,0.0,0.0,0.0,0.0,0.0,0.0,0.0,0.0,0.0,0.0,0.0,0.0,0.0,0.0,0.0,0.0,0.0,0.0,0.0,0.0,0.0,0.0,0.0,-3.0889,-3.0889,-3.0889,-3.0889,-3.0889,-3.1279,-3.1514,-3.1514,0.0,0.0,0.0,0.0,0.0,0.0,0.0,0.0,0.0,0.0,0.0,0.0,0.0,0.0,0.0,0.0,0.0,0.0,0.0,0.0,0.0,0.0,0.0,0.0,0.0,0.0,0.0,0.0,0.0,0.0,0.0,0.0,0.0,0.0,0.0,0.0,0.0,0.0,0.0,0.0,0.0,0.0,0.0,0.0,0.0,0.0,0.0,0.0,0.0,0.0,0.0,0.0,0.0,0.0,0.0,0.0,0.0,0.0,0.0,0.0,0.0,0.0,0.0,0.0,0.0,0.0,0.0,0.0,0.0,0.0,0.0,0.0,0.0,0.0,0.0,0.0,0.0,0.0,0.0,0.0,0.0,0.0,0.0,0.0,0.0,0.0,0.0,0.0,0.0,0.0,0.0,0.0,0.0,0.0,0.0,0.0,0.0,0.0,0.0,0.0,0.0,0.0,0.0,-3.0889,-3.0889,-3.0889,-3.0889,-3.0889,-3.0889,-3.1513,-3.1856,-3.1856,-3.291,0.0,0.0,0.0,0.0,0.0,0.0,0.0,0.0,0.0,0.0,0.0,0.0,0.0,0.0,0.0,0.0,0.0,0.0,0.0,0.0,0.0,0.0,0.0,0.0,0.0,0.0,0.0,0.0,0.0,0.0,0.0,0.0,0.0,0.0,0.0,0.0,0.0,0.0,0.0,0.0,0.0,0.0,0.0,0.0,0.0,0.0,0.0,0.0,0.0,0.0,0.0,0.0,0.0,0.0,0.0,0.0,0.0,0.0,0.0,0.0,0.0,0.0,0.0,0.0,0.0,0.0,0.0,0.0,0.0,0.0,0.0,0.0,0.0,0.0,0.0,0.0,0.0,0.0,0.0,0.0,0.0,0.0,0.0,0.0,0.0,0.0,0.0,0.0,0.0,0.0,0.0,0.0,0.0,0.0,0.0,0.0,0.0,0.0,0.0,0.0,0.0,0.0,-3.1064,-3.1228,-3.1228,-3.1392,-3.1508,-3.1508,-3.218,-3.2504,-3.2504,-3.3502,0.0,0.0,0.0,0.0,0.0,0.0,0.0,0.0,0.0,0.0,0.0,0.0,0.0,0.0,0.0,0.0,0.0,0.0,0.0,0.0,0.0,0.0,0.0,0.0,0.0,0.0,0.0,0.0,0.0,0.0,0.0,0.0,0.0,0.0,0.0,0.0,0.0,0.0,0.0,0.0,0.0,0.0,0.0,0.0,0.0,0.0,0.0,0.0,0.0,0.0,0.0,0.0,0.0,0.0,0.0,0.0,0.0,0.0,0.0,0.0,0.0,0.0,0.0,0.0,0.0,0.0,0.0,0.0,0.0,0.0,0.0,0.0,0.0,0.0,0.0,0.0,0.0,0.0,0.0,0.0,0.0,0.0,0.0,0.0,0.0,0.0,0.0,0.0,0.0,0.0,0.0,0.0,0.0,0.0,0.0,0.0,0.0,0.0,0.0,0.0,0.0,0.0,-3.1614,-3.2113,-3.2113,-3.2903,-3.3413,-3.3413,-3.347,-3.3526,-3.3526,-3.3614,0.0,0.0,0.0,0.0,0.0,0.0,0.0,0.0,0.0,0.0,0.0,0.0,0.0,0.0,0.0,0.0,0.0,0.0,0.0,0.0,0.0,0.0,0.0,0.0,0.0,0.0,0.0,0.0,0.0,0.0,0.0,0.0,0.0,0.0,0.0,0.0,0.0,0.0,0.0,0.0,0.0,0.0,0.0,0.0,0.0,0.0,0.0,0.0,0.0,0.0,0.0,0.0,0.0,0.0,0.0,0.0,0.0,0.0,0.0,0.0,0.0,0.0,0.0,0.0,0.0,0.0,0.0,0.0,0.0,0.0,0.0,0.0,0.0,0.0,0.0,0.0,0.0,0.0,0.0,0.0,0.0,0.0,0.0,0.0,0.0,0.0,0.0,0.0,0.0,0.0,0.0,0.0,0.0,0.0,0.0,0.0,0.0,0.0,0.0,0.0,0.0,0.0,-3.1998,-3.2389,-3.3016,-3.3413,-3.3582,-3.3582,-3.4078,-3.4413,-3.4413,0.0,0.0,0.0,0.0,0.0,0.0,0.0,0.0,0.0,0.0,0.0,0.0,0.0,0.0,0.0,0.0,0.0,0.0,0.0,0.0,0.0,0.0,0.0,0.0,0.0,0.0,0.0,0.0,0.0,0.0,0.0,0.0,0.0,0.0,0.0,0.0,0.0,0.0,0.0,0.0,0.0,0.0,0.0,0.0,0.0,0.0,0.0,0.0,0.0,0.0,0.0,0.0,0.0,0.0,0.0,0.0,0.0,0.0,0.0,0.0,0.0,0.0,0.0,0.0,0.0,0.0,0.0,0.0,0.0,0.0,0.0,0.0,0.0,0.0,0.0,0.0,0.0,0.0,0.0,0.0,0.0,0.0,0.0,0.0,0.0,0.0,0.0,0.0,0.0,0.0,0.0,0.0,0.0,0.0,0.0,0.0,0.0,0.0,0.0,0.0,0.0,0.0,-3.2113,-3.2675,-3.3289,-3.3966,-3.4302,-3.448,-3.448,-3.4969,-3.5356,-3.5356,0.0,0.0,0.0,0.0,0.0,0.0,0.0,0.0,0.0,0.0,0.0,0.0,0.0,0.0,0.0,0.0,0.0,0.0,0.0,0.0,0.0,0.0,0.0,0.0,0.0,0.0,0.0,0.0,0.0,0.0,0.0,0.0,0.0,0.0,0.0,0.0,0.0,0.0,0.0,0.0,0.0,0.0,0.0,0.0,0.0,0.0,0.0,0.0,0.0,0.0,0.0,0.0,0.0,0.0,0.0,0.0,0.0,0.0,0.0,0.0,0.0,0.0,0.0,0.0,0.0,0.0,0.0,0.0,0.0,0.0,0.0,0.0,0.0,0.0,0.0,0.0,0.0,0.0,0.0,0.0,0.0,0.0,0.0,0.0,0.0,0.0,0.0,0.0,0.0,0.0,0.0,0.0,0.0,0.0,0.0,0.0,0.0,0.0,0.0,0.0,0.0,0.0,-3.2227,-3.3786,-3.4914,-3.4902,-3.5763,-3.632,-3.632,-3.632,-3.632,0.0,0.0,0.0,0.0,0.0,0.0,0.0,0.0,0.0,0.0,0.0,0.0,0.0,0.0,0.0,0.0,0.0,0.0,0.0,0.0,0.0,0.0,0.0,0.0,0.0,0.0,0.0,0.0,0.0,0.0,0.0,0.0,0.0,0.0,0.0,0.0,0.0,0.0,0.0,0.0,0.0,0.0,0.0,0.0,0.0,0.0,0.0,0.0,0.0,0.0,0.0,0.0,0.0,0.0,0.0,0.0,0.0,0.0,0.0,0.0,0.0,0.0,0.0,0.0,0.0,0.0,0.0,0.0,0.0,0.0,0.0,0.0,0.0,0.0,0.0,0.0,0.0,0.0,0.0,0.0,0.0,0.0,0.0,0.0,0.0,0.0,0.0,0.0,0.0,0.0,0.0,0.0,0.0,0.0,0.0,0.0,0.0,0.0,0.0,0.0,0.0,0.0,0.0,-3.3073,-3.419,-3.5135,-3.5817,-3.6157,-3.632,-3.632,-3.632,-3.632,-3.632,0.0,0.0,0.0,0.0,0.0,0.0,0.0,0.0,0.0,0.0,0.0,0.0,0.0,0.0,0.0,0.0,0.0,0.0,0.0,0.0,0.0,0.0,0.0,0.0,0.0,0.0,0.0,0.0,0.0,0.0,0.0,0.0,0.0,0.0,0.0,0.0,0.0,0.0,0.0,0.0,0.0,0.0,0.0,0.0,0.0,0.0,0.0,0.0,0.0,0.0,0.0,0.0,0.0,0.0,0.0,0.0,0.0,0.0,0.0,0.0,0.0,0.0,0.0,0.0,0.0,0.0,0.0,0.0,0.0,0.0,0.0,0.0,0.0,0.0,0.0,0.0,0.0,0.0,0.0,0.0,0.0,0.0,0.0,0.0,0.0,0.0,0.0,0.0,0.0,0.0,0.0,0.0,0.0,0.0,0.0,0.0,0.0,0.0,0.0,0.0,0.0,0.0,-3.3526,-3.4692,-3.5642,-3.6211,-3.632,-3.632,-3.632,-3.6483,-3.6592,-3.6592,0.0,0.0,0.0,0.0,0.0,0.0,0.0,0.0,0.0,0.0,0.0,0.0,0.0,0.0,0.0,0.0,0.0,0.0,0.0,0.0,0.0,0.0,0.0,0.0,0.0,0.0,0.0,0.0,0.0,0.0,0.0,0.0,0.0,0.0,0.0,0.0,0.0,0.0,0.0,0.0,0.0,0.0,0.0,0.0,0.0,0.0,0.0,0.0,0.0,0.0,0.0,0.0,0.0,0.0,0.0,0.0,0.0,0.0,0.0,0.0,0.0,0.0,0.0,0.0,0.0,0.0,0.0,0.0,0.0,0.0,0.0,0.0,0.0,0.0,0.0,0.0,0.0,0.0,0.0,0.0,0.0,0.0,0.0,0.0,0.0,0.0,0.0,0.0,0.0,0.0,0.0,0.0,0.0,0.0,0.0,0.0,0.0,0.0,0.0,0.0,0.0,0.0,-3.3582,-3.5201,-3.632,-3.632,-3.632,-3.6375,-3.6375,-3.6862,-3.7185,-3.7185,0.0,0.0,0.0,0.0,0.0,0.0,0.0,0.0,0.0,0.0,0.0,0.0,0.0,0.0,0.0,0.0,0.0,0.0,0.0,0.0,0.0,0.0,0.0,0.0,0.0,0.0,0.0,0.0,0.0,0.0,0.0,0.0,0.0,0.0,0.0,0.0,0.0,0.0,0.0,0.0,0.0,0.0,0.0,0.0,0.0,0.0,0.0,0.0,0.0,0.0,0.0,0.0,0.0,0.0,0.0,0.0,0.0,0.0,0.0,0.0,-3.2725,0.0,0.0,0.0,0.0,0.0,0.0,0.0,0.0,0.0,0.0,0.0,0.0,0.0,0.0,0.0,0.0,0.0,0.0,0.0,0.0,0.0,0.0,0.0,0.0,0.0,0.0,0.0,0.0,0.0,0.0,0.0,0.0,0.0,0.0,0.0,0.0,0.0,0.0,0.0,0.0,0.0,-3.3582,-3.5201,-3.632,-3.632,-3.67,-3.6916,-3.6916,-3.7453,-3.7826,-3.7826,-3.8303,0.0,0.0,0.0,0.0,0.0,0.0,0.0,0.0,0.0,0.0,0.0,0.0,0.0,0.0,0.0,0.0,0.0,0.0,0.0,0.0,0.0,0.0,0.0,0.0,0.0,0.0,0.0,0.0,0.0,0.0,0.0,0.0,0.0,0.0,0.0,0.0,0.0,0.0,0.0,0.0,0.0,0.0,0.0,0.0,0.0,0.0,0.0,0.0,0.0,0.0,0.0,0.0,0.0,0.0,0.0,0.0,0.0,0.0,0.0,0.0,-3.2773,0.0,0.0,0.0,0.0,0.0,0.0,0.0,0.0,0.0,0.0,0.0,0.0,0.0,0.0,0.0,0.0,0.0,0.0,0.0,0.0,0.0,0.0,0.0,0.0,0.0,0.0,0.0,0.0,0.0,0.0,0.0,0.0,0.0,0.0,0.0,0.0,0.0,0.0,0.0,0.0,-3.458,-3.5861,-3.6808,-3.7078,-3.7346,-3.7548,-3.7548,-3.8039,-3.8356,-3.8356,-3.8945,0.0,0.0,0.0,0.0,0.0,0.0,0.0,0.0,0.0,0.0,0.0,0.0,0.0,0.0,0.0,0.0,0.0,0.0,0.0,0.0,0.0,0.0,0.0,0.0,0.0,0.0,0.0,0.0,0.0,0.0,0.0,0.0,0.0,0.0,0.0,0.0,0.0,0.0,0.0,0.0,0.0,0.0,0.0,0.0,0.0,0.0,0.0,0.0,0.0,0.0,0.0,0.0,0.0,-3.2598,-3.2978,-3.331,-3.3389,-3.3418,-3.3418,-3.3418,-3.3418,-3.3418,-3.3418,0.0,0.0,0.0,0.0,0.0,0.0,0.0,0.0,0.0,0.0,0.0,0.0,0.0,0.0,0.0,0.0,0.0,0.0,0.0,0.0,0.0,0.0,0.0,0.0,-3.0889,-3.0947,-3.1218,0.0,0.0,0.0,0.0,0.0,0.0,0.0,0.0,0.0,0.0,0.0,-3.5795,-3.6731,-3.7453,-3.7933,-3.8092,-3.8145,-3.8145,-3.8631,-3.8945,-3.8945,-3.9426,-3.9697,0.0,0.0,0.0,0.0,0.0,0.0,0.0,0.0,0.0,0.0,0.0,0.0,0.0,0.0,0.0,0.0,0.0,0.0,0.0,0.0,0.0,0.0,0.0,0.0,0.0,0.0,0.0,0.0,0.0,0.0,0.0,0.0,-3.05,-2.9895,0.0,0.0,0.0,0.0,0.0,0.0,0.0,0.0,0.0,0.0,0.0,0.0,0.0,-3.1317,-3.1435,-3.1865,-3.2109,-3.2178,-3.2598,-3.2822,-3.2891,-3.3252,-3.3418,-3.3418,-3.3418,0.0,-3.3418,-3.3418,0.0,0.0,0.0,0.0,0.0,0.0,0.0,0.0,0.0,0.0,0.0,0.0,0.0,0.0,0.0,0.0,0.0,0.0,0.0,0.0,0.0,0.0,-3.0889,-3.0889,-3.0889,-3.1276,0.0,-3.1872,-3.1441,-3.2587,-3.2918,0.0,0.0,0.0,0.0,0.0,0.0,0.0,-3.6414,-3.7311,-3.7933,-3.7986,-3.8421,-3.8684,-3.8684,-3.9218,-3.9581,-3.9581,-3.9645,-3.9697,-3.9697,-3.9697,0.0,0.0,0.0,0.0,0.0,0.0,0.0,0.0,0.0,0.0,0.0,0.0,0.0,0.0,0.0,0.0,0.0,0.0,0.0,0.0,0.0,0.0,0.0,0.0,0.0,0.0,0.0,0.0,0.0,-3.0587,-3.0108,-2.9459,-2.9035,-2.8618,0.0,0.0,0.0,0.0,0.0,0.0,0.0,0.0,0.0,-2.9863,-3.0702,-3.1162,-3.1162,-3.1592,-3.1807,-3.1807,-3.248,-3.2793,-3.2812,-3.3232,-3.3418,-3.3418,-3.3418,-3.3418,-3.3418,-3.3418,-3.3281,-3.3066,0.0,0.0,0.0,0.0,-3.2441,-3.2383,-3.1953,-3.1807,-3.1758,-3.1523,0.0,0.0,0.0,0.0,0.0,0.0,0.0,0.0,0.0,0.0,-3.1614,-3.1614,-3.2264,-3.2985,-3.3325,-3.3098,-3.3145,0.0,-3.4069,-3.3957,-3.4292,0.0,0.0,0.0,0.0,-3.6642,-3.7684,-3.8185,-3.8566,-3.8945,-3.9166,-3.9322,-3.9322,-3.9542,-3.9697,-3.9697,-3.9697,-3.9697,-3.9697,-3.9697,-3.9697,0.0,0.0,0.0,0.0,0.0,0.0,0.0,0.0,0.0,0.0,0.0,0.0,0.0,0.0,0.0,0.0,0.0,0.0,0.0,0.0,0.0,0.0,0.0,0.0,0.0,0.0,0.0,0.0,-3.047,-2.9872,-2.9103,-2.8558,-2.8199,0.0,0.0,0.0,0.0,0.0,0.0,-2.8498,-2.939,-2.999,-3.0167,-3.0645,-3.0947,-3.1055,-3.1367,-3.1572,-3.1699,-3.2441,-3.2793,-3.2812,-3.3232,-3.3418,-3.3418,-3.3418,-3.3418,-3.3418,-3.3418,-3.3242,-3.2949,-3.2949,-3.2764,-3.2471,-3.2363,-3.2324,-3.2256,-3.1709,-3.1514,-3.1445,-3.1025,-3.0889,-3.0889,-3.0889,0.0,0.0,0.0,0.0,-3.1276,-3.1508,-3.2065,-3.2618,-3.2711,-3.3586,-3.4459,-3.4547,-3.4581,-3.4847,0.0,-3.5288,-3.5167,-3.5781,0.0,0.0,0.0,0.0,-3.7619,-3.8893,-3.905,-3.9218,-3.9645,-3.9697,-3.9697,-3.9697,-3.9697,-3.9697,-3.9697,-3.9697,-3.9697,-3.9697,-3.9697,-3.9697,-3.9697,0.0,0.0,0.0,0.0,0.0,0.0,0.0,0.0,0.0,0.0,0.0,0.0,0.0,0.0,0.0,0.0,0.0,0.0,0.0,0.0,0.0,0.0,0.0,0.0,0.0,0.0,0.0,0.0,0.0,-2.9163,-2.8984,0.0,0.0,0.0,0.0,-2.8865,-2.8379,-2.8549,-2.9745,-2.9863,-3.0167,-3.083,-3.0889,-3.1084,-3.1484,-3.1504,-3.1728,-3.2139,-3.2588,-3.2793,-3.2812,-3.3232,-3.3418,-3.3418,-3.3418,-3.3418,-3.3418,-3.3418,-3.3408,-3.3389,-3.3389,-3.3379,-3.331,-3.291,-3.2764,-3.2646,-3.1807,-3.1514,-3.1445,-3.1025,-3.0889,-3.0889,-3.0889,-3.0889,0.0,0.0,-3.2113,-3.2332,-3.3243,-3.3526,-3.3685,-3.4191,-3.4348,-3.4947,-3.6865,-3.6217,-3.5508,0.0,-3.6511,-3.6673,-3.7305,0.0,-3.8332,-3.7583,-3.8161,-3.8945,-3.9581,-3.9645,-3.9645,-3.9697,-3.9697,-3.9697,-3.9697,-3.9697,-3.9697,-3.9697,-3.9697,-3.9697,-3.9697,-3.9697,-3.9697,-3.9697,-3.9697,0.0,0.0,0.0,0.0,0.0,0.0,0.0,0.0,0.0,0.0,0.0,0.0,0.0,0.0,0.0,0.0,0.0,0.0,0.0,0.0,0.0,0.0,0.0,0.0,0.0,0.0,0.0,0.0,-2.9153,-2.8618,0.0,-2.7487,-2.7608,-2.7848,-2.8319,-2.8558,-2.9035,-2.9863,-2.9922,-3.035,-3.1289,-3.1299,-3.1504,-3.1934,-3.1934,-3.2012,-3.2178,-3.2598,-3.2793,-3.2812,-3.3232,-3.3418,-3.3418,-3.3418,-3.3418,-3.3418,-3.3418,-3.3262,-3.3018,-3.3018,-3.2851,-3.2598,-3.2451,-3.2393,-3.2353,-3.2041,-3.1934,-3.1914,-3.1758,-3.1523,-3.1299,-3.1299,-3.1504,-3.1777,-3.2113,-3.2618,-3.3187,-3.3526,-3.4022,-3.4569,-3.5168,-3.6045,-3.6911,-3.7672,-3.7672,-3.7619,-3.7962,-3.7542,-3.753,-3.8699,-3.9141,-3.9258,-3.8973,-3.9193,-3.9478,-3.9697,-3.9697,-3.9697,-3.9697,-3.9697,-3.9697,-3.9697,-3.9697,-3.9697,-3.9697,-3.9697,-3.9697,-3.9697,-3.9697,-3.9697,-3.9697,-3.9697,-3.9697,0.0,0.0,0.0,0.0,0.0,0.0,0.0,0.0,0.0,0.0,0.0,0.0,0.0,0.0,0.0,0.0,0.0,0.0,0.0,0.0,0.0,0.0,0.0,0.0,0.0,-3.1536,-3.082,-2.9608,-2.8609,-2.784,-2.7427,-2.7608,-2.796,-2.8618,-2.8856,-2.9396,-3.0367,-3.0436,-3.0874,-3.1719,-3.1738,-3.1943,-3.2373,-3.2383,-3.2451,-3.2598,-3.2871,-3.3008,-3.3018,-3.3301,-3.3418,-3.3418,-3.3418,-3.3418,-3.3418,-3.3418,-3.3252,-3.3008,-3.3008,-3.2832,-3.2588,-3.2588,-3.2588,-3.2578,-3.2432,-3.2285,-3.2229,-3.2229,-3.1973,-3.1738,-3.1738,-3.2166,-3.2694,-3.2829,-3.3589,-3.435,-3.4468,-3.4925,-3.5587,-3.6352,-3.7281,-3.8092,-3.8514,-3.8841,-3.9102,-3.9102,-3.8489,-3.8307,-3.953,-3.9697,-3.9697,-3.9697,-3.9697,-3.9697,-3.9697,-3.9697,-3.9697,-3.9697,-3.9697,-3.9697,-3.9697,-3.9697,-3.9697,-3.9697,-3.9697,-3.9697,-3.9697,-3.9697,-3.9697,-3.9697,-3.9697,-3.9697,-3.9697,0.0,0.0,0.0,0.0,0.0,0.0,0.0,0.0,0.0,0.0,0.0,0.0,0.0,0.0,0.0,0.0,0.0,0.0,0.0,0.0,0.0,0.0,0.0,-3.3695,-3.2311,-3.1101,-3.0383,-2.8938,-2.802,-2.796,-2.7427,-2.7857,-2.9764,-2.9359,-2.9774,-3.1454,-3.1533,-3.1738,-3.2178,-3.2248,-3.2393,-3.2812,-3.2812,-3.3018,-3.3418,-3.3418,-3.3418,-3.3418,-3.3418,-3.3418,-3.3418,-3.3418,-3.3418,-3.3418,-3.3418,-3.3418,-3.3418,-3.3418,-3.3418,-3.3418,-3.3418,-3.3418,-3.3359,-3.2949,-3.2549,-3.2268,-3.2268,-3.2258,-3.2248,-3.2248,-3.2925,-3.3749,-3.4123,-3.4994,-3.587,-3.6207,-3.6343,-3.6615,-3.772,-3.7986,-3.8303,-3.9451,-3.9722,-3.9722,-3.9735,-3.9268,-3.9035,-3.9594,-3.9697,-3.9697,-3.9697,-3.9697,0.0,-3.9697,-3.9697,-3.9697,-3.9697,-3.9697,-3.9697,-3.9697,-3.9697,-3.9697,-3.9697,-3.9697,-3.9697,-3.9697,-3.9697,-3.9697,-3.9697,-3.9697,-3.9697,-3.9697,0.0,0.0,0.0,0.0,0.0,0.0,0.0,0.0,0.0,0.0,0.0,0.0,0.0,0.0,0.0,0.0,0.0,0.0,0.0,0.0,0.0,-3.419,-3.458,-3.3695,-3.3233,-3.2301,-3.049,-2.9362,-2.8388,-2.7435,-2.7194,-2.7842,-2.9568,-2.9536,-3.0195,-3.1902,-3.1992,-3.2187,-3.2607,-3.2627,-3.2822,-3.3242,-3.3252,-3.331,-3.3418,-3.3418,-3.3418,-3.3418,-3.3418,-3.3418,-3.3418,-3.3418,-3.3418,-3.3418,-3.3418,-3.3418,-3.3418,-3.3418,-3.3418,-3.3418,-3.3418,-3.3418,-3.3408,-3.3291,-3.3174,-3.3076,-3.3076,-3.2871,-3.275,-3.3476,-3.4141,-3.4778,-3.5573,-3.6472,-3.7178,-3.6899,-3.6828,-3.689,-3.7268,-3.7346,-3.7774,-3.9385,-3.9683,-3.9913,-4.0696,-4.0718,-4.0414,-3.9835,-3.9697,-3.9697,-3.9697,-3.9697,0.0,-3.9697,-3.9697,-3.9697,-3.9697,-3.9697,-3.9697,-3.9697,-3.9697,-3.9697,-3.9697,-3.9697,-3.9697,-3.9697,-3.9697,-3.9697,-3.9697,-3.9697,-3.9697,0.0,0.0,0.0,0.0,0.0,0.0,0.0,0.0,0.0,0.0,0.0,0.0,0.0,0.0,0.0,0.0,0.0,0.0,0.0,0.0,0.0,0.0,-3.4914,-3.508,-3.3955,-3.3201,-3.2166,-3.049,-2.9066,-2.797,-2.7339,-2.7295,-2.7878,-2.9301,-2.9696,-3.0493,-3.1921,-3.2309,-3.2627,-3.3047,-3.3057,-3.3174,-3.3418,-3.3418,-3.3418,-3.3418,-3.3418,-3.3418,-3.3418,-3.3418,-3.3418,-3.3418,-3.3418,-3.3418,-3.3418,-3.3418,-3.3418,0.0,0.0,0.0,0.0,0.0,-3.3418,-3.3418,-3.3418,-3.3418,-3.3418,-3.3418,-3.3503,-3.3803,-3.4359,-3.5313,-3.6253,-3.6622,-3.7402,-3.7999,-3.7483,-3.7356,-3.7388,-3.7696,-3.7942,-3.8515,-3.9749,-4.0199,-4.0566,-4.1171,-4.1288,0.0,-4.0488,-4.0388,-4.0388,-4.0388,-4.0388,-4.03,-4.0074,-4.0036,-3.9948,-3.9722,-3.9697,-3.9697,-3.9697,-3.9697,0.0,0.0,0.0,-3.9697,-3.9697,-3.9697,0.0,0.0,0.0,-3.9697,-3.9697,0.0,0.0,0.0,-3.9546,-3.9521,0.0,0.0,0.0,0.0,0.0,0.0,0.0,0.0,0.0,0.0,0.0,0.0,0.0,0.0,0.0,0.0,-3.5587,-3.5642,-3.4146,-3.2587,-3.1285,-3.0324,-2.8448,-2.7383,-2.7569,-2.7646,-2.8075,-2.9092,-2.9859,-3.0736,-3.1791,0.0,0.0,0.0,0.0,-3.335,-3.335,-3.3301,-3.3281,-3.3281,-3.3281,-3.3281,-3.3281,-3.3281,-3.3281,-3.3281,-3.3281,-3.331,-3.335,-3.335,-3.3379,-3.3418,-3.3418,-3.3418,-3.3418,-3.3418,-3.3418,-3.3418,-3.3418,0.0,0.0,-3.3418,-3.3985,-3.4797,-3.4984,-3.6258,-3.7577,-3.7373,-3.799,-3.8539,-3.8011,-3.7873,-3.8032,-3.8482,-3.9074,-3.9683,-4.0373,-4.093,-4.1347,-4.1463,-4.1463,-4.1463,-4.1463,-4.1376,-4.1288,-4.1288,-4.1288,-4.1112,-4.0676,-4.0614,-4.04,-3.9848,0.0,0.0,-3.9697,-3.9697,-3.9697,-3.9697,-3.9697,-3.9697,-3.9697,-3.9697,-3.9697,-3.9697,-3.9697,-3.9697,-3.9697,-3.9697,-3.9697,-3.9697,-3.9697,-3.9697,0.0,0.0,0.0,0.0,0.0,0.0,0.0,0.0,0.0,0.0,0.0,0.0,0.0,0.0,0.0,-3.4914,-3.508,-3.4803,-3.3797,-3.2145,-3.0709,-2.9707,-2.8811,-2.8141,-2.7657,-2.7895,-2.8544,-2.9561,-3.0284,-3.1162,-3.2216,-3.2932,-3.334,-3.3418,-3.3096,-3.292,-3.292,-3.2578,-3.2412,-3.2412,0.0,0.0,-3.2412,-3.2412,-3.2412,-3.2412,-3.2412,-3.2607,-3.292,-3.292,-3.3115,-3.3418,-3.3418,-3.3418,-3.3418,-3.3418,-3.3418,-3.3418,-3.3418,-3.3418,-3.3418,-3.3418,-3.3544,-3.3975,-3.5644,-3.638,0.0,-3.845,-3.9041,-3.9055,-3.8562,-3.8436,-3.8493,-3.8608,-3.8783,-3.928,-4.0783,-4.1213,-4.1558,-4.2517,-4.266,-4.266,-4.266,-4.1932,-4.1288,-4.1288,-4.1288,-4.125,-4.1137,-4.1125,-4.0912,-4.0413,-4.0362,-4.0174,-3.9735,-3.9697,-3.9697,-3.9697,-3.9697,-3.9697,-3.9697,-3.9697,-3.9697,-3.9697,-3.9697,-3.9697,-3.9697,-3.9697,-3.9697,-3.9697,-3.9697,-3.9697,0.0,0.0,0.0,0.0,0.0,0.0,0.0,0.0,0.0,0.0,0.0,-3.4814,0.0,0.0,-3.5587,-3.5587,-3.519,-3.4423,-3.3106,-3.1761,-3.0524,-2.955,-2.8815,-2.8347,-2.824,-2.8366,-2.8768,-2.9517,-3.05,-3.1304,-3.1891,-3.2656,-3.3105,-3.3105,-3.2695,-3.248,-3.248,-3.2275,-3.2229,-3.2229,-3.2229,-3.2229,-3.2229,-3.2229,-3.2229,-3.2229,-3.2229,-3.2285,-3.248,-3.248,-3.2725,-3.3105,-3.3105,-3.3242,-3.3418,-3.3418,-3.3418,-3.3418,-3.3418,-3.3418,-3.3418,-3.3418,-3.3733,-3.4413,-3.5941,-3.6746,-3.7424,-3.8882,-3.9308,-3.931,-3.9407,-3.9407,-3.9511,-3.9791,-4.0185,-4.064,-4.1538,-4.1935,-4.2301,-4.2868,-4.2974,-4.2974,-4.2974,-4.2522,-4.2158,-4.2158,-4.2158,-4.2057,-4.1781,-4.1743,-4.1543,-4.0937,-4.0874,-4.0701,-4.0162,-3.9848,-3.9697,-3.9697,-3.9697,-3.9697,-3.9697,-3.9697,-3.9697,-3.9697,-3.9697,-3.9697,-3.9697,-3.9697,-3.9697,-3.9697,-3.9697,-3.9697,0.0,0.0,0.0,0.0,0.0,0.0,0.0,0.0,-3.4969,-3.4256,-3.5256,-3.6048,-3.5312,-3.5817,-3.6211,-3.6048,-3.55,-3.4439,-3.2593,-3.1672,-3.0778,-2.9843,-2.8914,-2.8434,-2.8751,-2.8845,-2.8999,-2.929,-3.0602,-3.1377,-3.1377,-3.2342,-3.292,-3.292,-3.2432,-3.2229,-3.2229,-3.2002,-3.1924,-3.1924,-3.1924,-3.1924,-3.1924,-3.1924,-3.1924,-3.1924,-3.2002,-3.2041,-3.2051,-3.2129,-3.2363,-3.2685,-3.2764,-3.2998,-3.331,-3.3389,-3.3418,-3.3418,-3.3418,-3.3418,-3.3418,-3.3418,-3.3922,-3.4797,-3.5828,-3.6746,-3.7725,-3.8752,-3.9119,-3.9414,-3.9873,-4.006,-4.0223,-4.0918,-4.148,-4.1992,-4.2231,-4.2638,-4.2974,-4.2974,-4.2974,-4.2974,-4.2974,-4.2974,-4.2974,-4.2974,-4.2974,-4.2811,-4.2426,-4.2363,-4.2108,-4.1555,-4.1492,-4.1229,-4.0576,-4.0111,-3.981,-3.9697,-3.9697,-3.9697,-3.9697,-3.9697,-3.9697,-3.9697,-3.9697,-3.9697,-3.9697,-3.9697,-3.9634,-3.9534,-3.9647,-3.9697,-3.489,-3.5097,-3.5382,-3.5951,-3.6011,-3.5968,0.0,0.0,-3.6102,-3.6048,-3.6157,-3.6266,-3.6157,-3.6211,-3.6048,-3.519,-3.5357,-3.4975,-3.3056,-3.2392,-3.1694,-3.0688,-2.9496,-2.8734,-2.8777,-2.9068,-2.9265,-2.9307,-3.0602,-3.1377,-3.1377,-3.261,-3.335,-3.335,-3.2588,-3.2229,-3.2229,-3.1416,-3.1035,-3.1035,-3.1035,-3.1035,-3.1035,-3.1035,-3.1035,-3.1055,-3.1426,-3.1592,-3.1621,-3.2012,-3.2258,-3.2275,-3.2646,-3.2822,-3.291,-3.3281,-3.3418,-3.3418,-3.3418,-3.3418,-3.3418,-3.3418,-3.3481,-3.3733,-3.4787,-3.5767,-3.6746,-3.7725,-3.8633,-3.9308,-3.9367,-3.9414,-3.9708,-4.086,-4.1148,-4.1549,-4.2625,-4.2974,-4.2974,-4.2974,-4.2974,-4.2974,-4.2974,-4.2974,-4.2974,-4.2974,-4.2974,-4.2949,-4.2898,-4.2886,-4.2728,-4.2175,-4.2125,-4.1643,-4.0601,-4.0463,-4.0212,-3.9722,-3.9697,-3.9697,-3.9697,-3.9697,-3.9697,-3.9697,-3.9697,-3.9697,-3.9697,-3.9697,-3.9446,-3.8981,-3.9471,-3.9697,-3.4788,-3.5357,-3.5933,-3.5853,-3.6048,-3.632,-3.632,-3.632,-3.632,-3.632,-3.632,-3.632,-3.632,-3.632,-3.6157,0.0,-3.5692,-3.5002,-3.3138,-3.2497,-3.1609,-3.0068,-2.9401,-2.9085,-2.9085,-2.9222,-2.9307,-2.9307,-3.0222,-3.0741,-3.0741,-3.1868,-3.2502,-3.2502,-3.2296,-3.2041,-3.1787,-3.1435,-3.1133,-3.0889,-3.0889,-3.0889,-3.0889,-3.0889,-3.0889,-3.0898,-3.1074,-3.1152,-3.1162,-3.1348,-3.1572,-3.1807,-3.1982,-3.2207,-3.251,-3.3174,-3.3418,-3.3418,-3.3418,-3.3418,-3.3418,-3.3418,-3.3418,-3.3607,-3.461,-3.5582,-3.6624,-3.7544,-3.8514,-3.9367,-3.9708,-3.9814,-4.0048,-4.0918,-4.1378,-4.1834,-4.2344,-4.275,-4.2974,-4.2974,-4.2974,-4.2974,-4.2974,-4.2974,-4.2974,-4.2974,-4.2974,-4.2974,-4.2974,-4.2974,-4.2886,-4.2715,-4.2401,-4.2024,-4.1505,-4.089,-4.0413,-4.0187,-3.9873,-3.9697,-3.9697,-3.9697,-3.9697,-3.9697,-3.9697,-3.9697,-3.9697,-3.9697,-3.9572,-3.9358,-3.9584,-3.9521,-3.4958,-3.5623,-3.624,-3.5818,-3.6002,-3.632,-3.632,-3.632,-3.632,-3.632,-3.632,-3.632,-3.632,-3.632,-3.6257,-3.612,-3.6005,-3.5262,-3.3436,-3.2721,-3.1753,-3.0113,-2.9569,-2.9307,-2.9307,-2.9307,-2.9307,-2.9307,-3.0091,-3.0482,-3.0287,-3.1557,-3.2165,-3.1977,-3.226,-3.2187,-3.1875,-3.1631,-3.1367,-3.1064,-3.0947,-3.0889,-3.0889,-3.0889,-3.0889,-3.0889,-3.0889,-3.0889,-3.0889,-3.0889,-3.1064,-3.1357,-3.1475,-3.1709,-3.208,-3.2803,-3.3144,-3.3271,-3.3379,-3.3418,-3.3418,-3.3418,-3.3418,-3.3544,-3.4298,-3.5222,-3.6197,-3.711,-3.8145,-3.9049,-3.9767,-3.9931,-4.0106,-4.0687,-4.1378,-4.1879,-4.2061,-4.2569,-4.2974,-4.2974,-4.2974,-4.2974,-4.2974,-4.2974,-4.2974,-4.2974,-4.2974,-4.2974,-4.2974,-4.2974,-4.2974,-4.2974,-4.2678,-4.2376,-4.2225,-4.1291,-4.0676,-4.0526,-3.9998,-3.9697,-3.9697,-3.9697,-3.9697,-3.9697,-3.9697,-3.9697,-3.9697,-3.9697,-3.9609,-3.9471,-3.9622,-3.9396,-3.537,-3.5875,-3.632,-3.6309,-3.6309,-3.632,-3.632,-3.632,-3.632,-3.632,-3.632,-3.632,-3.632,-3.632,-3.6153,-3.5803,-3.6053,-3.5819,-3.4439,-3.3388,-3.24,-3.1433,-3.0148,-2.9307,0.0,-2.9307,-2.9307,-2.9307,-3.0602,-3.1055,-3.0352,-3.2256,-3.3029,-3.2403,-3.2623,-3.2773,-3.2754,-3.1934,-3.1514,-3.1494,-3.1084,-3.0889,-3.0889,-3.0889,-3.0889,-3.0889,-3.0889,-3.0889,-3.0889,-3.0889,-3.0898,-3.0947,-3.1357,-3.1523,-3.1592,-3.2041,-3.2461,-3.2871,-3.3281,-3.3418,-3.3418,-3.3418,-3.3418,-3.3428,-3.3418,-3.4173,-3.516,-3.6135,-3.711,-3.8085,-3.906,-3.9308,-3.9473,-4.0106,-4.0687,-4.132,-4.1935,-4.2569,-4.2974,-4.2974,-4.2974,-4.2974,-4.2974,-4.2974,-4.2974,-4.2974,-4.2974,-4.2974,-4.2974,-4.2974,-4.2974,-4.2974,-4.2961,-4.2791,-4.225,-4.1643,-4.1025,-4.0551,-3.9998,-3.9697,-3.9697,-3.9697,-3.9697,-3.9697,-3.9697,-3.9697,-3.9697,-3.9697,-3.9421,-3.8957,-3.9446,-3.9396,-3.5703,-3.5898,-3.5853,-3.6185,-3.632,-3.632,-3.632,-3.632,-3.632,-3.632,-3.632,-3.632,-3.632,-3.632,-3.6383,-3.6554,-3.6418,-3.5713,-3.4065,-3.3273,-3.21,-3.0213,-2.9569,0.0,0.0,0.0,0.0,-2.9961,-3.0018,-3.0287,-3.0991,-3.1699,-3.2147,-3.2422,-3.2913,-3.3076,-3.2793,-3.2226,-3.1807,-3.1514,-3.1094,-3.0889,-3.0889,-3.0889,-3.0889,-3.0889,-3.0889,-3.0889,-3.0889,-3.0889,-3.0889,-3.0898,-3.1045,-3.1103,-3.1152,-3.1582,-3.1826,-3.2012,-3.2441,-3.2773,-3.3008,-3.3008,-3.3193,-3.3418,-3.3418,-3.411,-3.5108,-3.6135,-3.705,-3.8036,-3.906,-3.9308,-3.9473,-4.0048,-4.0339,-4.0803,-4.1879,-4.2287,-4.2513,-4.2918,-4.2974,-4.2974,-4.2974,-4.2974,-4.2974,-4.2974,-4.2974,-4.2974,-4.2974,-4.2974,-4.2974,-4.2974,-4.2974,-4.2898,-4.2778,-4.1856,-4.12,-4.1025,-4.0199,-3.9697,-3.9697,-3.9697,-3.9697,-3.9697,-3.9697,-3.9697,-3.9697,-3.9697,-3.9597,-3.9421,-3.9609,-3.9396,-3.5634,-3.5761,-3.5634,-3.614,-3.632,-3.632,-3.632,-3.632,-3.632,-3.632,-3.632,-3.632,-3.632,-3.632,-3.6386,-3.668,-3.5991,-3.5108,-3.4166,-3.2816,-3.1405,-3.0213,-2.9635,-2.9307,0.0,0.0,0.0,-2.9896,-3.0018,-3.0343,-3.0991,-3.1699,-3.2211,-3.2422,-3.3193,-3.3525,-3.3252,-3.2822,-3.2324,-3.1748,-3.1475,-3.1269,-3.1113,-3.1113,-3.1035,-3.0889,-3.0889,-3.1064,-3.1334,-3.1005,-3.1054,-3.1334,-3.1005,-3.0889,-3.0976,-3.1534,-3.1574,-3.1377,-3.1963,-3.2344,-3.2598,-3.2744,-3.2978,-3.3223,-3.3379,-3.3859,-3.4548,-3.5582,-3.6319,-3.705,-3.8395,-3.8752,-3.893,-3.9708,-4.0223,-4.0745,-4.1549,-4.2118,-4.2513,-4.2918,-4.2974,-4.2974,-4.2974,-4.2974,-4.2974,-4.2974,-4.2974,-4.2974,-4.2974,-4.2974,-4.2974,-4.2974,-4.2974,-4.2974,-4.2974,-4.2145,-4.1543,-4.13,-4.0488,-3.9898,-3.9697,-3.9697,-3.9697,-3.9697,-3.9697,-3.9697,-3.9697,-3.9697,-3.9697,-3.9697,-3.9697,-3.9509,-3.5233,-3.5497,-3.5611,-3.614,-3.632,-3.632,-3.632,-3.632,-3.632,-3.632,-3.6266,-3.6277,-3.63,-3.6312,-3.6302,-3.6378,-3.5045,-3.4171,-3.4789,-3.232,-3.0676,0.0,0.0,0.0,0.0,0.0,0.0,-2.9307,0.0,-3.1055,-3.0417,-3.2266,-3.3058,-3.2514,-3.3537,-3.4082,-3.4101,-3.3652,-3.2998,-3.2229,-3.2229,-3.1953,-3.1553,-3.1533,-3.1299,-3.0918,-3.0898,-3.1392,-3.217,-3.1334,-3.1508,-3.217,-3.1334,-3.0947,-3.1054,-3.1893,-3.1672,-3.1064,-3.1936,-3.218,-3.2207,-3.2598,-3.2744,-3.2842,-3.3262,-3.3389,-3.3578,-3.46,-3.4922,-3.5407,-3.7303,-3.7845,-3.8145,-3.9178,-4.0223,-4.1091,-4.1206,-4.2118,-4.2974,-4.2974,-4.2974,-4.2974,-4.2974,-4.2974,-4.2974,-4.2974,-4.2974,-4.2974,-4.2974,-4.2974,-4.2974,-4.2974,-4.2974,-4.2974,-4.2974,-4.2502,-4.1894,-4.1326,-4.0802,-4.0237,-3.9722,-3.9697,-3.9697,-3.9697,-3.9697,-3.9697,-3.9697,-3.9697,-3.9697,-3.9697,-3.9697,-3.9697,-3.5141,-3.5256,-3.5187,-3.6059,-3.632,-3.632,-3.632,-3.632,-3.632,-3.632,-3.5763,-3.5589,-3.6649,-3.6285,-3.6331,-3.7803,-3.7044,0.0,-3.4634,-3.316,0.0,-3.0018,0.0,-2.9307,-2.9307,-2.9307,0.0,0.0,-2.9635,-3.0417,-3.1772,-3.1891,-3.2416,-3.364,-3.3949,-3.4219,-3.4531,-3.3789,-3.2998,-3.2229,-3.2229,-3.2109,-3.1992,-3.167,-3.1455,-3.1338,-3.1025,-3.1392,-3.217,-3.195,-3.2399,-3.313,-3.2227,-3.1893,-3.1893,-3.2113,-3.2055,-3.1923,-3.2087,-3.1988,-3.1699,-3.1807,-3.206,-3.2412,-3.2832,-3.2949,-3.3204,-3.4519,-3.5469,-3.6319,-3.7484,-3.8335,-3.9238,-4.0397,-4.0513,-4.0803,-4.2231,-4.24,-4.2457,-4.2918,-4.2974,-4.2974,-4.2974,-4.2974,-4.2974,-4.2974,-4.2974,-4.2974,-4.2974,-4.2974,-4.2974,-4.2974,-4.2974,-4.2974,-4.2974,-4.2095,-4.148,-4.13,-4.0438,-3.9835,-3.9697,-3.9697,-3.9697,-3.9697,-3.9697,-3.9697,-3.9697,-3.9697,-3.9697,-3.9697,-3.9697,-3.9697,-3.4911,-3.5164,-3.5301,-3.6082,-3.632,-3.632,-3.632,-3.632,-3.632,-3.632,-3.5872,-3.58,-3.6832,-3.6589,-3.6624,0.0,0.0,0.0,-3.4789,-3.3287,-3.1835,0.0,-2.97,0.0,-2.9307,-2.9307,-2.9438,0.0,-3.0026,-3.0732,-3.1901,-3.2147,-3.2848,-3.4062,-3.4248,-3.4463,-3.4697,-3.4219,-3.3555,-3.2725,-3.2725,-3.2873,-3.3093,-3.2243,-3.1929,-3.2116,0.0,-3.2008,-3.2789,-3.2789,-3.3346,-3.4078,-3.3187,-3.2561,-3.2285,-3.3063,-3.2892,-3.2332,-3.3119,-3.2668,-3.178,-3.1574,-3.168,-3.2002,-3.2607,-3.2793,-3.3005,-3.399,-3.4662,-3.5397,-3.6807,-3.7823,-3.8778,-4.0327,-4.0848,-4.1308,-4.24,-4.2569,-4.2569,-4.2918,-4.2974,-4.2974,-4.2974,-4.2974,-4.2974,-4.2974,-4.2974,-4.2974,-4.2974,-4.2974,-4.2974,-4.2974,-4.2974,-4.2974,-4.2974,-4.2195,-4.1593,-4.13,-4.0526,-3.9948,-3.9697,-3.9697,-3.9697,-3.9697,-3.9697,-3.9697,-3.9697,-3.9697,-3.9697,-3.9697,-3.9697,-3.9697,-3.4739,-3.5198,-3.5634,-3.614,-3.632,-3.632,-3.632,-3.632,-3.632,-3.632,-3.6211,-3.6329,-3.6968,-3.6903,-3.6884,-3.7342,0.0,-3.6011,-3.5098,-3.3287,-3.189,-3.1304,-3.0083,-2.9307,-2.9307,-2.9307,-2.9569,-3.0222,-3.0991,-3.1442,-3.1506,-3.2657,-3.3525,-3.4141,-3.4619,-3.4824,-3.4697,-3.4697,-3.4267,-3.3418,-3.3544,-3.3848,-3.434,-3.3104,-3.2834,-3.3245,-3.2615,-3.2903,-3.3751,-3.3751,-3.4302,-3.5024,-3.4134,-3.33,-3.2721,-3.4291,-3.3899,-3.2778,-3.4346,-3.3853,-3.2461,-3.182,-3.1485,-3.1592,-3.2451,-3.2715,-3.2812,-3.3281,-3.3607,-3.4225,-3.5951,-3.7028,-3.8149,-3.9908,-4.1251,-4.2105,-4.2231,-4.2638,-4.2974,-4.2974,-4.2974,-4.2974,-4.2974,-4.2974,-4.2974,-4.2974,-4.2974,-4.2974,-4.2974,-4.2974,-4.2974,-4.2974,-4.2974,-4.2974,-4.2974,-4.2451,-4.1844,-4.1313,-4.0752,-4.0199,-3.971,-3.9697,-3.9697,-3.9697,-3.9697,-3.9697,-3.9697,-3.9697,-3.9697,-3.9697,-3.9697,-3.9697,-3.5141,-3.5451,-3.5634,-3.614,-3.632,-3.632,-3.632,-3.632,0.0,-3.632,-3.5697,-3.5647,-3.737,-3.6389,-3.6118,-3.8528,-3.8141,-3.6941,-3.5468,-3.4457,-3.3005,0.0,-2.9765,-2.9307,-2.9307,-2.9307,0.0,0.0,-3.0991,-3.1635,-3.2221,-3.2422,-3.3213,-3.457,-3.5371,-3.5439,-3.4707,-3.4697,-3.4267,-3.3418,-3.4235,-3.4694,-3.4779,-3.4614,-3.4543,-3.4593,-3.3726,0.0,-3.4692,-3.4692,-3.5201,-3.5993,-3.5024,-3.458,-3.4469,-3.4803,-3.4681,-3.4458,-3.4792,-3.4681,-3.419,-3.2596,-3.1608,-3.1162,-3.2012,-3.2275,-3.2441,-3.3203,-3.459,-3.5951,-3.6319,-3.8052,-3.9919,-4.0745,-4.1549,-4.2231,-4.275,-4.2918,-4.2974,-4.2974,-4.2974,-4.2974,-4.2974,-4.2974,-4.2974,-4.2974,-4.2974,-4.2974,-4.2974,-4.2974,-4.2974,-4.2974,-4.2974,-4.2974,-4.2974,-4.2057,-4.1388,-4.13,-4.0388,-3.9798,-3.9697,-3.9697,-3.9697,-3.9697,-3.9697,-3.9697,-3.9697,-3.9697,-3.9697,-3.9697,-3.9697,-3.9697,-3.5393,-3.5703,-3.5967,-3.6263,-3.632,-3.632,-3.632,0.0,0.0,-3.632,-3.5532,-3.5324,-3.678,-3.5932,0.0,-3.75,-3.7413,-3.6492,-3.4808,-3.3968,0.0,-3.0538,-2.97,-2.9307,0.0,-2.9635,-3.0091,-3.0806,-3.1515,-3.2029,-3.2358,-3.3151,-3.3953,-3.4687,-3.5557,-3.5596,-3.4707,-3.522,-3.5041,-3.4173,-3.5211,-3.5962,-3.6348,-3.5423,-3.5291,-3.5693,-3.4725,-3.4525,-3.4914,-3.5422,-3.5872,-3.6266,-3.5817,-3.53,-3.4969,-3.5477,-3.5312,-3.4969,-3.5477,-3.5312,-3.4692,-3.3346,-3.2342,-3.1668,-3.2085,-3.2229,-3.2517,-3.4193,-3.5355,-3.6388,-3.7779,-3.9275,-4.0594,-4.1423,-4.2118,-4.2625,-4.2918,-4.2974,-4.2974,-4.2974,-4.2974,-4.2974,-4.2974,-4.2974,-4.2974,-4.2974,-4.2974,-4.2974,-4.2974,-4.2974,-4.2974,-4.2974,-4.2974,-4.2861,-4.2627,-4.1806,-4.1163,-4.0874,-4.0149,-3.9697,-3.9697,-3.9697,-3.9697,-3.9697,-3.9697,-3.9697,-3.9697,-3.9697,-3.9697,-3.9697,-3.9697,-3.9697,-3.5657,-3.5967,-3.632,-3.632,-3.632,-3.632,-3.632,-3.632,0.0,-3.632,-3.5708,-3.5491,-3.6437,-3.5689,-3.5295,0.0,-3.6114,-3.5376,0.0,0.0,0.0,0.0,-2.9961,0.0,-2.9307,-2.9896,0.0,-3.1313,-3.2157,-3.2603,-3.2603,-3.3914,-3.4697,-3.4697,-3.5557,-3.5663,-3.5034,-3.5806,-3.5873,-3.5222,-3.6091,-3.6958,-3.7597,-3.6099,-3.5826,-3.6461,-3.558,-3.519,-3.5245,-3.5993,-3.632,-3.632,-3.632,-3.5872,-3.53,-3.6036,-3.5817,-3.5312,-3.6036,-3.5817,-3.5024,-3.419,-3.313,-3.2207,-3.2087,-3.209,-3.268,-3.4861,-3.5804,-3.666,-3.8898,-4.0199,-4.1145,-4.2049,-4.2625,-4.2974,-4.2974,-4.2974,-4.2974,-4.2974,-4.2974,-4.2974,-4.2974,-4.2974,-4.2974,-4.2974,-4.2974,-4.2974,-4.2974,-4.2974,-4.2992,-4.2811,-4.2798,-4.2678,-4.225,-4.1543,-4.0924,-4.0538,-3.9998,-3.9697,-3.9697,-3.9697,-3.9697,-3.9697,-3.9697,-3.9697,-3.9697,-3.9697,-3.9697,-3.9697,-3.9697,-3.9697,-3.6071,-3.6286,-3.632,-3.632,-3.632,-3.632,-3.632,0.0,-3.632,-3.632,-3.6211,-3.6466,-3.7485,-3.6143,-3.5333,-3.6542,-3.5283,-3.406,0.0,0.0,0.0,0.0,0.0,0.0,0.0,-2.9896,0.0,-3.1313,-3.2594,-3.3301,-3.3301,-3.4173,-3.4697,-3.4697,-3.5557,-3.5998,-3.6065,-3.6129,-3.6244,-3.6247,-3.6785,-3.7052,-3.7148,-3.6929,-3.6869,-3.6902,-3.6397,-3.6157,0.0,-3.6266,-3.632,-3.632,-3.632,-3.6266,-3.6157,-3.6266,-3.6277,-3.6157,-3.6266,-3.6211,-3.6036,-3.508,-3.3628,-3.2147,-3.1722,-3.1855,-3.2499,-3.4004,-3.5726,-3.7418,-3.8566,-4.0396,-4.2105,-4.2737,-4.2974,-4.2974,-4.2974,-4.2974,-4.2974,-4.2974,-4.2974,-4.2974,-4.2974,-4.2974,-4.2974,-4.2974,-4.2974,-4.2974,-4.2974,-4.2974,-4.2785,-4.2338,-4.2288,-4.2263,-4.2213,-4.1191,-4.0576,-4.0513,-3.9998,-3.9697,-3.9697,-3.9697,-3.9697,-3.9697,-3.9697,-3.9697,-3.9697,-3.9697,-3.9697,-3.9697,-3.9697,-3.9697,-3.622,-3.632,-3.632,-3.632,-3.632,-3.632,-3.632,0.0,-3.632,-3.632,-3.5872,-3.5725,-3.6723,-3.5328,-3.4261,-3.4954,-3.3882,0.0,-3.1863,0.0,0.0,0.0,0.0,0.0,0.0,0.0,-3.1442,-3.253,-3.3102,-3.367,-3.4298,-3.4315,-3.4575,-3.5146,-3.6062,-3.6617,-3.6666,-3.7296,-3.7323,-3.6856,-3.7325,-3.7494,-3.7529,-3.7188,-3.6979,-3.6945,-3.6495,-3.632,0.0,-3.632,-3.632,-3.632,-3.632,-3.632,-3.632,-3.632,-3.632,-3.632,-3.632,-3.632,-3.6157,-3.519,-3.4402,-3.3713,-3.3271,-3.3502,-3.4264,-3.6005,-3.7592,-3.9087,-4.0454,-4.1696,-4.2681,-4.2918,-4.2974,-4.2974,-4.2974,-4.2974,-4.2974,-4.2974,-4.2974,-4.2974,-4.2974,-4.2974,-4.2974,-4.2974,-4.2974,-4.2848,-4.2577,-4.2539,-4.2271,-4.1731,-4.1957,-4.1936,-4.1229,-4.0764,-4.0375,-4.0036,-3.9823,-3.9697,-3.9697,-3.9697,-3.9697,-3.9697,-3.9697,-3.9697,-3.9697,-3.9697,-3.9697,-3.9685,-3.9358,-3.9195,-3.632,-3.632,-3.632,-3.632,-3.632,-3.632,0.0,0.0,-3.632,-3.632,-3.5763,-3.5502,-3.6208,-3.4976,-3.384,-3.3608,0.0,-3.1708,-3.0482,0.0,0.0,0.0,0.0,-2.9765,0.0,-3.1129,-3.2275,-3.3733,-3.3859,-3.4173,-3.4859,-3.4841,-3.5126,-3.5944,-3.6562,-3.7022,-3.7229,-3.7785,-3.7794,-3.7303,-3.7451,-3.7563,-3.7552,-3.7035,-3.6805,-3.6794,-3.6427,-3.632,0.0,-3.632,-3.632,-3.632,-3.632,-3.632,-3.632,-3.632,-3.632,-3.632,-3.632,-3.632,-3.6211,-3.5532,-3.53,-3.529,-3.5093,-3.501,-3.5387,-3.7242,-3.8896,-4.0408,-4.1525,-4.24,-4.2974,-4.2806,-4.2862,-4.2974,-4.2974,-4.2974,-4.2974,-4.2974,-4.2974,-4.2974,-4.2974,-4.2974,-4.2974,-4.2974,-4.2836,-4.2652,-4.2263,-4.2062,-4.1706,-4.1153,-4.1442,-4.1354,-4.0588,-4.0362,-4.0111,-3.9722,-3.9697,-3.9697,-3.9697,-3.9697,-3.9697,-3.9697,-3.9697,-3.9697,-3.9697,-3.9697,-3.9609,-3.9433,-3.9108,-3.8743,-3.632,-3.632,-3.632,-3.632,-3.632,-3.632,0.0,0.0,-3.632,-3.632,-3.6266,-3.6301,-3.6323,-3.5503,-3.443,-3.3034,-3.1991,0.0,-3.0417,0.0,0.0,0.0,0.0,0.0,-3.0287,-3.158,-3.3111,-3.4735,-3.4859,0.0,-3.4922,-3.5839,-3.6593,-3.6977,-3.6958,-3.7168,-3.7703,-3.7251,-3.7303,-3.7793,-3.7276,-3.6991,-3.6968,-3.6507,-3.6332,-3.6332,-3.632,-3.632,0.0,-3.632,-3.632,-3.632,-3.632,-3.632,-3.632,-3.632,-3.632,-3.632,-3.632,-3.632,-3.632,-3.6266,-3.6266,-3.6369,-3.6819,-3.6066,-3.5328,-3.6784,-3.9093,-4.1091,-4.1091,-4.2061,-4.2862,-4.2231,-4.2581,-4.2974,-4.2974,-4.2974,-4.2974,-4.2974,-4.2974,-4.2974,-4.2974,-4.2974,-4.2974,-4.2974,-4.2577,-4.2213,-4.2213,-4.1681,-4.1075,-4.0588,-4.0526,-4.0526,-4.0513,-4.0011,-3.9697,-3.9697,-3.9697,-3.9697,-3.9697,-3.9697,-3.9697,-3.9697,-3.9697,-3.9697,-3.9697,-3.9697,-3.9421,-3.8932,-3.8919,-3.8328,-3.632,-3.632,-3.632,-3.632,-3.632,-3.632,-3.632,0.0,-3.632,-3.632,-3.632,-3.6521,-3.719,-3.5598,-3.4099,-3.3871,-3.2036,0.0,0.0,0.0,0.0,0.0,0.0,0.0,0.0,0.0,-3.5325,-3.589,-3.5951,-3.6197,-3.6868,-3.7171,-3.7429,-3.751,-3.7521,-3.7785,-3.8324,-3.7814,-3.7429,-3.7265,-3.6759,-3.6507,-3.6507,-3.6346,-3.632,-3.632,-3.632,-3.632,-3.632,-3.632,-3.632,-3.632,-3.632,-3.632,-3.632,-3.632,-3.632,-3.632,-3.632,-3.632,-3.632,-3.632,-3.6507,-3.6886,-3.7391,-3.6791,-3.6318,-3.8337,-3.9988,-4.132,-4.2174,-4.2694,-4.2974,-4.275,-4.2862,-4.2974,-4.2974,-4.2974,-4.2974,-4.2974,-4.2974,-4.2974,-4.2974,-4.2728,-4.2476,-4.2476,-4.1944,-4.1455,-4.1091,-4.0877,-4.0563,-4.0011,-3.9961,-3.9961,-3.9961,-3.9798,-3.9697,-3.9697,-3.9697,-3.9697,-3.9697,-3.9697,-3.9697,-3.9697,-3.9697,-3.9509,-3.9132,-3.9132,-3.8642,-3.7713,-3.7713,-3.7373,0.0,-3.632,-3.632,-3.632,-3.632,0.0,0.0,0.0,-3.632,-3.632,-3.6427,-3.6695,-3.7167,-3.575,-3.4496,-3.4645,-3.2673,-3.124,0.0,0.0,0.0,0.0,0.0,0.0,0.0,-3.5869,-3.6563,-3.6928,-3.6928,-3.7171,-3.7785,-3.7978,-3.8067,-3.8067,-3.7876,-3.7843,-3.8011,-3.7483,-3.7058,-3.6736,-3.6427,-3.632,-3.632,-3.632,-3.632,-3.632,-3.632,-3.632,0.0,-3.632,-3.632,-3.632,-3.632,-3.632,-3.632,-3.632,-3.632,-3.632,-3.632,-3.6392,-3.6564,-3.6564,-3.7046,-3.7621,-3.7565,-3.7492,-3.7762,-3.9418,-4.049,-4.1263,-4.2061,-4.2638,-4.2918,-4.2681,-4.2806,-4.2974,-4.2974,-4.2974,-4.2974,-4.2974,-4.2974,-4.2911,-4.2698,-4.2439,-4.2137,-4.1869,-4.1379,-4.0902,-4.0563,-4.0337,-4.0074,-3.9735,-3.9697,-3.9697,-3.9697,-3.9697,-3.9697,-3.9697,-3.9697,-3.9697,-3.9697,-3.9697,-3.9597,-3.9383,-3.9383,-3.9107,-3.8542,-3.8341,-3.7877,-3.7174,-3.6973,-3.6732,0.0,-3.632,-3.632,-3.632,-3.632,0.0,0.0,0.0,0.0,-3.6312,-3.6702,-3.686,-3.6467,-3.5972,-3.5586,-3.5345,-3.3757,-3.2956,0.0,-3.3644,0.0,0.0,-3.5139,0.0,-3.6803,-3.6724,-3.6989,-3.7845,-3.7905,-3.7905,-3.7905,-3.8369,-3.8573,-3.8527,-3.8011,-3.7506,-3.6979,-3.653,-3.632,-3.632,-3.632,-3.632,-3.632,-3.632,-3.6343,0.0,-3.6323,-3.6346,-3.6435,-3.6435,-3.6435,-3.6424,-3.6335,-3.6323,-3.6378,-3.6289,-3.6343,-3.6323,-3.6323,-3.6656,-3.7037,-3.7071,-3.7793,-3.8411,-3.7512,-3.8202,-3.9414,-3.9931,-4.0571,-4.1091,-4.1148,-4.2061,-4.2862,-4.2287,-4.2569,-4.2974,-4.2974,-4.2974,-4.2974,-4.2924,-4.2924,-4.2748,-4.225,-4.2125,-4.1869,-4.13,-4.0814,-4.0463,-4.0463,-4.0011,-3.9697,-3.9697,-3.9697,-3.9697,-3.9697,-3.9697,-3.9697,-3.9697,-3.9697,-3.9697,-3.9697,-3.9647,-3.9396,-3.8932,-3.8844,-3.8479,-3.7952,-3.74,-3.7123,-3.7111,-3.6644,-3.6405,-3.632,0.0,-3.632,-3.632,-3.632,-3.632,0.0,0.0,0.0,0.0,0.0,0.0,0.0,-3.6426,-3.5806,-3.5396,-3.4467,-3.4145,-3.4964,0.0,0.0,-3.6967,-3.7823,-3.8134,-3.7643,-3.8205,0.0,0.0,-3.8942,-3.8942,-3.8942,-3.8732,-3.8401,-3.7988,-3.7483,-3.7161,-3.6979,-3.653,-3.632,-3.632,-3.632,-3.632,-3.632,-3.632,-3.6484,-3.6851,-3.6851,-3.7069,-3.7437,-3.7437,-3.7437,-3.7391,-3.7012,-3.6851,-3.6805,-3.6415,-3.6518,-3.6851,-3.6851,-3.7184,-3.7678,-3.8091,-3.839,-3.8596,-3.8775,-3.9028,-3.9297,-3.9133,-4.0071,-4.1206,-4.1708,-4.24,-4.2974,-4.2806,-4.2918,-4.2974,-4.2974,-4.2974,-4.2848,-4.2489,-4.2401,-4.217,-4.163,-4.1178,-4.0852,-4.0727,-4.0237,-3.9885,-3.9885,-3.9772,-3.9697,-3.9697,-3.9697,-3.9697,-3.9697,-3.9697,-3.9697,-3.9697,-3.9697,-3.9697,-3.9697,-3.9295,-3.9057,-3.8919,-3.8015,-3.7513,-3.7374,-3.687,-3.6606,-3.6593,-3.6468,-3.6405,-3.632,-3.632,-3.632,-3.632,-3.632,-3.632,-3.632,0.0,0.0,0.0,0.0,0.0,0.0,0.0,0.0,0.0,-3.6082,0.0,0.0,0.0,0.0,-3.8514,-3.8942,-3.906,0.0,0.0,0.0,0.0,0.0,-3.9308,-3.9308,-3.8849,-3.8459,-3.816,-3.7655,-3.7161,-3.6691,-3.6415,-3.6392,-3.6622,-3.6622,-3.6748,-3.6966,-3.6966,-3.7115,-3.7379,-3.7379,-3.7529,-3.7793,-3.7793,-3.7793,-3.7758,-3.7483,-3.7379,-3.7345,-3.7069,-3.7138,-3.7379,-3.7379,-3.7724,-3.824,-3.8746,-3.8918,-3.8964,-3.9228,-3.9308,-3.9297,-3.9439,-4.0257,-4.1263,-4.1948,-4.2569,-4.2974,-4.2974,-4.2974,-4.2911,-4.2715,-4.2652,-4.2489,-4.1894,-4.1781,-4.1605,-4.1053,-4.0714,-4.0438,-4.0174,-3.9885,-3.9697,-3.9697,-3.9697,-3.9697,-3.9697,-3.9697,-3.9697,-3.9697,-3.9697,-3.9697,-3.9697,-3.9459,-3.932,-3.932,-3.8781,-3.8354,-3.8103,-3.7249,-3.6857,-3.6857,-3.6556,-3.6405,-3.6405,-3.6405,-3.6405,-3.632,-3.632,-3.632,-3.632,-3.632,-3.6343,-3.6369,0.0,0.0,0.0,0.0,0.0,0.0,-3.8244,0.0,0.0,0.0,0.0,0.0,0.0,0.0,0.0,0.0,0.0,0.0,0.0,0.0,0.0,0.0,-3.9308,-3.9308,-3.8849,-3.8585,-3.8585,-3.8068,-3.7379,-3.6562,-3.6562,-3.6714,-3.7094,-3.7094,-3.7368,-3.7793,-3.7793,-3.7827,-3.7907,0.0,0.0,-3.8022,-3.8022,-3.8022,-3.8011,-3.7942,-3.7907,-3.7896,-3.7816,-3.7839,-3.7919,-3.7999,-3.8321,-3.8768,-3.917,-3.9308,-3.9308,-3.9308,-3.9308,-3.9426,-3.9943,-4.0571,-4.1206,-4.1777,-4.2457,-4.2949,-4.2873,-4.2848,-4.2698,-4.22,-4.2087,-4.1869,-4.1263,-4.1163,-4.0987,-4.0488,-4.0388,-4.0224,-3.9772,-3.9697,-3.9697,-3.9697,-3.9697,-3.9697,-3.9697,-3.9697,-3.9659,-3.9572,-3.9572,-3.9534,-3.9446,-3.9082,-3.8844,-3.8668,-3.814,-3.7626,-3.7073,-3.6644,-3.6405,-3.6405,-3.6405,-3.6405,-3.6405,-3.6405,-3.6405,-3.632,-3.632,-3.632,-3.632,-3.632,-3.6381,-3.6817,0.0,0.0,0.0,0.0,0.0,0.0,-3.8529,-3.8823,0.0,0.0,-3.8942,0.0,0.0,-3.9308,-3.9308,0.0,0.0,0.0,0.0,0.0,0.0,0.0,-3.9308,-3.9308,-3.8849,-3.8585,-3.8585,-3.8068,-3.7712,-3.7552,-3.7552,-3.7598,-3.7678,-3.7678,-3.7712,-3.7793,-3.7793,-3.8034,-3.8459,0.0,-3.8688,-3.9067,-3.9067,-3.9067,-3.9033,-3.8619,-3.8459,-3.8413,-3.7953,-3.808,-3.8516,-3.8929,-3.9124,-3.9205,-3.9285,-3.9308,-3.9308,-3.9308,-3.9308,-3.9297,-3.9414,-4.0223,-4.1148,-4.1206,-4.2118,-4.2861,-4.2451,-4.2338,-4.2133,-4.158,-4.1467,-4.1304,-4.0752,-4.0639,-4.0463,-3.9923,-3.9823,-3.9785,-3.971,-3.9697,-3.9697,-3.9697,-3.9697,-3.9697,-3.9697,-3.9697,-3.9509,-3.9032,-3.9045,-3.8781,-3.8291,-3.8642,-3.8492,-3.7475,-3.7362,-3.7048,-3.6543,-3.6455,-3.6405,-3.6405,-3.6405,-3.6405,-3.6405,-3.6405,-3.6405,-3.632,-3.632,-3.632,-3.632,-3.632,-3.6404,-3.692,0.0,0.0,0.0,0.0,0.0,0.0,0.0,-3.9119,-3.8693,0.0,-3.9308,-3.9308,-3.9308,-3.9308,0.0,0.0,0.0,0.0,0.0,0.0,0.0,0.0,0.0,-3.9308,-3.9101,-3.8975,-3.8975,-3.8734,-3.8608,-3.8608,-3.8608,-3.847,-3.8217,-3.8217,-3.8355,-3.8608,-3.8608,-3.8746,-3.8975,0.0,-3.9101,-3.9308,-3.9308,-3.9308,-3.9285,-3.9055,-3.8975,-3.8941,-3.87,-3.8768,-3.901,-3.9228,-3.9308,-3.9308,-3.9308,-3.9308,-3.9308,-3.9308,-3.9308,-3.9251,-3.8987,-3.9733,-4.057,-4.0273,-4.1112,-4.1886,-4.1395,-4.1489,-4.1568,-4.1015,-4.0902,-4.0727,-4.0174,-4.0074,-3.9986,-3.9735,-3.9697,-3.9697,-3.9697,-3.9697,-3.9697,-3.9697,-3.9697,-3.9697,-3.9697,-3.9433,-3.9145,-3.8944,-3.858,-3.8165,-3.76,-3.7814,-3.7637,-3.682,-3.6782,-3.6669,-3.6417,-3.6405,-3.6405,-3.6405,-3.6405,-3.6405,-3.6405,-3.6405,-3.6405,-3.632,-3.632,-3.632,-3.632,0.0,0.0,0.0,0.0,0.0,0.0,0.0,0.0,0.0,-3.9308,0.0,-3.9308,-3.9308,-3.9308,-3.9308,-3.9308,-3.9308,-3.9308,-3.9308,0.0,0.0,0.0,0.0,0.0,0.0,0.0,-3.9308,-3.9308,-3.9308,-3.9308,-3.9308,-3.9308,-3.9308,-3.9308,-3.9113,-3.8746,-3.8746,-3.8941,-3.9308,-3.9308,-3.9308,-3.9308,-3.9308,-3.9308,-3.9308,-3.9308,-3.9308,-3.9308,-3.9308,-3.9308,-3.9308,-3.9308,-3.9308,-3.9308,-3.9308,-3.9308,-3.9308,-3.9308,-3.9228,-3.9136,-3.9136,-3.9055,-3.8872,-3.8504,-3.9001,-3.9603,-3.9365,-4.0162,-4.093,-4.0444,-4.0699,-4.099,-4.0438,-4.0325,-4.0199,-3.9772,-3.9697,-3.9697,-3.9697,-3.9697,-3.9697,-3.9697,-3.9697,-3.9697,-3.9697,-3.9584,-3.9496,-3.9496,-3.9007,-3.8617,-3.8529,-3.7952,-3.7437,-3.7023,-3.6998,-3.6857,-3.643,-3.6405,-3.6405,-3.6405,-3.6405,-3.6405,-3.6405,-3.6405,-3.6405,-3.6405,-3.6405,-3.6405,-3.632,-3.632,-3.632,-3.632,-3.6622,0.0,-3.762,-3.8149,0.0,-3.9147,0.0,0.0,0.0,-3.9308,-3.9308,-3.9308,-3.9308,-3.9308,-3.9308,0.0,-3.9308,-3.9308,-3.9308,0.0,0.0,0.0,0.0,0.0,0.0,0.0,-3.9308,-3.9308,-3.9308,-3.9308,-3.9308,-3.9308,-3.9308,-3.9308,-3.9285,-3.9251,-3.9251,-3.9274,-3.9308,-3.9308,-3.9308,-3.9308,-3.9308,-3.9308,-3.9308,-3.9308,-3.9308,-3.9308,-3.9308,-3.9308,-3.9308,-3.9308,-3.9308,-3.9308,-3.9308,-3.9308,-3.9308,-3.9308,-3.901,-3.8642,-3.8642,-3.8286,-3.7885,-3.785,-3.793,-3.8112,-3.8629,-3.9676,-4.0419,-3.9878,-4.0193,-4.0425,-3.9873,-3.9747,-3.9747,-3.9697,-3.9697,-3.9697,-3.9697,-3.9697,-3.9697,-3.9697,-3.9697,-3.9697,-3.9697,-3.9245,-3.8982,-3.8982,-3.8417,-3.7864,-3.7349,-3.6845,-3.6505,-3.6468,-3.6468,-3.6455,-3.6405,-3.6405,-3.6405,-3.6405,-3.6405,-3.6405,-3.6405,-3.6405,-3.6405,-3.6405,-3.6405,-3.6405,-3.632,-3.632,-3.6346,-3.6668,-3.7127,0.0,0.0,-3.8194,-3.8723,-3.9205,-3.9308,0.0,0.0,0.0,-3.9308,-3.9308,-3.9308,-3.9308,-3.9308,-3.9308,-3.9308,-3.9308,-3.9308,0.0,0.0,0.0,0.0,0.0,0.0,0.0,-3.9308,-3.9308,-3.9308,-3.9308,-3.9308,-3.9308,-3.9308,-3.9308,-3.9308,-3.9308,-3.9308,-3.9308,-3.9308,-3.9308,-3.9308,-3.9308,-3.9308,-3.9308,-3.9308,-3.9308,-3.9308,-3.9308,-3.9308,-3.9308,-3.9308,-3.9308,-3.9308,-3.9262,-3.8964,-3.886,-3.8803,-3.847,-3.824,-3.8091,-3.8091,-3.7942,-3.7724,-3.7414,-3.7322,-3.7422,-3.8035,-3.8795,-3.9327,-3.9165,-3.9568,-3.9948,-3.9735,-3.9697,-3.9697,-3.9697,-3.9697,-3.9697,-3.9697,-3.9697,-3.9697,-3.9697,-3.9408,-3.9182,-3.9182,-3.868,-3.8329,-3.8329,-3.7826,-3.7274,-3.6769,-3.6531,-3.6405,-3.6405,-3.6405,-3.6405,-3.6405,-3.6405,-3.6405,-3.6405,-3.6405,-3.6405,-3.6405,-3.6405,-3.6405,-3.6405,-3.6405,-3.6405,-3.632,-3.632,-3.6358,-3.6714,0.0,0.0,-3.7793,-3.8321,-3.8906,-3.9239,-3.9308,-3.9308,-3.9308,0.0,0.0,0.0,-3.9308,0.0,0.0,0.0,0.0,0.0,0.0,0.0,0.0,0.0,0.0,0.0,0.0,0.0,0.0,-3.9308,-3.9308,-3.9308,-3.9308,-3.9308,-3.9308,-3.9308,-3.9308,-3.9308,-3.9308,-3.9308,-3.9308,-3.9308,-3.9308,-3.9308,-3.9308,-3.9308,-3.9308,-3.9308,-3.9308,-3.9297,-3.9136,-3.9078,-3.9055,-3.8883,-3.8826,-3.878,-3.8447,-3.8332,-3.8275,-3.7907,-3.7678,-3.7552,-3.7552,-3.7437,-3.723,-3.6886,-3.6794,-3.6959,-3.7715,-3.8203,-3.8496,-3.8559,-3.9154,-3.9697,-3.9697,-3.9697,-3.9697,-3.9697,-3.9697,-3.9697,-3.9697,-3.9697,-3.9634,-3.9459,-3.9158,-3.8856,-3.8617,-3.8103,-3.7676,-3.75,-3.7149,-3.682,-3.6443,-3.6405,-3.6405,-3.6405,-3.6405,-3.6405,-3.6405,-3.6405,-3.6405,-3.6405,-3.6405,-3.6405,-3.6405,-3.6405,-3.6405,-3.6405,-3.6405,-3.6405,-3.632,-3.632,-3.632,0.0,0.0,0.0,-3.7793,-3.8573,-3.9308,-3.9308,-3.9308,-3.9308,-3.9308,-3.9308,0.0,-3.9308,-3.9308,-3.9308,0.0,0.0,0.0,0.0,0.0,0.0,0.0,0.0,0.0,0.0,0.0,0.0,0.0,-3.9308,-3.9308,-3.9308,-3.9308,-3.9308,-3.9308,-3.9308,-3.9308,-3.9308,-3.9308,-3.9308,-3.9308,-3.9308,-3.9308,-3.9308,-3.9308,-3.9308,-3.9297,-3.9297,-3.9297,-3.9239,-3.8768,-3.8573,-3.8516,-3.7988,-3.7793,-3.7793,-3.7781,-3.7781,-3.7781,-3.777,-3.7437,-3.6968,-3.6968,-3.6679,-3.632,-3.632,-3.632,-3.6538,-3.772,-3.7986,-3.7986,-3.8039,-3.8893,-3.9697,-3.9697,-3.9697,-3.9697,-3.9697,-3.9685,-3.9685,-3.9685,-3.9685,-3.9496,-3.8994,-3.8906,-3.8642,-3.8065,-3.7513,-3.6973,-3.6468,-3.6405,-3.6405,-3.6405,-3.6405,-3.6405,-3.6405,-3.6405,-3.6405,-3.6405,-3.6405,-3.6405,-3.6405,-3.6405,-3.6405,-3.6405,-3.6405,-3.6405,-3.6405,-3.6405,-3.6405,-3.632,-3.632,0.0,-3.6714,0.0,0.0,0.0,-3.8849,0.0,0.0,-3.9308,-3.9308,-3.9308,-3.9308,0.0,-3.9308,-3.9308,-3.9308,0.0,0.0,0.0,0.0,0.0,0.0,0.0,0.0,0.0,0.0,0.0,0.0,-3.9308,-3.9308,-3.9308,-3.9308,-3.9308,-3.9308,-3.9308,-3.9308,-3.9308,-3.9308,-3.9308,-3.9308,-3.9308,-3.9308,-3.9308,-3.9308,-3.9308,-3.9113,-3.8768,-3.839,-3.8229,-3.8217,-3.808,-3.8022,-3.8011,-3.785,-3.7793,-3.7735,-3.7379,-3.7265,-3.7196,-3.684,-3.6622,-3.6495,-3.6495,-3.6392,-3.632,-3.632,-3.632,-3.6375,-3.67,-3.7066,-3.7667,-3.8893,-3.9426,-3.9697,-3.9697,-3.9697,-3.9697,-3.9697,-3.9383,-3.912,-3.912,-3.8781,-3.8454,-3.8291,-3.7939,-3.7475,-3.6971,-3.6757,-3.6593,-3.643,-3.6405,-3.6405,-3.6405,-3.6405,-3.6405,-3.6405,-3.6405,-3.6405,-3.6405,-3.6405,-3.6405,-3.6405,-3.6405,-3.6405,-3.6405,-3.6405,-3.6405,-3.6405,-3.6405,-3.6405,-3.632,-3.632,0.0,-3.6656,-3.7115,-3.7689,-3.8413,0.0,0.0,0.0,-3.9308,-3.9308,-3.9308,-3.9308,0.0,-3.9308,-3.9308,-3.9308,-3.9308,0.0,0.0,0.0,0.0,0.0,0.0,0.0,0.0,0.0,0.0,0.0,-3.9308,-3.9308,-3.9308,-3.9308,-3.9308,-3.9308,-3.9308,-3.9308,-3.9216,-3.9021,-3.9021,-3.8906,-3.8711,-3.8918,-3.9021,-3.901,-3.8791,-3.8539,-3.824,-3.7919,-3.7793,-3.777,-3.7575,-3.7483,-3.746,-3.7253,-3.7184,-3.7138,-3.6828,-3.6725,-3.6679,-3.6369,-3.632,-3.632,-3.632,-3.632,-3.632,-3.632,-3.632,-3.632,-3.6538,-3.6862,-3.7453,-3.8736,-3.9206,-3.9426,-3.9645,-3.9521,-3.9371,-3.9371,-3.8919,-3.853,-3.853,-3.8241,-3.7939,-3.7713,-3.7211,-3.6782,-3.6455,-3.6405,-3.6405,-3.6405,-3.6405,-3.6405,-3.6405,-3.6405,-3.6405,-3.6405,-3.6405,-3.6405,-3.6405,-3.6405,-3.6405,-3.6405,-3.6405,-3.6405,-3.6405,-3.6405,-3.6405,-3.6405,-3.6405,-3.6405,-3.632,0.0,0.0,-3.632,-3.6691,0.0,-3.8355,-3.8964,-3.9308,-3.9308,0.0,-3.9308,-3.9308,-3.9308,-3.9308,-3.9308,-3.9308,-3.9308,-3.9308,0.0,0.0,0.0,0.0,0.0,0.0,0.0,0.0,0.0,0.0,0.0,-3.9308,-3.9308,-3.9285,-3.9239,-3.9239,-3.9216,-3.917,-3.917,-3.8941,-3.8516,-3.8516,-3.8263,-3.7804,-3.8286,-3.8516,-3.8481,-3.7953,-3.7724,-3.7712,-3.7666,-3.7643,-3.7598,-3.715,-3.6966,-3.6853,-3.6449,-3.632,-3.632,-3.632,-3.632,-3.632,-3.632,-3.632,-3.632,-3.632,-3.632,-3.632,-3.622,-3.6208,-3.6348,-3.6788,-3.6883,-3.7044,-3.7683,-3.8299,-3.8859,-3.9443,-3.9145,-3.8844,-3.8844,-3.8329,-3.7939,-3.7939,-3.7889,-3.7688,-3.7186,-3.6732,-3.6405,-3.6405,-3.6405,-3.6405,-3.6405,-3.6405,-3.6405,-3.6405,-3.6405,-3.6405,-3.6405,-3.6405,-3.6405,-3.6405,-3.6405,-3.6405,-3.6405,-3.6405,-3.6405,-3.6405,-3.6405,-3.6405,-3.6405,-3.6405,-3.6405,-3.632,-3.632,0.0,0.0,-3.6955,-3.7793,-3.8436,-3.8964,-3.9308,-3.9308,-3.9308,-3.9308,-3.9308,-3.9308,-3.9308,-3.9308,-3.9308,-3.9308,-3.9308,-3.9308,0.0,0.0,0.0,0.0,0.0,0.0,0.0,0.0,0.0,-3.9308,-3.9308,-3.9308,-3.9136,-3.8746,-3.8746,-3.8539,-3.8114,-3.8114,-3.8057,-3.7965,-3.7965,-3.7896,-3.7793,-3.7907,-3.7965,-3.793,-3.7414,-3.714,-3.7161,-3.6759,-3.6599,-3.6587,-3.6472,-3.6438,-3.6427,-3.6366,-3.632,-3.632,-3.632,-3.632,-3.632,-3.632,-3.632,-3.632,-3.632,-3.632,-3.6185,-3.5795,-3.568,-3.5588,-3.5368,-3.5276,-3.5527,-3.649,-3.7485,-3.8194,-3.8317,-3.8278,-3.8191,-3.8191,-3.7739,-3.7362,-3.7362,-3.6998,-3.6719,-3.6606,-3.648,-3.6405,-3.6405,-3.6405,-3.6405,-3.6405,-3.6405,-3.6405,-3.6405,-3.6405,-3.6405,-3.6405,-3.6405,-3.6405,-3.6405,-3.6405,-3.6405,-3.6405,-3.6405,-3.6405,-3.6405,-3.6405,-3.6405,-3.6405,-3.6405,-3.6405,0.0,0.0,0.0,0.0,0.0,-3.7563,-3.808,-3.8596,-3.9021,-3.9251,-3.9308,-3.9308,-3.9308,-3.9308,-3.9308,-3.9308,-3.9308,-3.9308,-3.9308,0.0,0.0,0.0,0.0,0.0,0.0,0.0,0.0,0.0,0.0,-3.8689,-3.892,-3.8689,-3.8459,-3.8206,-3.8206,-3.8068,-3.7793,-3.7793,-3.7666,-3.7425,-3.7425,-3.7299,-3.7069,-3.7311,-3.7288,-3.7046,-3.6782,-3.6668,-3.6645,-3.6381,-3.632,-3.632,-3.632,-3.632,-3.632,-3.632,-3.632,-3.632,-3.632,-3.632,-3.632,-3.632,-3.6105,-3.591,-3.591,-3.5749,-3.5508,-3.5244,-3.5175,-3.5118,-3.4865,-3.4796,-3.4988,-3.5833,-3.6638,-3.736,-3.7867,-3.7801,-3.7613,-3.7613,-3.7161,-3.6832,-3.6832,-3.6606,-3.6405,-3.6405,-3.6405,-3.6405,-3.6405,-3.6405,-3.6405,-3.6405,-3.6405,-3.6405,-3.6405,-3.6405,-3.6405,-3.6405,-3.6405,-3.6405,-3.6405,-3.6405,-3.6405,-3.6405,-3.6405,-3.6405,-3.6405,-3.6405,-3.6405,-3.6405,-3.6405,-3.6405,0.0,0.0,0.0,0.0,0.0,0.0,-3.7563,-3.8137,-3.87,-3.9101,-3.9251,-3.9308,-3.9308,0.0,0.0,0.0,0.0,0.0,0.0,0.0,0.0,0.0,0.0,0.0,0.0,0.0,0.0,0.0,-3.8121,-3.8008,-3.8571,-3.8064,-3.7747,-3.7655,-3.7655,-3.762,-3.7529,-3.7529,-3.7322,-3.6909,-3.6909,-3.6679,-3.6289,-3.6714,-3.6679,-3.632,-3.632,-3.632,-3.632,-3.632,-3.632,-3.632,-3.632,-3.632,-3.632,-3.6174,-3.614,-3.6128,-3.6048,-3.6013,-3.6013,-3.6013,-3.5738,-3.5393,-3.5393,-3.5118,-3.4785,-3.4693,-3.4659,-3.4636,-3.4555,-3.4544,-3.4687,-3.5344,-3.5809,-3.6436,-3.7468,-3.7362,-3.7048,-3.7048,-3.6719,-3.6405,-3.6405,-3.6405,-3.6405,-3.6405,-3.6405,-3.6405,-3.6405,-3.6405,-3.6405,-3.6405,-3.6405,-3.6405,-3.6405,-3.6405,-3.6405,-3.6405,-3.6405,-3.6405,-3.6405,-3.6405,-3.6405,-3.6405,-3.6405,-3.6405,-3.6405,-3.6405,-3.6405,-3.6405,-3.6405,-3.6405,0.0,0.0,0.0,0.0,0.0,0.0,0.0,0.0,0.0,0.0,0.0,0.0,0.0,0.0,0.0,0.0,0.0,0.0,0.0,0.0,0.0,0.0,0.0,0.0,0.0,0.0,0.0,0.0,-3.8121,-3.8008,-3.8571,-3.8064,-3.7586,-3.7094,-3.7138,-3.692,-3.6472,-3.6527,-3.6438,-3.6369,-3.6369,-3.6335,-3.632,-3.6335,-3.6335,-3.632,-3.632,-3.632,-3.632,-3.632,-3.632,-3.632,-3.632,-3.632,-3.622,-3.5784,-3.5623,-3.5554,-3.5141,-3.5003,-3.5003,-3.5003,-3.4957,-3.4888,-3.4888,-3.4854,-3.4705,-3.4245,-3.4108,-3.4004,-3.3591,-3.3488,-3.3765,-3.4662,-3.4943,-3.5332,-3.6393,-3.6568,-3.6518,-3.6518,-3.6455,-3.6405,-3.6405,-3.6405,-3.6405,-3.6405,-3.6405,-3.6405,-3.6405,-3.6405,-3.6405,-3.6405,-3.6405,-3.6405,-3.6405,-3.6405,-3.6405,-3.6405,-3.6405,-3.6405,-3.6405,-3.6405,-3.6405,-3.6405,-3.6405,-3.6405,-3.6405,-3.6405,-3.6405,-3.6405,-3.6405,-3.6405,-3.632,0.0,0.0,0.0,0.0,0.0,0.0,0.0,0.0,0.0,0.0,0.0,0.0,0.0,0.0,0.0,0.0,0.0,0.0,0.0,0.0,0.0,0.0,0.0,0.0,0.0,0.0,0.0,-3.7264,-3.7208,-3.7758,-3.7264,-3.684,-3.661,-3.661,-3.666,-3.6754,-3.6754,-3.6754,-3.6754,-3.6141,-3.5853,-3.5841,-3.5566,-3.5749,-3.6254,-3.5967,-3.5853,-3.583,-3.5554,-3.5451,-3.5451,-3.5451,-3.5451,-3.5416,-3.5198,-3.5118,-3.5083,-3.4877,-3.4796,-3.4796,-3.4796,-3.4601,-3.4349,-3.4349,-3.4165,-3.3901,-3.366,-3.3602,-3.3545,-3.3338,-3.3281,-3.353,-3.4543,-3.4775,-3.5114,-3.6168,-3.6405,-3.6405,-3.6405,-3.6405,-3.6405,-3.6405,-3.6405,-3.6405,-3.6405,-3.6405,-3.6405,-3.6405,-3.6405,-3.6405,-3.6405,-3.6405,-3.6405,-3.6405,-3.6405,-3.6405,-3.6405,-3.6405,-3.6405,-3.6405,-3.6405,-3.6405,-3.6405,-3.6405,-3.6405,-3.6405,-3.6405,-3.6405,-3.6405,-3.6405,-3.6405,0.0,0.0,0.0,0.0,0.0,0.0,0.0,0.0,0.0,0.0,0.0,0.0,0.0,0.0,0.0,0.0,0.0,0.0,0.0,0.0,0.0,0.0,0.0,0.0,0.0,0.0,0.0,0.0,-3.6592,-3.6538,-3.7078,-3.6592,-3.6375,-3.6483,-3.6483,-3.6754,-3.7346,-3.7346,-3.7239,-3.7078,-3.6037,-3.5596,-3.5692,-3.5059,-3.5283,-3.6048,-3.5554,-3.5336,-3.5313,-3.4946,-3.4796,-3.4796,-3.4796,-3.4796,-3.4785,-3.4647,-3.4601,-3.4578,-3.4463,-3.4418,-3.4418,-3.4418,-3.4142,-3.3821,-3.3821,-3.3568,-3.3281,-3.3281,-3.3281,-3.3281,-3.3281,-3.3281,-3.3519,-3.4396,-3.4677,-3.5114,-3.6168,-3.6405,-3.6405,-3.6405,-3.6405,-3.6405,-3.6405,-3.6405,-3.6405,-3.6405,-3.6405,-3.6405,-3.6405,-3.6405,-3.6405,-3.6405,-3.6405,-3.6405,-3.6405,-3.6405,-3.6405,-3.6405,-3.6405,-3.6405,-3.6405,-3.6405,-3.6405,-3.6405,-3.6405,-3.6405,-3.6405,-3.6405,-3.6405,-3.6405,-3.6405,-3.6405,0.0,0.0,0.0,0.0,0.0,0.0,0.0,0.0,0.0,0.0,0.0,0.0,0.0,0.0,0.0,0.0,0.0,0.0,0.0,0.0,0.0,0.0,0.0,0.0,0.0,0.0,0.0,0.0,-3.6592,-3.6538,-3.7078,-3.6592,-3.6538,-3.7024,-3.7078,-3.7346,-3.7933,-3.7933,-3.7667,-3.7078,-3.622,-3.5936,-3.6231,-3.53,-3.5119,-3.5531,-3.5049,-3.4842,-3.4831,-3.4808,-3.4796,-3.4796,-3.4796,-3.4796,-3.4739,-3.4234,-3.4039,-3.3981,-3.3522,-3.3361,-3.3361,-3.3361,-3.3338,-3.3327,-3.3327,-3.3304,-3.3281,-3.3281,-3.3281,-3.3281,-3.3281,-3.3281,-3.3431,-3.3892,-3.4433,-3.5114,-3.6168,-3.6405,-3.6405,-3.6405,-3.6405,-3.6405,-3.6405,-3.6405,-3.6405,-3.6405,-3.6405,-3.6405,-3.6405,-3.6405,-3.6405,-3.6405,-3.6405,-3.6405,-3.6405,-3.6405,-3.6405,-3.6405,-3.6405,-3.6405,-3.6405,-3.6405,-3.6405,-3.6405,-3.6405,-3.6405,-3.6405,-3.6405,-3.6405,-3.6405,-3.6405,-3.6405,0.0,0.0,0.0,0.0,0.0,0.0,0.0,0.0,0.0,0.0,0.0,0.0,0.0,0.0,0.0,0.0,0.0,0.0,0.0,0.0,0.0,0.0,0.0,0.0,0.0,0.0,0.0,0.0,-3.6429,-3.6375,-3.6592,-3.6375,-3.6375,-3.6592,-3.6916,-3.756,-3.8514,-3.8198,-3.7868,-3.7655,-3.5705,-3.5125,-3.5718,-3.4506,-3.4325,-3.5049,-3.4877,-3.4601,-3.4257,-3.3958,-3.3832,-3.3832,-3.3832,-3.3832,-3.3798,-3.3614,-3.3545,-3.3511,-3.3338,-3.3281,-3.3281,-3.3281,-3.3281,-3.3281,-3.3281,-3.3281,-3.3281,-3.3281,-3.3281,-3.3281,-3.3281,-3.3281,-3.353,-3.4335,-3.4932,-3.5512,-3.6216,-3.6405,-3.6405,-3.6405,-3.6405,-3.6405,-3.6405,-3.6405,-3.6405,-3.6405,-3.6405,-3.6405,-3.6405,-3.6405,-3.6405,-3.6405,-3.6405,-3.6405,-3.6405,-3.6405,-3.6405,-3.6405,-3.6405,-3.6405,-3.6405,-3.6405,-3.6405,-3.6405,-3.6405,-3.6405,-3.6405,-3.6405,-3.6405,-3.6405,-3.6405,-3.6405,-3.632,0.0,0.0,0.0,0.0,0.0,0.0,0.0,0.0,0.0,0.0,0.0,0.0,0.0,0.0,0.0,0.0,0.0,0.0,0.0,0.0,0.0,0.0,0.0,0.0,0.0,0.0,-3.632,-3.632,0.0,-3.6538,-3.6592,-3.6754,-3.7131,-3.7667,-3.8356,-3.9102,-3.8736,-3.8238,-3.7524,-3.5509,-3.4656,-3.4819,-3.3878,-3.3874,-3.4615,-3.4932,-3.475,-3.4245,-3.3924,-3.3683,-3.3522,-3.3522,-3.343,-3.3281,-3.3281,-3.3281,-3.3281,-3.3281,-3.3281,-3.3281,-3.3281,-3.3281,-3.3281,-3.3281,-3.3281,-3.3281,-3.3281,-3.3281,-3.3281,-3.3281,-3.3281,-3.353,-3.4543,-3.5078,-3.5512,-3.6263,-3.6405,-3.6405,-3.6405,-3.6405,-3.6405,-3.6405,-3.6405,-3.6405,-3.6405,-3.6405,-3.6405,-3.6405,-3.6405,-3.6405,-3.6405,-3.6405,-3.6405,-3.6405,-3.6405,-3.6405,-3.6405,-3.6405,-3.6405,-3.6405,-3.6405,-3.6405,-3.6405,-3.6405,-3.6405,-3.6405,-3.6405,-3.6405,-3.6405,-3.6405,-3.6405,0.0,0.0,0.0,0.0,0.0,0.0,0.0,0.0,0.0,0.0,0.0,0.0,0.0,0.0,0.0,0.0,0.0,0.0,0.0,0.0,0.0,0.0,0.0,0.0,0.0,0.0,0.0,-3.632,-3.632,-3.6538,-3.7078,-3.7131,-3.7613,-3.8736,-3.9374,-3.9685,-3.9697,-3.9645,-3.8647,-3.6619,-3.5683,-3.4703,-3.3639,-3.3639,-3.384,-3.4293,-3.5157,-3.5279,-3.4842,-3.4819,-3.4498,-3.4027,-3.4004,-3.3717,-3.3304,-3.3292,-3.3281,-3.3281,-3.3281,-3.3281,-3.3281,-3.3281,-3.3281,-3.3281,-3.3281,-3.3281,-3.3281,-3.3281,-3.3281,-3.3281,-3.3281,-3.3331,-3.3568,-3.4543,-3.4823,-3.5114,-3.6168,-3.6405,-3.6405,-3.6405,-3.6405,-3.6405,-3.6405,-3.6405,-3.6405,-3.6405,-3.6405,-3.6405,-3.6405,-3.6405,-3.6405,-3.6405,-3.6405,-3.6405,-3.6405,-3.6405,-3.6405,-3.6405,-3.6405,-3.6405,-3.6405,-3.6405,-3.6405,-3.6405,-3.6405,-3.6405,-3.6405,-3.6405,-3.6405,-3.6405,-3.6405,-3.6405,-3.632,0.0,0.0,0.0,0.0,0.0,0.0,0.0,0.0,0.0,0.0,0.0,0.0,0.0,0.0,0.0,0.0,0.0,0.0,0.0,0.0,0.0,0.0,0.0,0.0,0.0,0.0,0.0,-3.6646,-3.6916,-3.7078,-3.7507,-3.8092,-3.8788,-3.8945,-3.927,-3.9697,-3.8893,-3.8185,-3.7578,-3.5223,-3.4235,-3.4525,-3.392,-3.4013,-3.477,-3.5668,-3.599,-3.5807,-3.5095,-3.4716,-3.4544,-3.4153,-3.3924,-3.3763,-3.3419,-3.3281,-3.3281,-3.3281,-3.3281,-3.3281,-3.3281,-3.3281,-3.3281,-3.3281,-3.3281,-3.3281,-3.3281,-3.3281,-3.3281,-3.3281,-3.3568,-3.3953,-3.4628,-3.5078,-3.556,-3.6263,-3.6405,-3.6405,-3.6405,-3.6405,-3.6405,-3.6405,-3.6405,-3.6405,-3.6405,-3.6405,-3.6405,-3.6405,-3.6405,-3.6405,-3.6405,-3.6405,-3.6405,-3.6405,-3.6405,-3.6405,-3.6405,-3.6405,-3.6405,-3.6405,-3.6405,-3.6405,-3.6405,-3.6405,-3.6405,-3.6405,-3.6405,-3.6405,-3.6405,-3.6405,-3.6405,-3.632,-3.632,-3.632,-3.632,0.0,0.0,-3.6592,-3.6646,-3.67,0.0,0.0,0.0,0.0,0.0,0.0,0.0,0.0,0.0,0.0,0.0,0.0,0.0,0.0,0.0,0.0,-3.74,-3.7024,-3.7024,-3.7292,-3.756,-3.7773,-3.8356,-3.8841,-3.9166,-3.9166,-3.9322,-3.9697,-3.905,-3.8291,-3.7406,-3.5322,-3.4112,-3.3786,-3.3628,-3.3864,-3.4413,-3.5708,-3.632,-3.6263,-3.5428,-3.498,-3.4773,-3.4463,-3.4073,-3.3671,-3.3384,-3.3281,-3.3281,-3.3281,-3.3281,-3.3281,-3.3281,-3.3281,-3.3281,-3.3281,-3.3281,-3.3281,-3.3281,-3.3281,-3.3281,-3.3281,-3.3656,-3.4139,-3.4677,-3.5223,-3.5764,-3.6263,-3.6405,-3.6405,-3.6405,-3.6405,-3.6405,-3.6405,-3.6405,-3.6405,-3.6405,-3.6405,-3.6405,-3.6405,-3.6405,-3.6405,-3.6405,-3.6405,-3.6405,-3.6405,-3.6405,-3.6405,-3.6405,-3.6405,-3.6405,-3.6405,-3.6405,-3.6405,-3.6405,-3.6405,-3.6405,-3.6405,-3.6405,-3.6405,-3.6405,-3.6405,-3.6405,-3.6375,-3.6429,-3.6483,-3.6483,-3.6483,0.0,-3.7078,-3.7185,-3.7346,-3.788,0.0,0.0,0.0,0.0,0.0,0.0,0.0,0.0,0.0,0.0,0.0,0.0,0.0,0.0,-3.8145,-3.8027,-3.7986,-3.7986,-3.8039,-3.8303,-3.8893,-3.9426,-3.9697,-3.9697,-3.9697,-3.9697,-3.9697,-3.9581,-3.8594,-3.6738,-3.5629,-3.4146,-3.2389,-3.3243,-3.3582,-3.3695,-3.5532,-3.6297,-3.6151,-3.5703,-3.5267,-3.4877,-3.475,-3.4153,-3.3361,-3.3304,-3.3281,-3.3281,-3.3281,-3.3281,-3.3281,-3.3281,-3.3281,-3.3281,-3.3281,-3.3281,-3.3281,-3.3281,-3.3281,-3.3331,-3.3381,-3.3706,-3.4237,-3.4775,-3.532,-3.58,-3.631,-3.6405,-3.6405,-3.6405,-3.6405,-3.6405,-3.6405,-3.6405,-3.6405,-3.6405,-3.6405,-3.6405,-3.6405,-3.6405,-3.6405,-3.6405,-3.6405,-3.6405,-3.6405,-3.6405,-3.6405,-3.6405,-3.6405,-3.6405,-3.6405,-3.6405,-3.6405,-3.6405,-3.6405,-3.6405,-3.6405,-3.6405,-3.6405,-3.6405,-3.6405,-3.6405,-3.6916,-3.7292,-3.7655,-3.7655,-3.7655,0.0,-3.7814,-3.7826,-3.788,0.0,0.0,0.0,0.0,0.0,0.0,0.0,0.0,0.0,0.0,0.0,0.0,0.0,0.0,0.0,-3.8736,-3.825,-3.7986,-3.7986,-3.8409,-3.8893,-3.9478,-3.9645,-3.9697,-3.9697,-3.9697,-3.9697,-3.9697,-3.8788,-3.8133,-3.7696,-3.5168,-3.3741,-3.3356,-3.3526,-3.3582,-3.3695,-3.5532,-3.6036,-3.5657,-3.5554,-3.5462,-3.529,-3.4475,-3.4039,-3.3821,-3.343,-3.3281,-3.3281,-3.3281,-3.3281,-3.3281,-3.3281,-3.3281,-3.3281,-3.3281,-3.3281,-3.3281,-3.3281,-3.3281,-3.3381,-3.3755,-3.4237,-3.4787,-3.532,-3.5847,-3.6263,-3.6358,-3.6405,-3.6405,-3.6405,-3.6405,-3.6405,-3.6405,-3.6405,-3.6405,-3.6405,-3.6405,-3.6405,-3.6405,-3.6405,-3.6405,-3.6405,-3.6405,-3.6405,-3.6405,-3.6405,-3.6405,-3.6405,-3.6405,-3.6405,-3.6405,-3.6405,-3.6405,-3.6405,-3.6405,-3.6405,-3.6405,-3.6405,-3.6405,-3.6405,-3.6405,-3.6405,-3.756,-3.756,-3.756,-3.756,-3.756,0.0,0.0,-3.8198,-3.8461,-3.8788,0.0,0.0,0.0,0.0,0.0,0.0,0.0,0.0,0.0,0.0,0.0,0.0,0.0,0.0,-3.8893,-3.8841,-3.8841,-3.8841,-3.9102,-3.9374,-3.9685,-3.9697,-3.9697,-3.9697,-3.9697,-3.9697,-3.9697,-3.8841,-3.8027,-3.7299,-3.5035,-3.3832,-3.3582,-3.3582,-3.3864,-3.4291,-3.5448,-3.5749,-3.5485,-3.4969,-3.4762,-3.4705,-3.4199,-3.3855,-3.3614,-3.3373,-3.3281,-3.3281,-3.3281,-3.3281,-3.3281,-3.3281,-3.3281,-3.3281,-3.3281,-3.3281,-3.3281,-3.3281,-3.3281,-3.3431,-3.3892,-3.4384,-3.4932,-3.5476,-3.5991,-3.6405,-3.6405,-3.6405,-3.6405,-3.6405,-3.6405,-3.6405,-3.6405,-3.6405,-3.6405,-3.6405,-3.6405,-3.6405,-3.6405,-3.6405,-3.6405,-3.6405,-3.6405,-3.6405,-3.6405,-3.6405,-3.6405,-3.6405,-3.6405,-3.6405,-3.6405,-3.6405,-3.6405,-3.6405,-3.6405,-3.6405,-3.6405,-3.6405,-3.6405,-3.6405,-3.6405,-3.6267,-3.8145,-3.788,-3.7613,-3.7613,-3.7613,-3.772,0.0,0.0,0.0,0.0,0.0,0.0,0.0,0.0,0.0,0.0,0.0,0.0,0.0,0.0,0.0,0.0,0.0,0.0,-3.905,-3.9426,-3.9697,-3.9697,-3.9697,-3.9697,-3.9697,-3.9697,-3.9697,-3.9697,-3.9697,-3.9697,-3.9697,-3.8998,-3.8068,-3.6846,-3.5079,-3.4101,-3.3853,-3.3695,-3.4035,-3.4803,-3.5304,-3.5405,-3.5164,-3.4337,-3.3947,-3.3866,-3.3866,-3.3625,-3.3281,-3.3281,-3.3281,-3.3281,-3.3281,-3.3281,-3.3281,-3.3281,-3.3281,-3.3281,-3.3281,-3.3281,-3.3281,-3.3281,-3.3281,-3.3431,-3.3892,-3.4384,-3.4932,-3.5476,-3.5991,-3.6405,-3.6405,-3.6405,-3.6405,-3.6405,-3.6405,-3.6405,-3.6405,-3.6405,-3.6405,-3.6405,-3.6405,-3.6405,-3.6405,-3.6405,-3.6405,-3.6405,-3.6405,-3.6405,-3.6405,-3.6405,-3.6405,-3.6405,-3.6405,-3.6405,-3.6405,-3.6405,-3.6405,-3.6405,-3.6405,-3.6355,-3.6207,-3.6207,-3.6207,-3.6207,-3.6207,-3.5918,-3.8736,0.0,0.0,0.0,-3.9426,-3.9426,-3.9478,0.0,-3.9633,-3.9697,0.0,0.0,0.0,0.0,0.0,0.0,0.0,0.0,0.0,0.0,0.0,0.0,0.0,0.0,0.0,-3.9645,-3.9697,-3.9697,-3.9697,-3.9697,-3.9697,-3.9697,-3.9697,-3.9697,-3.9697,-3.9697,-3.9697,-3.8619,-3.8039,-3.7814,-3.5002,-3.4078,-3.4747,-3.3966,-3.3862,-3.4348,-3.5168,-3.5003,-3.4165,-3.405,-3.3752,-3.3361,-3.3361,-3.3338,-3.3281,-3.3281,-3.3281,-3.3281,-3.3281,-3.3281,-3.3281,-3.3281,-3.3281,-3.3281,-3.3281,-3.3281,-3.3281,-3.3281,-3.3281,-3.3431,-3.3892,-3.4384,-3.4932,-3.5476,-3.5991,-3.6405,-3.6405,-3.6405,-3.6405,-3.6405,-3.6405,-3.6405,-3.6405,-3.6405,-3.6405,-3.6405,-3.6405,-3.6405,-3.6405,-3.6405,-3.6405,-3.6405,-3.6405,-3.6405,-3.6405,-3.6405,-3.6405,-3.6405,-3.6405,-3.6405,-3.6405,-3.6405,-3.6405,-3.6405,-3.6405,-3.6119,-3.5596,-3.5596,-3.5596,-3.5596,-3.5596,-3.5295,0.0,0.0,0.0,0.0,0.0,0.0,-3.8275,0.0,-3.8718,0.0,0.0,0.0,0.0,0.0,0.0,0.0,-3.8366,0.0,0.0,0.0,0.0,0.0,0.0,0.0,0.0,0.0,0.0,-3.8718,-3.8718,-3.8718,-3.8718,-3.8718,-3.8718,-3.8718,-3.8718,-3.8567,-3.8314,-3.7788,-3.7084,-3.6265,-3.4438,-3.4078,-3.4847,-3.3686,-3.3791,-3.4939,-3.4731,-3.4395,-3.3981,-3.3706,-3.3465,-3.3281,-3.3281,-3.3281,-3.3281,-3.3281,-3.3281,-3.3281,-3.3281,-3.3281,-3.3281,-3.3281,-3.3281,-3.3281,-3.3281,-3.3281,-3.3281,-3.3281,-3.3281,-3.3431,-3.3892,-3.4384,-3.4932,-3.5476,-3.5991,-3.6405,-3.6405,-3.6405,-3.6405,-3.6405,-3.6405,-3.6405,-3.6405,-3.6405,-3.6405,-3.6405,-3.6405,-3.6405,-3.6405,-3.6405,-3.6405,-3.6405,-3.6405,-3.6405,-3.6405,-3.6405,-3.6405,-3.6405,-3.6405,-3.6405,-3.6405,-3.6405,-3.6267,-3.5893,-3.5893,-3.5617,-3.5019,-3.5019,-3.4856,-3.46,-3.4868,-3.4731,-3.8002,0.0,0.0,0.0,0.0,0.0,0.0,0.0,0.0,0.0,0.0,0.0,0.0,0.0,-3.7804,-3.727,0.0,-3.7902,0.0,0.0,0.0,0.0,0.0,0.0,0.0,0.0,0.0,-3.8002,-3.8002,-3.8002,-3.8002,-3.8002,-3.8002,-3.8002,-3.8002,-3.7755,-3.7268,-3.7091,-3.6381,-3.515,-3.4054,-3.4021,-3.4843,-3.3562,-3.3756,-3.506,-3.4326,-3.3935,-3.3775,-3.343,-3.3281,-3.3281,-3.3281,-3.3201,-3.3086,-3.3235,-3.3281,-3.3281,-3.3281,-3.3281,-3.3281,-3.3281,-3.3281,-3.3281,-3.3281,-3.3281,-3.3281,-3.3281,-3.3281,-3.3381,-3.3706,-3.4188,-3.4677,-3.5078,-3.5692,-3.6168,-3.6168,-3.631,-3.6405,-3.6405,-3.6405,-3.6405,-3.6405,-3.6405,-3.6405,-3.6405,-3.6405,-3.6405,-3.6405,-3.6405,-3.6405,-3.6405,-3.6405,-3.6405,-3.6405,-3.6405,-3.6405,-3.6405,-3.6267,-3.6132,-3.6132,-3.5994,-3.573,-3.5282,-3.527,-3.5085,-3.4755,-3.4755,-3.4553,-3.4224,-3.4578,-3.4464,0.0,0.0,0.0,-3.7953,0.0,0.0,0.0,0.0,-3.8002,0.0,0.0,0.0,0.0,-3.8002,-3.7826,-3.7299,-3.7663,0.0,0.0,0.0,0.0,0.0,0.0,0.0,0.0,-3.8002,-3.8002,-3.8002,-3.8002,-3.8002,-3.8002,-3.8002,-3.8002,-3.8002,-3.8002,-3.7742,-3.7181,-3.6664,-3.6117,-3.5552,-3.4121,-3.3891,-3.479,-3.3827,-3.3642,-3.405,-3.4016,-3.374,-3.3304,-3.3292,-3.3281,-3.3281,-3.3281,-3.296,-3.2569,-3.3097,-3.3281,-3.3281,-3.3281,-3.3281,-3.3281,-3.3281,-3.3281,-3.3281,-3.3281,-3.3281,-3.3281,-3.3281,-3.3281,-3.3281,-3.3331,-3.3656,-3.404,-3.404,-3.4884,-3.562,-3.562,-3.6038,-3.6405,-3.6405,-3.6405,-3.6405,-3.6405,-3.6405,-3.6405,-3.6405,-3.6405,-3.6405,-3.6405,-3.6405,-3.6405,-3.6405,-3.6405,-3.6405,-3.6405,-3.6405,-3.6405,-3.6405,-3.5868,-3.552,-3.552,-3.5019,-3.4763,-3.4751,-3.4751,-3.4774,-3.4913,-3.4913,-3.4901,-3.4949,-3.494,-3.4602,0.0,0.0,-3.6923,-3.6923,0.0,0.0,0.0,0.0,0.0,0.0,0.0,0.0,0.0,-3.6923,-3.6908,-3.6719,-3.6845,-3.6784,0.0,0.0,0.0,0.0,0.0,0.0,0.0,0.0,0.0,-3.6923,-3.6923,-3.6923,-3.6923,-3.6923,-3.6923,-3.6923,-3.6923,-3.667,-3.6149,-3.595,-3.558,-3.5074,-3.393,-3.3899,-3.4733,-3.3522,-3.3328,-3.3981,-3.366,-3.343,-3.3281,-3.3281,-3.3281,-3.3281,-3.3281,-3.3178,-3.2994,-3.2822,-3.2546,-3.2331,-3.2331,-3.2331,-3.2331,-3.2331,-3.2331,-3.2331,-3.2331,-3.2331,-3.2282,-3.2259,-3.2271,-3.2331,-3.2331,-3.2645,-3.3017,-3.3017,-3.3812,-3.4514,-3.4514,-3.4943,-3.5278,-3.5278,-3.5278,-3.5278,-3.5278,-3.5278,-3.5529,-3.6304,-3.6405,-3.6405,-3.6405,-3.6044,-3.5818,-3.5818,-3.5491,-3.5278,-3.5278,-3.5278,-3.5278,-3.5278,-3.5102,-3.4956,-3.4956,-3.4781,-3.4716,-3.4835,-3.4822,-3.4887,-3.4965,-3.4965,-3.4789,-3.4397,-3.5259,-3.5273,-3.6405,-3.6405,0.0,-3.6405,-3.6405,0.0,-3.6405,0.0,-3.6405,0.0,0.0,0.0,0.0,-3.6405,-3.6405,-3.6405,-3.6405,-3.6405,0.0,-3.6405,0.0,0.0,0.0,0.0,0.0,-3.6405,-3.6405,-3.6405,-3.6405,-3.6405,0.0,-3.6405,-3.6405,-3.6405,-3.6405,-3.6133,-3.562,-3.5417,-3.5044,-3.4495,-3.3731,-3.3706,-3.4245,-3.3339,-3.3232,-3.3729,-3.3419,-3.3281,-3.3281,-3.3281,-3.3281,-3.3281,-3.3281,-3.3166,-3.2982,-3.2822,-3.2454,-3.2078,-3.2078,-3.1963,-3.1813,-3.1754,-3.1766,-3.1813,-3.1813,-3.1813,-3.1848,-3.1961,-3.1892,-3.1848,-3.202,-3.2119,-3.2253,-3.243,-3.3119,-3.3766,-3.3915,-3.4338,-3.468,-3.468,-3.468,-3.468,-3.468,-3.468,-3.4964,-3.5667,-3.578,-3.578,-3.578,-3.5466,-3.5207,-3.5207,-3.4893,-3.468,-3.468,-3.468,-3.468,-3.468,-3.4749,-3.4781,-3.4781,-3.4785,-3.4955,-3.5273,-3.5051,-3.5191,-3.5655,-3.5208,-3.5046,-3.5127,-3.575,-3.5897]}]]